GFSSGP_250_rhum_000.txt.gz
RH
64 74 83 84 72 72 72 68 66 60 53 55 53 53 48 48 46 50 42 31 41 32 29 28 21 16 16 15 14 12 11 10 8 16 27 45 51 86 97 100 99 100 91 100 100 99 98 94 75
70 80 82 85 79 66 58 59 57 58 54 46 40 34 36 38 38 26 22 17 19 18 20 16 15 16 16 14 13 11 11 9 14 51 32 37 63 100 100 100 100 98 100 100 100 100 100 98 90
70 77 78 74 69 60 53 51 50 46 40 38 36 32 30 31 21 17 16 14 14 15 14 16 21 18 17 15 13 11 10 9 12 69 12 18 22 99 100 100 100 100 100 100 100 100 100 100 99
66 59 54 52 54 53 46 41 41 36 30 29 30 25 22 17 13 14 17 15 16 16 19 28 29 21 20 19 14 12 11 12 11 12 14 10 18 100 100 100 99 100 100 97 100 100 100 100 100
47 49 46 45 45 39 37 33 24 19 22 22 19 15 13 13 13 15 13 18 23 22 26 23 22 21 24 20 18 15 19 25 23 17 10 9 14 94 100 100 100 100 100 95 84 100 100 100 96
30 29 29 26 21 20 21 17 15 13 12 13 11 11 12 12 16 15 14 21 20 26 20 23 25 30 28 24 21 30 35 25 18 12 10 10 8 11 48 98 100 100 100 82 62 42 42 46 41
27 26 22 19 15 14 12 11 10 10 10 11 11 11 13 14 15 16 28 22 20 29 45 45 46 37 28 31 34 42 32 22 24 21 13 12 12 11 16 37 69 63 59 61 75 85 72 65 51
16 14 12 11 11 11 11 12 13 14 15 16 17 17 17 18 21 22 24 34 37 38 38 55 41 41 39 41 54 23 24 22 29 31 16 15 16 18 18 26 31 41 79 80 71 82 85 100 76
9 10 11 12 14 14 14 15 16 17 19 22 27 30 33 36 39 38 38 38 44 47 47 46 41 45 44 37 28 23 20 22 35 51 32 19 41 38 50 86 93 94 98 82 80 97 100 100 100
10 11 12 14 15 17 19 22 25 29 33 36 38 39 48 50 54 53 54 56 54 60 50 43 42 44 49 44 34 29 24 27 52 77 56 24 64 80 100 100 100 100 100 74 89 97 100 100 100
13 16 18 20 23 25 27 27 28 30 34 39 47 59 70 61 54 57 58 65 57 59 55 52 54 50 49 47 41 36 32 30 57 93 75 38 67 100 100 100 100 100 80 92 97 88 79 100 100
17 20 24 28 29 32 37 41 43 43 43 45 47 47 49 50 48 54 53 63 71 63 53 48 48 44 40 44 46 46 43 43 45 98 91 78 61 91 90 98 100 99 96 100 100 100 100 84 100
19 20 23 23 25 27 30 34 37 37 37 34 34 34 37 40 44 46 49 55 62 60 57 50 41 32 28 27 35 43 46 47 49 81 100 92 85 82 82 96 100 100 100 100 100 100 100 100 100
22 26 26 24 24 22 26 28 32 33 32 35 32 27 27 29 33 34 33 29 28 26 25 23 23 22 23 28 32 36 55 52 58 59 100 100 93 79 74 88 100 100 100 100 100 98 98 100 100
26 26 26 27 26 28 31 34 39 34 29 28 25 33 27 27 37 31 34 40 36 34 33 36 36 35 35 35 32 29 40 55 63 58 76 100 100 85 71 80 100 100 100 99 100 75 100 83 100
20 23 23 24 32 32 32 35 29 31 34 36 33 28 32 35 36 38 37 32 28 31 30 31 31 31 32 31 30 31 30 29 44 56 59 99 100 100 80 86 100 100 100 100 100 100 100 100 100
36 32 32 30 32 33 37 41 46 48 56 57 54 52 58 59 65 46 41 34 39 32 28 35 38 34 28 32 31 28 28 29 29 29 46 60 100 100 100 92 100 100 99 100 100 100 92 100 96
28 28 38 39 42 47 45 42 41 49 56 65 60 63 68 66 55 60 66 66 80 80 79 71 50 45 53 48 48 38 30 25 26 25 26 42 69 100 100 92 92 100 100 100 100 100 100 100 100
33 33 32 29 45 44 40 45 50 53 58 54 56 59 62 71 75 79 67 63 84 59 73 79 94 100 100 94 82 56 47 36 32 26 25 24 34 58 96 100 96 86 100 100 92 100 100 100 100
38 38 40 50 41 42 80 52 51 57 57 62 61 71 61 61 64 72 79 75 72 67 66 76 71 73 77 95 97 100 94 57 46 41 30 31 26 29 47 76 100 98 84 100 100 100 100 100 100
53 51 48 47 46 73 45 56 56 62 62 69 81 84 83 89 75 69 84 82 87 94 100 96 90 80 100 94 100 70 80 90 67 49 38 34 32 25 25 35 53 86 100 88 96 100 100 96 100
56 82 85 61 55 53 54 55 71 77 81 84 84 91 84 81 100 100 100 100 100 98 100 97 95 100 100 100 100 100 93 75 84 73 56 38 33 32 35 25 27 36 56 91 93 91 95 100 100
49 62 81 67 74 54 66 79 76 87 79 98 96 100 100 96 89 94 89 86 78 100 100 100 100 100 100 100 100 100 100 93 82 72 76 68 56 46 41 25 26 23 26 37 61 83 92 94 100
31 38 58 86 68 75 57 97 76 91 91 88 95 96 100 99 79 76 94 99 100 100 100 100 100 100 100 100 100 100 100 100 99 69 57 73 70 55 48 41 36 30 26 20 25 36 52 69 81
25 31 33 51 76 63 55 64 88 73 91 93 99 95 86 76 62 69 71 70 100 100 100 100 100 100 100 100 100 100 100 100 100 64 58 55 71 64 43 43 46 46 39 24 23 24 26 32 41
43 42 22 24 43 50 66 45 84 81 100 100 92 79 72 71 69 72 82 89 90 77 96 100 100 100 100 100 100 100 100 100 88 70 47 64 59 58 41 38 41 43 38 33 30 27 24 20 22
40 58 61 41 37 41 72 80 40 71 79 78 89 85 83 82 79 77 79 99 100 91 84 99 100 100 100 100 100 100 100 95 75 58 39 44 55 47 37 31 34 37 35 29 25 21 18 15 14
30 39 55 54 30 23 41 100 40 91 86 100 100 100 89 82 90 87 80 89 94 92 89 97 100 100 100 100 100 100 96 100 54 46 32 32 34 28 23 24 26 30 33 31 23 18 14 10 8
45 36 62 45 36 23 25 100 49 79 64 100 100 100 97 100 100 96 93 91 100 98 100 91 100 100 100 100 100 100 100 100 49 34 26 22 21 19 19 20 22 24 23 19 16 14 13 11 9
72 58 73 51 50 41 23 89 72 75 76 98 100 100 82 76 86 98 100 100 100 100 89 100 90 100 100 100 100 100 100 81 35 29 22 17 16 16 17 17 18 16 13 10 7 6 6 5 5

GFSSGP_250_rhum_003.txt.gz
RH
55 57 54 50 48 53 74 70 63 55 53 68 72 78 78 73 69 56 48 49 43 38 34 35 35 32 23 21 21 21 21 19 22 17 14 11 13 95 98 100 97 92 79 98 100 99 100 100 100
67 47 42 48 82 77 81 60 68 63 60 64 58 54 50 49 49 48 47 37 35 33 26 29 25 21 20 22 22 18 19 18 17 14 11 10 14 39 100 100 100 97 98 92 100 98 98 100 100
71 71 93 97 98 89 78 70 69 48 38 44 33 31 36 39 34 26 24 23 21 24 23 19 21 19 25 20 20 20 23 23 18 13 9 11 12 54 90 100 100 100 99 95 91 100 95 100 100
58 78 75 66 64 60 61 51 44 37 32 27 24 25 26 25 22 18 17 18 19 20 18 18 19 18 21 24 23 27 29 25 19 15 12 9 18 39 100 100 100 100 60 100 100 100 100 98 93
67 62 60 52 48 38 35 32 28 23 22 21 26 22 17 15 15 15 14 14 14 19 18 20 19 22 21 28 24 23 23 21 23 17 15 13 10 20 100 100 100 56 100 100 100 100 100 100 100
53 45 42 32 31 33 21 18 17 19 22 19 16 13 13 13 13 13 14 14 14 15 16 17 20 25 25 22 26 28 30 26 24 20 18 25 27 17 35 100 100 98 100 100 100 100 100 100 93
48 34 29 22 21 19 17 16 17 14 12 13 12 12 13 13 14 14 16 17 18 19 20 19 20 26 23 29 40 39 35 33 25 27 38 29 20 16 11 36 100 100 100 100 100 100 100 99 99
29 25 16 14 13 13 13 12 12 11 12 14 14 15 15 15 16 17 20 21 22 26 30 26 27 28 40 44 57 59 43 34 30 40 28 16 12 15 13 11 100 100 100 100 100 100 98 100 100
10 9 9 10 10 11 11 12 13 14 15 16 17 18 20 22 28 34 42 50 54 50 47 44 41 37 43 55 61 49 35 36 32 28 23 15 16 14 11 10 26 100 100 100 100 100 100 100 100
10 11 12 12 13 13 15 16 19 22 24 27 30 34 39 45 44 50 61 64 57 57 54 50 48 44 53 49 46 41 47 47 45 30 15 16 24 27 14 8 10 38 100 100 100 100 100 100 100
11 12 13 14 16 19 21 24 25 28 32 37 37 36 37 36 39 43 47 50 50 49 61 65 70 65 54 51 51 52 54 50 44 36 20 22 36 59 39 10 10 11 19 78 100 99 97 100 90
13 15 17 18 20 19 21 24 27 32 35 35 34 32 31 32 33 33 35 37 42 43 43 48 53 54 55 57 49 50 52 55 50 42 41 38 40 79 87 25 28 30 34 28 61 81 100 80 100
16 21 20 20 20 20 24 25 24 27 26 25 25 25 22 22 25 28 31 33 33 33 33 34 33 34 34 33 33 34 31 34 36 46 49 54 49 73 92 55 65 100 100 98 100 100 89 83 100
21 24 22 23 28 26 29 32 32 33 36 32 31 28 23 21 25 27 28 26 25 30 32 29 31 30 30 29 26 25 23 22 23 27 38 44 55 54 92 91 67 100 100 100 100 94 80 100 100
26 25 29 28 31 33 35 35 34 32 30 34 37 34 37 39 37 42 52 40 35 38 35 39 38 34 30 31 35 34 31 28 27 27 27 32 45 57 79 97 62 96 100 100 100 94 83 100 100
26 28 30 28 34 32 46 47 40 44 42 45 49 56 61 59 64 60 62 61 50 55 56 52 46 47 45 38 35 35 35 32 31 26 27 29 31 54 64 96 97 72 100 100 100 96 85 79 100
32 28 27 31 40 43 45 45 51 49 59 51 50 47 47 59 67 67 69 62 51 52 60 62 60 54 62 54 61 62 47 43 38 42 35 30 29 32 46 70 100 93 68 92 97 100 100 82 100
32 46 70 66 43 47 49 49 47 44 39 44 53 59 74 83 74 74 60 50 64 88 79 75 84 86 79 71 74 81 66 62 62 57 54 36 31 27 29 40 71 100 98 81 96 100 100 100 92
28 25 32 46 38 39 40 42 46 49 61 70 74 71 75 65 66 86 86 60 57 67 75 94 82 95 100 93 99 99 91 90 84 76 78 79 37 29 26 25 34 57 100 100 83 91 100 100 100
34 38 34 37 37 42 43 45 50 60 72 66 68 92 88 68 44 50 56 46 46 49 49 45 56 75 82 86 100 100 100 100 100 96 92 71 85 46 27 27 23 27 51 100 100 94 100 100 100
44 51 51 46 57 68 57 60 54 56 71 87 90 68 64 61 59 61 64 73 78 74 79 61 64 78 78 76 76 98 100 100 100 100 100 100 90 67 82 34 25 24 24 48 98 100 82 100 100
47 49 48 36 46 50 86 98 69 98 100 100 100 79 86 82 79 75 71 75 77 82 79 80 81 78 78 81 69 73 82 100 100 100 100 100 96 90 75 50 31 30 24 23 34 82 87 66 86
54 58 58 46 44 54 60 91 95 85 97 93 92 87 93 98 93 86 92 86 83 83 77 95 95 94 89 82 100 97 100 100 100 100 100 100 100 89 85 61 34 27 32 29 25 25 59 99 82
59 73 84 55 38 36 42 48 86 85 82 100 98 99 100 100 100 100 97 100 96 89 100 100 100 100 86 96 95 99 100 100 100 100 100 100 100 92 79 55 44 25 24 29 31 23 22 38 74
37 46 61 72 88 48 42 33 33 45 76 92 99 100 100 100 100 94 80 93 100 100 100 100 100 100 100 100 100 96 100 95 100 100 100 100 100 100 66 38 38 28 25 22 23 26 28 31 29
26 29 35 44 53 96 68 62 30 25 40 53 83 100 100 100 91 100 99 100 100 100 100 100 92 89 86 100 100 100 87 88 100 99 100 100 100 96 50 28 25 23 20 21 21 20 21 25 30
38 35 27 42 38 52 96 85 100 39 54 48 80 99 100 98 99 100 100 100 100 79 100 88 88 97 87 100 100 97 91 90 99 91 97 100 96 65 27 21 18 17 16 15 15 14 16 19 23
40 43 44 49 45 44 59 76 100 54 62 62 94 96 98 88 75 98 100 89 72 91 88 83 94 96 100 100 100 100 100 98 100 93 91 97 74 36 18 16 15 14 14 12 12 13 13 13 15
31 35 43 46 36 36 35 93 91 89 97 100 100 100 97 53 73 87 98 83 84 100 100 100 100 100 100 100 100 100 100 100 100 97 93 77 45 20 15 13 12 12 12 12 12 12 13 13 13
35 34 42 46 32 55 33 95 71 100 98 100 100 100 85 40 59 90 59 62 76 100 100 100 100 100 100 100 100 100 100 100 100 96 77 52 25 14 12 12 12 13 14 14 14 14 14 13 13

GFSSGP_250_rhum_006.txt.gz
RH
99 88 69 92 61 63 61 72 57 68 52 82 71 68 67 66 51 46 37 34 40 41 32 31 30 29 46 47 49 47 45 38 41 39 25 23 22 22 24 26 24 100 100 100 100 85 59 79 88
62 46 45 60 68 74 93 75 72 56 58 54 52 52 54 47 40 34 33 29 33 30 28 29 31 35 35 29 30 30 32 28 24 25 21 21 19 16 16 19 85 100 91 100 89 100 100 87 66
40 26 31 43 66 49 60 67 62 60 50 52 49 49 53 41 32 26 25 25 26 28 34 33 31 28 27 23 23 24 22 21 21 23 20 21 20 21 19 15 61 100 100 92 65 70 100 98 92
30 39 55 100 100 100 94 90 82 68 56 46 39 39 43 29 24 24 24 25 28 27 23 24 21 16 17 16 16 18 21 22 19 20 21 26 21 19 18 27 36 94 99 73 98 100 100 100 100
98 99 99 94 81 58 59 62 60 55 40 39 35 25 34 33 24 29 31 53 46 24 18 13 13 14 14 14 13 14 16 17 19 21 23 22 19 17 17 21 42 25 98 69 100 100 100 100 100
55 50 61 54 52 50 37 33 33 30 24 22 19 18 38 59 54 45 53 72 83 40 14 13 13 15 15 15 15 15 18 21 25 24 20 21 23 22 18 13 10 74 100 66 94 100 100 100 100
52 43 52 46 45 36 29 20 18 14 16 17 15 16 41 58 26 21 64 91 76 16 16 16 18 20 22 23 21 22 23 27 28 33 32 31 26 23 19 16 13 86 100 83 79 100 100 100 100
70 67 51 32 30 22 15 14 14 12 12 13 12 10 16 32 23 21 17 17 18 20 21 23 30 34 32 34 34 34 43 39 46 50 44 41 29 24 23 26 32 54 100 100 80 79 100 100 100
50 30 20 12 10 11 10 11 12 12 12 13 14 15 15 16 18 21 24 28 29 32 37 44 44 44 46 49 52 51 45 49 50 54 40 36 32 25 26 26 25 25 100 100 93 100 100 100 100
26 13 8 9 10 11 11 13 13 14 16 17 20 23 26 29 29 30 30 28 27 31 35 41 41 42 45 47 52 59 61 55 49 48 42 47 49 36 26 21 14 14 38 100 100 93 100 100 86
11 10 10 11 13 14 16 16 17 17 18 22 22 22 24 20 19 21 23 27 29 34 37 38 37 40 43 48 58 58 66 61 57 53 48 48 53 54 39 23 18 16 13 49 100 100 100 100 95
11 12 13 15 16 17 18 17 18 18 20 22 20 22 23 20 18 20 21 24 27 29 30 31 32 31 30 30 32 37 41 44 49 50 47 46 39 36 46 41 31 22 19 17 35 100 100 100 100
13 14 15 18 18 18 20 22 26 26 26 30 26 29 27 31 24 26 29 31 37 32 26 29 31 29 29 27 26 30 34 33 34 33 32 33 31 32 30 35 44 46 39 32 22 13 73 100 100
16 19 20 21 29 30 30 32 29 29 28 37 36 37 41 40 39 46 48 46 44 46 47 52 52 48 45 43 42 47 44 53 41 37 33 30 26 24 24 25 30 39 47 62 73 23 16 66 100
22 26 24 23 25 26 28 32 35 37 39 36 40 43 38 45 46 42 42 42 44 48 46 42 45 44 47 45 44 53 47 64 81 67 54 48 43 30 26 25 25 30 36 46 67 81 37 50 73
22 26 25 26 32 32 34 36 36 41 46 50 49 47 44 58 48 37 42 42 45 44 49 44 49 51 53 54 59 76 84 87 83 85 90 70 78 82 71 56 33 27 27 36 44 78 68 96 100
24 28 26 27 32 35 36 46 52 63 56 62 56 40 40 42 46 52 50 50 47 47 44 48 55 49 50 54 50 48 50 57 68 73 88 86 77 81 91 99 99 83 30 28 36 58 80 64 100
30 27 26 31 32 36 40 49 59 57 55 53 57 62 62 64 61 54 54 44 43 49 59 59 63 62 54 67 58 62 64 54 52 48 52 65 68 81 83 85 100 95 75 37 27 37 68 92 72
23 30 39 40 40 41 43 45 56 66 67 66 62 71 62 58 47 53 72 67 82 80 80 74 78 86 93 59 81 55 55 57 70 51 42 52 43 59 72 72 72 90 91 68 30 26 35 68 91
39 38 42 41 34 35 39 53 58 75 71 69 76 66 70 92 93 83 72 89 69 87 98 85 91 99 100 100 100 100 91 89 78 83 64 71 71 73 65 60 67 66 68 63 52 27 26 33 63
22 24 28 33 42 47 55 69 61 66 62 74 77 92 100 100 100 100 98 91 93 100 100 100 100 100 100 97 96 81 88 96 94 86 88 70 78 80 81 74 65 67 69 74 54 41 24 22 30
28 26 19 28 38 42 57 49 39 35 65 72 79 87 92 78 79 83 100 100 100 100 100 100 100 100 82 81 100 97 99 100 100 100 100 87 84 98 94 86 82 86 80 83 66 54 38 27 22
28 33 31 26 26 27 31 38 33 51 55 54 53 68 100 100 100 100 100 100 100 100 100 100 89 90 82 87 95 100 100 100 100 100 100 100 100 94 87 87 81 78 72 58 62 62 51 39 26
50 39 40 50 50 37 41 35 40 24 30 41 68 98 100 100 100 100 94 81 99 98 98 89 62 81 93 94 100 100 100 100 100 100 100 100 100 100 98 99 91 88 85 64 52 54 57 50 36
34 37 38 38 39 59 51 78 71 56 50 40 73 100 100 100 100 100 100 97 46 66 65 53 65 82 100 100 100 100 100 100 100 100 100 100 99 100 95 98 100 84 58 52 48 40 32 36 36
35 38 40 35 44 62 91 86 95 75 67 47 58 77 100 100 100 100 58 32 38 47 51 60 66 75 90 100 100 100 100 100 100 100 100 100 100 97 100 99 86 61 45 43 35 24 17 19 24
31 31 34 38 38 45 55 66 86 80 43 50 59 59 66 70 93 71 61 40 43 47 56 49 67 72 100 100 100 100 100 100 100 100 97 100 100 99 100 87 59 44 36 29 19 14 12 12 14
39 30 29 30 32 34 44 46 74 56 64 71 83 77 75 76 68 45 49 43 56 52 65 56 65 75 99 100 100 100 100 100 100 93 100 99 100 97 91 63 43 29 23 15 12 11 11 11 11
37 44 40 34 36 31 27 48 61 54 69 82 90 87 77 57 40 52 57 51 60 44 53 59 74 93 100 100 98 100 100 98 89 95 100 100 100 95 65 48 23 17 15 11 11 11 11 10 11
37 40 44 31 32 37 25 49 49 58 56 59 56 43 62 61 91 85 61 62 64 53 60 78 88 93 100 100 100 100 100 100 94 86 100 100 100 73 42 32 14 12 11 10 10 10 11 11 12

GFSSGP_250_rhum_009.txt.gz
RH
44 43 53 64 84 96 90 44 43 39 72 63 44 33 39 93 100 98 84 82 80 70 76 64 44 37 37 34 36 36 43 52 45 54 62 61 54 32 39 30 24 24 20 20 24 63 89 100 90
48 56 47 44 58 91 93 73 68 67 53 50 43 70 86 87 85 56 45 41 38 50 50 44 42 37 31 29 32 43 58 34 33 36 37 33 30 27 24 22 24 23 20 21 27 64 94 100 100
98 100 100 95 87 75 59 40 45 82 96 96 88 82 56 49 45 43 41 39 37 46 42 46 40 33 34 31 34 45 52 30 20 19 18 17 18 19 21 22 22 21 19 26 28 86 100 100 100
92 96 94 71 58 74 100 100 75 68 58 42 44 36 47 57 46 43 44 52 55 56 55 44 55 61 59 76 88 69 45 24 15 14 14 15 14 16 21 19 20 20 22 22 23 80 100 98 99
100 79 100 78 58 64 40 42 45 53 56 49 55 51 52 36 24 30 37 52 27 37 24 52 62 43 43 48 61 28 15 15 16 14 15 15 15 16 20 20 24 22 22 63 57 82 100 94 100
36 68 98 70 65 64 62 56 59 62 56 50 39 37 24 20 20 16 15 18 23 33 41 71 37 34 72 63 28 18 18 18 17 19 18 18 20 22 24 20 21 20 25 90 100 77 96 100 87
38 42 65 44 60 72 69 53 40 38 36 33 30 17 14 13 12 12 12 35 56 58 58 26 22 22 24 28 36 35 36 35 33 30 31 30 29 28 29 25 25 22 24 20 100 97 76 100 100
52 39 32 64 77 52 46 38 26 26 22 17 10 10 11 12 12 16 31 39 26 24 29 31 29 33 38 49 47 46 42 49 50 52 55 51 51 53 50 40 30 26 26 24 20 38 85 100 100
72 82 76 59 52 26 18 16 16 10 10 11 11 12 16 19 26 33 30 29 29 31 31 30 32 38 35 37 38 46 58 56 54 59 62 54 52 49 45 37 34 29 27 30 26 25 25 94 100
48 38 33 24 19 12 11 10 11 13 14 14 16 16 17 20 23 20 21 22 28 28 27 26 29 31 32 42 46 51 57 74 68 91 73 60 57 55 45 46 43 32 28 32 35 50 97 99 100
28 17 12 11 11 10 11 13 14 15 16 19 18 18 21 20 18 18 24 23 22 22 23 23 26 28 29 27 30 33 38 42 50 54 55 53 49 50 50 51 45 38 42 34 27 41 100 100 100
9 9 10 11 12 13 14 16 18 20 21 20 21 23 21 21 24 29 29 33 28 29 30 30 32 33 28 28 27 27 30 33 37 39 37 36 37 36 33 32 34 37 35 34 27 18 57 100 100
10 12 13 15 15 17 17 22 25 26 28 29 28 29 34 36 38 40 41 37 39 40 40 45 51 50 53 63 71 81 84 74 62 72 70 53 48 46 30 26 27 28 27 30 30 25 16 30 95
12 14 16 19 19 22 24 28 28 29 29 28 30 32 39 38 34 36 38 38 40 44 43 41 41 45 48 46 45 44 50 55 68 68 71 77 59 64 63 48 32 25 23 22 24 28 28 23 21
15 19 20 21 24 26 31 31 30 31 33 40 42 42 32 33 38 40 40 41 44 44 52 56 49 63 59 49 57 60 53 60 52 49 53 48 47 61 60 64 57 51 40 30 24 21 23 27 24
16 21 24 22 26 30 32 36 42 42 46 38 40 40 34 40 47 42 49 70 70 85 70 62 67 66 82 94 100 98 62 53 66 56 58 53 48 45 44 49 50 49 55 44 36 27 22 21 25
25 23 22 23 26 32 34 38 37 41 45 43 48 56 78 68 60 56 58 69 74 74 99 100 96 99 99 89 85 95 94 61 60 63 66 66 65 62 57 58 56 43 46 47 48 48 45 28 20
25 22 23 23 29 32 38 40 38 42 35 29 40 59 99 100 100 100 100 99 100 100 100 100 100 100 100 87 82 81 78 98 89 85 80 90 76 78 99 87 71 69 61 67 55 50 45 44 35
24 26 24 24 26 30 37 44 55 38 36 47 64 94 100 92 88 92 100 100 100 83 84 90 89 80 79 59 59 73 90 100 92 88 99 100 100 96 100 99 79 68 58 59 64 70 60 52 43
21 24 28 26 26 26 24 36 42 29 46 59 61 58 57 83 89 98 87 86 64 46 46 50 54 68 60 57 66 80 83 97 100 100 100 80 87 99 100 100 98 95 92 84 71 64 67 70 48
20 20 20 24 27 28 26 47 43 52 43 38 47 67 94 100 94 100 91 91 86 63 57 43 41 40 40 47 55 67 76 98 99 97 90 96 100 99 100 100 96 100 100 99 89 88 72 66 66
26 21 24 21 31 30 31 27 27 44 40 50 48 58 79 95 100 100 100 96 96 79 63 58 45 46 55 60 55 60 75 85 91 95 100 100 100 100 98 99 98 100 100 100 100 100 100 88 73
38 33 28 29 25 30 48 40 19 24 32 31 49 49 62 99 100 100 100 100 100 86 65 69 87 77 79 63 52 56 71 87 92 100 100 100 100 100 100 100 98 100 98 92 90 91 94 74 63
42 42 35 37 35 30 56 70 60 37 23 32 39 41 49 78 80 100 100 100 100 100 100 100 75 68 82 58 56 69 86 92 91 100 95 92 91 94 95 98 100 96 87 88 73 64 62 57 54
40 35 41 38 41 44 54 58 74 59 48 46 55 45 57 69 65 81 71 97 87 80 87 57 43 58 60 61 71 77 83 92 100 100 100 98 100 98 100 98 99 80 79 73 69 58 43 37 39
49 41 32 36 36 61 80 84 82 67 67 61 45 43 48 61 56 40 34 33 34 36 48 43 40 50 58 61 59 68 71 73 87 89 97 97 100 100 96 99 85 71 54 56 52 50 34 32 21
47 44 32 29 38 37 47 54 61 62 56 45 31 33 25 36 24 27 32 36 42 50 53 59 61 58 61 74 68 67 72 71 83 83 90 97 96 96 96 100 94 47 42 46 43 37 30 23 13
39 28 26 23 24 25 31 42 51 40 35 30 23 18 43 51 52 61 50 55 48 54 63 68 65 49 41 52 59 67 82 89 94 94 97 98 99 93 97 91 63 33 30 31 34 28 21 15 11
39 44 31 29 28 27 22 30 38 22 21 22 33 49 49 33 27 33 46 47 58 68 85 87 49 50 55 72 64 65 82 96 99 95 98 100 85 75 72 64 37 26 24 26 26 18 12 10 10
30 32 30 22 21 23 14 25 28 30 31 40 44 50 50 56 66 75 79 88 94 98 85 70 55 61 64 62 62 72 92 100 100 100 100 87 81 64 51 41 23 22 23 24 16 10 9 9 9

GFSSGP_250_rhum_012.txt.gz
RH
67 55 32 34 42 41 50 48 55 86 84 75 82 100 100 100 87 89 87 55 61 61 68 58 49 54 53 49 46 62 68 78 77 89 72 52 34 33 30 42 43 30 26 30 25 22 21 21 21
85 93 68 56 53 51 50 53 100 100 100 100 100 100 100 100 70 78 64 52 57 46 47 61 58 44 51 46 67 76 71 68 70 63 60 71 86 73 59 48 29 24 18 31 21 22 23 25 22
78 73 68 57 58 48 74 100 65 100 100 100 68 66 74 100 53 40 48 60 68 55 52 57 41 42 43 66 56 70 70 52 71 57 72 61 36 42 23 17 15 15 20 26 25 25 26 28 34
88 56 47 76 53 100 78 82 77 93 92 67 37 26 46 66 39 50 62 61 55 45 48 40 31 32 27 28 33 55 52 80 68 47 59 68 28 18 17 17 18 16 27 35 35 25 27 30 75
50 71 46 65 83 100 97 95 87 77 64 62 37 54 48 40 48 66 47 34 34 32 25 20 16 22 30 27 48 48 65 44 33 33 31 24 23 21 20 22 21 20 30 25 28 26 31 25 62
91 100 100 100 96 79 52 53 60 45 46 44 54 68 58 55 45 34 27 20 16 13 12 15 16 35 60 52 29 25 22 21 29 30 28 32 32 31 29 29 29 28 42 35 34 33 35 34 44
96 98 92 73 50 41 39 52 66 55 48 52 44 34 27 24 22 14 13 11 12 13 33 46 71 49 37 34 33 32 40 45 48 52 52 48 43 39 36 33 36 36 39 38 41 33 37 49 52
76 55 53 51 57 68 55 62 52 43 37 28 25 19 13 11 10 11 13 22 18 23 48 38 30 34 38 34 33 39 44 48 52 59 63 66 63 63 59 59 54 43 44 41 36 30 29 81 89
69 63 60 71 64 53 46 40 33 20 16 14 12 12 12 13 14 19 25 22 26 31 40 36 28 25 26 28 29 30 37 42 45 45 52 57 73 66 56 56 59 60 57 48 35 31 69 100 91
65 62 59 56 45 39 33 20 15 12 11 12 14 14 15 16 18 19 19 19 27 46 25 26 30 32 29 26 26 27 29 31 33 35 38 45 56 56 55 55 53 51 45 45 43 39 38 68 100
48 44 39 41 28 18 14 11 11 13 16 17 18 19 20 20 24 25 25 26 27 31 28 38 44 44 44 46 45 46 48 51 53 73 69 53 45 34 33 42 51 51 50 46 45 40 36 49 48
34 26 18 14 12 10 11 13 16 20 21 21 22 24 26 26 28 37 42 40 42 43 47 52 60 58 62 68 67 67 65 64 64 69 69 80 84 64 69 46 37 31 35 38 42 41 39 36 36
11 11 10 10 12 14 15 17 22 22 24 27 29 32 37 38 40 42 48 49 54 55 58 69 76 78 69 80 79 78 80 72 56 56 61 49 56 52 48 59 61 49 40 32 27 29 31 36 35
10 10 12 13 15 15 21 24 24 26 29 31 35 33 31 35 42 53 46 58 76 80 79 83 80 79 91 99 100 97 91 75 58 51 65 56 56 54 56 67 60 60 54 52 45 39 29 24 25
13 15 15 17 20 22 25 26 26 29 28 29 32 39 47 47 48 47 49 58 68 76 89 98 82 72 76 65 73 66 56 79 98 87 80 80 71 68 77 86 71 79 73 55 54 52 48 40 32
18 21 21 21 24 27 28 26 26 27 27 30 60 84 100 89 87 74 54 62 63 55 57 72 93 74 54 50 53 50 54 63 80 91 88 93 100 92 100 89 91 100 96 83 68 71 73 50 44
20 22 23 22 24 29 28 26 31 24 26 41 66 84 78 48 50 61 65 89 86 76 59 44 46 48 46 53 46 51 56 72 83 87 91 90 88 96 80 97 84 89 99 94 96 84 75 72 63
24 24 25 23 24 28 29 28 28 31 39 59 74 100 100 100 100 100 100 100 99 88 62 50 39 39 41 43 45 49 54 63 63 64 78 82 84 88 89 100 100 100 100 99 95 72 84 74 71
21 22 21 20 22 23 26 28 20 33 44 38 46 60 64 99 100 93 100 100 99 82 62 54 44 41 46 50 59 65 52 49 46 48 60 61 61 67 78 88 100 100 100 97 84 76 87 86 74
25 25 24 24 26 27 25 24 26 25 35 36 28 36 44 49 71 57 66 98 90 80 64 46 33 34 36 38 41 39 43 45 48 50 54 54 60 68 83 72 83 83 99 97 83 87 83 87 82
19 20 19 18 20 35 27 32 38 35 22 26 37 34 44 50 69 70 63 64 75 67 63 47 32 26 32 52 50 49 54 57 60 64 69 69 72 77 83 79 74 82 91 97 89 100 100 98 95
32 31 28 21 25 24 29 26 30 42 48 52 72 74 77 62 73 75 79 73 75 76 81 75 60 42 44 69 61 58 70 70 67 63 60 58 59 67 73 71 75 91 83 78 93 99 96 94 93
34 33 30 30 28 25 26 27 26 34 40 42 34 28 44 63 64 63 61 50 58 77 83 90 87 96 100 100 100 100 96 87 65 65 61 59 60 64 67 76 88 86 84 92 98 100 90 83 72
44 31 27 27 32 33 33 38 32 23 16 17 16 16 22 31 31 35 37 41 48 60 79 68 90 100 99 100 100 100 100 84 75 74 66 66 61 72 86 93 92 88 88 89 98 84 73 67 62
48 48 47 30 29 34 35 38 36 35 25 24 27 25 20 30 30 31 34 33 39 51 45 82 89 84 79 68 77 82 84 77 71 74 67 63 69 75 85 98 94 88 83 84 72 68 64 50 35
38 42 51 51 43 45 42 40 35 28 26 27 27 27 31 36 34 34 34 34 33 51 77 73 60 56 57 61 63 67 64 56 53 49 46 52 65 76 86 95 94 91 78 69 62 55 39 32 24
43 45 42 42 44 41 38 34 32 30 27 28 27 28 48 52 46 56 68 68 76 94 85 69 59 58 68 74 75 64 58 58 59 62 81 95 92 93 98 86 63 56 66 59 52 41 32 22 16
34 31 32 31 26 25 26 31 55 36 29 34 51 81 91 78 75 84 76 69 72 71 75 74 77 83 84 70 59 66 83 87 88 93 83 69 56 51 50 48 51 53 52 45 31 27 22 15 16
21 22 24 25 25 26 24 41 39 36 42 39 61 66 67 65 60 55 56 61 61 61 62 81 82 75 75 95 100 100 92 77 64 57 47 46 49 48 51 51 49 38 29 24 20 16 13 14 16
23 24 22 21 26 33 27 45 42 40 40 55 53 58 57 52 58 56 53 54 73 90 91 87 95 100 96 91 76 61 51 45 44 46 47 46 51 47 43 33 22 19 16 16 13 11 13 15 11

GFSSGP_250_rhum_015.txt.gz
RH
100 100 100 92 83 90 91 78 59 43 46 55 50 56 52 51 53 62 80 86 87 77 59 58 56 52 48 66 68 73 67 74 60 62 56 39 56 55 58 53 39 52 61 42 54 48 44 44 31
100 100 95 81 75 82 89 99 76 92 87 92 80 64 63 79 90 93 71 52 53 61 43 45 53 63 68 73 62 62 37 39 34 29 33 26 28 42 40 40 53 71 73 59 48 42 32 31 21
55 52 57 56 72 89 88 79 65 78 89 83 80 98 91 86 90 82 46 45 45 51 51 50 57 46 52 43 29 26 20 24 25 23 33 56 56 67 79 79 38 56 62 36 26 20 19 18 24
60 80 89 74 40 31 42 50 84 91 93 96 100 92 100 90 74 59 58 58 61 52 46 44 40 33 26 19 15 17 36 56 54 69 92 76 91 69 39 36 59 55 63 34 34 18 24 32 36
100 85 80 66 54 49 63 63 88 98 100 94 98 86 79 58 52 55 57 44 39 38 35 26 17 16 16 13 18 18 55 66 80 70 47 29 38 34 32 28 25 24 21 20 20 20 26 37 45
92 91 99 100 93 97 100 100 100 99 67 78 76 58 60 60 52 52 40 34 28 18 13 14 13 13 25 26 36 32 56 44 32 38 43 47 46 50 47 45 40 34 29 25 22 29 35 45 60
100 96 92 93 100 98 91 86 81 70 63 60 61 55 48 45 39 35 23 14 12 13 15 19 24 29 33 29 28 34 35 37 39 42 46 54 56 56 54 54 53 47 37 32 32 36 34 40 50
100 98 71 75 77 74 61 64 66 47 46 45 44 46 42 32 17 15 11 11 13 21 23 24 32 36 34 29 28 29 29 30 30 32 36 39 44 55 60 57 55 55 60 52 40 37 39 39 48
74 91 76 60 63 47 48 60 57 47 42 39 35 32 22 12 11 12 13 15 16 22 30 38 29 28 27 27 27 28 29 30 32 35 35 36 38 40 43 52 58 60 56 60 65 62 57 54 47
63 71 66 56 56 60 57 54 42 32 30 23 15 11 12 13 16 17 18 24 30 32 30 31 34 35 32 33 28 27 28 35 38 41 44 44 40 40 40 42 43 42 48 54 54 52 58 61 50
72 65 60 57 50 48 42 30 18 13 11 11 12 16 18 21 23 25 29 32 43 38 45 47 53 64 72 61 63 64 69 76 72 66 77 77 74 81 80 64 58 54 48 40 38 44 49 45 50
48 41 38 34 29 16 13 11 11 11 16 16 19 23 26 30 29 39 42 47 62 88 91 92 82 76 76 91 100 100 92 96 98 96 88 82 72 72 79 82 92 80 84 70 64 52 40 38 41
24 20 16 15 12 10 11 13 16 18 20 21 26 27 28 28 34 38 39 44 53 80 100 100 88 85 94 78 76 79 74 57 54 69 77 72 85 85 85 89 91 93 98 100 100 100 94 82 60
11 11 10 10 10 12 14 18 23 27 28 29 34 37 43 44 44 43 50 52 45 38 40 45 59 60 48 57 45 42 45 51 58 64 72 86 81 75 86 95 100 100 91 92 97 96 86 84 89
11 10 10 12 14 19 24 27 27 28 30 36 40 62 44 36 45 47 52 50 33 30 28 32 37 32 29 30 43 44 42 47 51 57 60 56 59 56 44 52 69 68 73 76 66 71 66 65 76
12 12 14 19 21 23 26 26 27 26 30 44 42 36 34 32 46 65 62 93 88 68 60 44 33 31 34 37 39 40 46 52 48 44 44 43 46 49 49 44 41 46 62 73 81 82 76 59 64
19 22 20 24 29 31 31 32 26 23 26 28 44 44 31 40 59 69 73 88 91 74 56 52 48 40 38 36 43 49 51 54 50 44 45 43 48 54 56 59 63 60 67 73 76 91 86 60 55
24 22 21 23 28 35 30 27 24 23 35 49 51 41 45 61 67 74 85 80 88 78 54 52 59 67 54 38 40 48 56 61 57 59 67 71 77 76 69 63 61 60 68 78 85 92 82 72 73
18 22 27 22 24 26 27 24 22 26 35 37 31 36 40 44 53 82 79 44 57 52 49 47 39 39 42 45 56 62 57 52 53 60 66 78 71 57 54 52 50 49 53 57 61 64 62 66 65
26 26 26 25 24 23 25 20 21 22 24 32 33 38 34 33 39 48 52 51 48 38 40 38 29 28 27 34 41 46 47 40 39 33 39 49 55 63 66 61 49 45 47 49 53 54 63 68 73
22 22 20 21 20 23 20 21 22 26 35 22 21 20 21 29 32 30 35 46 45 38 43 44 46 46 48 50 50 55 46 50 52 55 62 66 66 75 74 72 66 62 60 57 52 58 70 82 87
26 24 26 27 19 18 18 21 20 21 28 42 40 30 32 31 28 38 46 42 45 50 71 90 100 100 100 100 100 100 100 100 100 100 100 97 97 95 87 76 65 59 56 54 54 55 65 87 96
21 31 33 24 21 25 28 28 27 21 21 25 26 26 24 29 36 42 45 47 53 68 88 100 100 100 100 99 100 98 100 100 100 100 95 82 81 70 65 65 56 55 54 54 53 53 56 56 54
32 34 38 35 33 29 26 22 26 25 24 20 20 25 27 33 39 38 45 54 68 68 61 65 72 78 76 83 80 69 61 61 65 61 56 62 57 64 61 55 51 47 40 38 41 44 46 48 57
35 37 45 40 43 49 51 36 32 27 27 28 31 29 31 31 30 29 33 44 46 47 49 49 44 41 39 40 48 51 50 45 41 44 55 63 49 49 48 47 45 46 46 46 45 43 43 44 47
46 50 38 40 42 41 36 33 33 40 33 33 36 51 48 46 46 43 44 54 51 49 50 49 50 50 50 48 47 44 51 75 80 69 57 51 54 59 51 50 50 50 53 45 36 32 35 32 26
38 34 30 26 24 24 28 32 31 26 29 37 62 60 48 48 44 53 60 70 69 72 66 57 55 59 60 59 75 89 84 79 73 64 56 56 53 50 45 42 37 34 28 22 21 20 21 17 13
28 28 28 27 21 23 25 34 62 43 47 80 75 70 79 83 84 87 83 69 63 52 48 57 58 58 63 80 81 76 70 62 57 54 49 50 58 50 39 36 33 20 17 15 13 12 12 13 14
25 24 25 22 22 24 24 52 44 54 67 75 76 86 88 82 75 64 64 56 51 56 59 70 77 75 80 80 71 63 57 51 55 58 57 55 44 29 27 25 18 17 16 14 13 13 13 13 11
20 20 20 23 28 34 38 57 54 51 57 57 59 60 57 47 43 48 44 42 52 84 81 100 100 89 88 82 62 55 52 55 57 60 57 38 25 24 21 17 18 17 16 14 13 11 10 10 10

GFSSGP_250_rhum_018.txt.gz
RH
42 90 98 90 100 92 65 100 98 96 100 95 90 65 38 44 72 78 64 77 87 96 100 98 95 99 86 70 59 58 61 61 50 58 45 37 32 26 37 32 50 39 52 68 62 52 48 59 57
100 91 74 97 94 100 98 89 92 95 100 94 70 43 58 47 40 59 97 84 100 91 86 75 66 69 65 59 60 47 47 38 33 30 25 21 21 25 31 52 55 72 80 78 69 82 71 77 67
81 82 64 63 64 62 47 37 38 45 44 53 58 75 65 61 69 92 100 89 85 76 58 51 52 54 48 40 36 36 31 18 18 15 20 21 38 45 57 73 71 91 92 77 87 83 68 54 59
88 78 73 60 77 60 55 46 49 60 83 82 61 72 97 99 100 98 78 42 44 54 47 44 44 45 39 33 19 14 16 18 20 17 44 52 53 59 54 64 64 50 52 39 48 57 62 62 62
88 84 72 59 63 51 65 85 97 99 99 95 95 100 99 87 75 74 55 51 55 54 46 42 41 30 11 13 13 16 25 39 34 39 41 40 45 38 33 33 31 36 35 38 34 40 50 50 39
85 80 74 78 81 56 65 100 100 100 100 98 93 98 91 83 51 55 58 61 48 42 32 21 14 11 12 17 24 26 30 33 32 31 33 37 38 42 47 51 48 45 45 44 42 36 31 26 22
94 86 58 81 95 100 100 96 100 87 95 92 42 57 71 66 64 65 38 34 27 19 12 11 12 13 15 20 23 24 21 25 28 29 34 37 37 41 47 50 54 60 58 58 60 49 40 34 32
100 100 91 100 95 99 90 97 89 83 80 66 38 60 76 73 48 38 20 14 13 11 14 16 17 20 20 21 23 24 26 28 29 33 35 37 39 44 42 44 49 55 66 64 59 60 62 58 55
90 86 98 86 85 100 95 85 79 74 56 60 62 56 43 21 16 11 10 11 14 19 24 30 31 32 37 37 40 38 37 44 42 44 42 34 34 40 42 42 50 47 42 39 56 60 60 64 64
68 66 70 66 75 88 78 70 63 63 57 40 31 29 12 10 11 11 16 21 25 27 36 36 37 34 41 44 48 47 47 48 41 45 41 48 49 51 60 59 64 60 55 50 44 41 48 53 57
70 73 71 60 63 65 65 60 53 44 27 16 12 9 11 13 19 20 23 26 32 33 35 29 31 33 32 34 36 42 45 45 50 59 62 67 72 77 74 71 78 87 89 84 75 73 62 57 48
74 69 70 74 57 54 47 27 16 13 11 10 11 12 15 20 24 30 35 43 40 40 39 32 38 36 37 35 35 37 40 41 42 48 53 63 75 79 73 64 75 98 98 95 96 100 100 97 89
55 55 51 41 36 27 19 12 12 12 14 15 17 19 21 30 33 34 33 33 35 33 33 34 39 34 29 31 31 34 34 38 42 47 52 52 48 51 49 48 44 34 44 66 78 81 91 96 99
30 31 24 15 12 11 10 11 13 18 21 20 21 23 29 26 26 26 28 33 31 33 35 41 42 37 41 41 40 39 39 41 45 47 44 46 49 47 46 46 48 48 51 48 45 49 59 68 68
14 12 11 11 11 11 14 15 18 24 26 24 24 22 30 28 34 41 76 63 77 64 62 54 46 40 40 42 40 42 49 60 62 59 58 54 53 54 59 63 70 70 70 65 62 51 48 65 72
11 11 12 14 17 20 22 24 23 26 25 37 44 41 32 33 49 71 76 72 96 76 52 50 38 42 42 40 42 40 44 48 45 45 44 44 53 57 58 61 62 58 60 65 65 60 50 50 56
12 14 16 18 19 24 26 26 26 25 26 31 51 55 45 45 56 61 49 36 27 24 26 26 31 33 36 42 53 51 49 51 51 49 49 40 34 35 41 44 44 45 47 51 49 48 45 46 49
16 16 19 21 24 29 29 28 26 25 23 23 33 34 25 27 26 30 31 35 31 27 28 30 34 37 40 42 51 55 52 61 72 77 72 62 50 42 38 38 41 47 53 59 65 65 62 56 48
18 18 18 23 25 25 30 27 26 26 26 27 26 27 24 26 27 27 27 33 39 40 34 36 36 35 39 41 36 38 43 49 48 49 54 50 45 45 51 52 48 43 51 56 58 62 65 66 64
16 15 18 22 24 22 22 22 21 23 21 20 21 25 21 24 23 25 26 27 29 31 36 41 41 46 48 53 48 44 47 59 72 66 66 65 58 68 65 62 58 50 44 46 44 42 39 40 44
18 19 21 24 27 24 19 18 17 18 18 19 18 22 30 39 34 32 32 31 32 35 37 38 50 63 66 70 89 96 98 94 85 76 75 78 71 66 59 67 78 72 64 57 58 59 52 46 48
20 23 25 25 30 31 24 23 25 26 29 24 20 26 35 35 32 32 30 29 34 34 46 78 88 90 94 94 82 80 80 68 63 60 57 57 57 54 49 45 46 46 49 50 48 49 53 53 52
20 20 21 29 30 25 25 28 27 30 28 24 28 35 36 34 34 35 33 36 44 78 91 88 91 90 84 80 74 62 61 55 50 48 45 44 46 48 59 61 61 61 59 60 57 52 47 46 54
21 25 30 29 27 27 30 32 44 38 32 30 31 33 36 34 34 43 61 69 66 59 58 68 77 81 77 65 56 56 51 48 55 65 64 55 57 64 59 56 53 50 50 55 50 48 46 43 47
22 22 26 26 24 25 27 25 25 25 27 28 26 26 29 32 36 45 50 51 52 60 63 65 67 63 54 49 51 59 60 71 69 63 72 83 70 64 58 52 58 56 55 49 48 46 31 27 26
21 23 21 21 26 32 30 37 23 21 22 24 33 34 40 53 56 53 48 47 49 58 66 60 50 48 52 55 62 74 76 72 76 75 63 56 50 51 49 46 49 47 48 48 36 23 21 20 16
21 21 22 22 27 31 30 26 21 23 30 36 45 58 63 60 52 51 55 61 68 69 56 53 48 47 47 59 59 69 78 73 68 61 58 51 56 54 46 47 40 37 34 31 23 20 17 15 16
17 18 18 19 20 21 22 28 27 37 46 55 55 56 56 59 69 78 82 74 63 56 50 47 48 57 66 78 85 77 74 66 68 63 60 54 50 48 44 34 30 24 23 20 19 17 16 17 16
15 16 17 17 19 20 26 34 40 60 66 73 67 74 70 64 66 66 57 48 42 42 46 50 59 68 68 64 94 84 68 67 69 62 58 51 51 40 31 24 21 20 20 19 18 18 17 17 17
17 18 18 19 23 32 45 68 58 53 55 51 58 50 42 44 46 45 39 38 53 53 53 58 67 69 81 92 80 78 66 64 58 56 54 48 41 28 22 19 18 18 16 17 17 17 16 16 17

GFSSGP_250_rhum_021.txt.gz
RH
40 39 33 51 46 51 49 44 58 47 58 59 64 56 66 83 61 52 52 55 48 52 68 93 88 100 99 94 69 58 62 68 68 59 48 37 34 22 22 22 30 19 31 22 27 46 34 39 35
54 64 49 47 64 100 88 55 57 57 40 36 60 67 68 53 41 35 68 61 64 94 91 94 97 58 59 66 76 68 56 47 45 29 25 24 16 16 19 23 27 28 57 60 72 73 69 78 87
49 49 45 48 86 100 96 70 58 83 83 78 67 50 50 49 49 61 84 100 100 100 87 74 58 60 80 84 56 20 25 15 13 15 15 14 16 21 38 50 81 78 90 90 78 95 96 100 98
100 68 52 44 58 54 53 61 73 69 63 54 60 59 50 53 61 100 100 98 82 73 67 72 74 85 70 48 15 16 12 10 12 14 18 22 32 38 37 54 47 42 39 41 44 60 67 58 59
100 92 76 49 53 62 61 65 47 44 52 63 60 71 65 86 100 100 100 89 78 78 77 77 55 36 14 10 10 10 12 14 17 22 23 25 26 28 31 32 33 36 41 48 44 45 49 47 41
74 82 70 73 75 77 66 49 51 51 55 62 81 86 100 100 100 100 99 90 77 77 60 30 16 11 10 10 12 13 16 19 18 18 20 23 26 31 32 32 37 46 51 56 58 53 47 49 46
91 84 84 70 65 57 38 34 62 100 96 80 92 100 99 100 81 100 89 75 61 24 11 10 10 12 13 12 15 15 19 20 22 24 26 28 32 33 33 36 40 42 45 46 53 63 60 58 62
85 56 50 55 46 100 72 100 100 97 99 96 72 79 77 73 67 67 54 38 17 10 9 11 14 17 17 21 24 27 28 30 36 35 36 33 37 43 42 58 52 47 44 41 38 41 59 65 65
76 63 93 86 91 98 100 93 75 55 69 72 56 82 74 67 54 29 15 12 10 13 15 20 24 26 25 26 26 28 29 28 33 41 39 44 45 54 50 48 49 59 63 63 48 43 39 48 57
99 68 70 100 92 82 83 72 71 68 74 67 62 73 50 28 15 10 10 14 20 21 26 23 25 24 24 28 28 30 34 34 34 35 42 44 40 35 32 32 34 36 39 56 57 63 76 78 50
81 78 78 74 80 79 73 65 67 59 60 73 63 40 12 9 10 12 16 21 22 19 21 24 24 26 26 26 28 29 29 33 37 41 42 39 42 44 45 43 39 38 42 37 37 42 62 72 70
75 68 58 48 55 62 56 51 48 33 33 26 13 10 11 12 18 20 25 25 24 22 22 26 31 33 40 48 54 43 39 41 42 46 48 49 46 44 44 44 40 42 51 56 58 55 48 50 57
54 53 47 47 43 32 34 31 26 20 11 9 11 14 16 21 25 24 24 26 23 25 36 64 62 57 53 54 56 58 58 54 52 53 54 57 53 52 56 59 59 59 56 55 59 58 57 55 54
48 36 37 34 30 23 20 12 10 10 11 13 17 20 25 25 23 25 26 32 44 67 82 66 64 61 58 55 56 59 64 58 48 39 34 35 39 46 53 51 44 42 44 49 48 46 50 50 46
20 22 19 15 12 10 10 10 11 13 16 19 21 21 23 29 30 34 36 38 57 60 75 52 47 45 39 41 52 52 40 36 36 38 37 38 40 45 44 41 35 32 34 36 36 40 41 40 41
11 10 10 10 10 11 12 14 17 20 21 21 22 24 27 24 29 28 33 39 37 37 36 28 25 24 27 26 26 25 29 34 41 49 53 55 54 53 57 60 57 50 49 49 48 42 42 45 45
10 11 12 12 14 13 15 21 24 26 26 24 25 33 39 56 42 31 29 25 21 19 17 18 18 21 24 28 31 36 45 53 59 61 63 68 74 76 82 79 70 60 55 55 52 53 51 55 58
12 12 15 16 18 18 24 25 27 29 27 25 24 22 22 24 27 25 26 24 25 24 24 28 28 30 31 32 36 47 60 52 47 44 46 45 45 46 49 52 52 50 53 55 57 58 56 50 42
14 15 15 18 19 20 27 28 29 28 27 26 26 22 20 23 25 27 29 29 29 27 24 25 28 29 33 47 72 76 61 57 58 62 64 62 59 57 64 65 67 69 73 74 65 58 56 57 59
17 17 18 17 17 18 21 22 21 20 17 18 20 20 25 27 25 26 28 28 31 32 31 27 30 41 57 69 68 63 64 73 74 78 84 89 84 84 85 86 83 66 61 60 57 55 54 54 52
18 18 18 20 21 21 25 27 26 22 21 26 29 34 33 34 33 26 26 29 32 33 36 42 48 58 66 64 68 73 79 83 78 80 84 80 81 75 75 77 73 75 64 54 56 51 48 48 45
18 18 18 22 22 22 29 32 32 29 32 31 37 40 41 39 33 31 29 33 33 38 78 90 91 88 96 98 96 84 72 69 67 64 62 65 66 63 66 59 54 55 55 53 46 48 58 61 53
20 19 19 19 22 28 30 29 30 31 32 31 28 26 28 30 29 27 28 31 42 72 86 91 84 75 76 77 69 67 67 62 62 65 67 56 58 70 58 54 57 64 65 64 68 65 67 62 58
18 20 22 25 26 27 25 25 26 23 22 23 25 23 23 23 33 40 48 65 74 83 82 77 80 76 75 70 65 58 55 56 60 63 69 77 57 65 65 68 67 73 75 66 64 62 57 51 44
18 18 20 23 26 23 21 22 21 20 21 22 23 26 28 40 53 62 66 66 67 66 66 66 61 55 49 50 56 55 51 55 64 58 44 50 62 69 79 72 68 73 78 69 59 55 45 38 32
21 18 16 18 22 22 21 21 22 21 20 24 30 36 50 58 63 62 63 58 57 61 64 61 50 50 52 53 57 62 65 67 74 77 76 73 69 66 62 64 64 66 61 54 46 40 36 26 22
21 17 17 17 19 17 18 18 17 19 26 38 48 54 61 54 47 49 57 74 73 70 68 56 61 55 49 51 56 64 69 75 73 70 74 79 70 68 65 64 58 50 38 28 22 21 19 17 17
22 17 15 15 16 17 19 20 22 31 45 58 59 62 53 51 65 81 76 78 75 72 76 64 51 47 48 55 66 76 78 70 72 81 91 83 82 68 59 53 37 26 21 17 17 16 15 14 14
18 17 16 16 17 18 22 27 40 54 55 50 46 52 58 68 73 82 93 87 79 70 58 52 72 76 82 79 73 75 86 91 92 96 84 75 64 48 36 28 21 18 14 12 11 10 10 10 10
22 18 18 22 32 42 44 62 55 50 49 54 64 69 82 79 61 67 70 64 62 60 66 76 88 80 86 87 100 100 100 96 84 69 64 51 42 28 20 16 14 12 10 9 8 8 8 8 8

GFSSGP_250_rhum_024.txt.gz
RH
66 78 83 87 89 84 69 67 56 45 37 40 41 54 59 55 40 42 66 36 47 54 66 52 77 62 67 94 100 91 96 94 100 95 85 63 44 44 25 16 16 17 16 16 18 19 20 33 38
62 82 76 84 73 59 57 51 43 42 39 34 51 51 71 67 35 76 77 62 50 40 50 72 94 100 100 100 100 100 100 95 47 16 16 21 19 13 16 18 20 21 36 50 44 44 69 81 78
59 68 78 71 70 62 55 40 48 51 41 35 35 43 50 47 54 62 49 42 40 46 67 100 100 100 100 100 100 95 73 33 12 8 9 10 13 13 21 29 29 63 59 61 80 88 76 79 80
65 64 80 88 76 69 55 51 37 36 40 36 32 35 37 48 53 56 46 60 100 100 100 99 100 100 100 79 62 44 15 9 9 10 12 13 16 18 20 22 25 28 28 36 39 39 85 68 46
65 68 83 100 100 100 100 87 82 78 73 65 66 63 65 66 49 62 90 99 88 82 99 100 88 74 35 17 16 13 10 12 14 15 16 18 19 20 20 20 21 22 24 26 28 34 37 40 43
80 99 86 100 94 100 95 91 97 87 68 63 57 57 56 72 100 100 91 76 78 81 93 80 50 19 14 10 11 14 16 17 18 18 20 21 24 27 28 30 29 30 32 32 31 31 35 45 56
74 78 76 83 71 49 49 54 69 72 67 71 74 76 99 94 100 81 77 82 72 74 62 36 12 10 11 15 15 18 20 23 26 30 36 38 40 42 45 52 50 52 60 68 58 41 37 40 54
100 100 100 88 66 68 72 60 58 74 73 67 93 100 91 95 87 93 86 73 66 30 19 10 12 17 17 20 22 24 24 24 23 26 26 28 28 28 28 29 29 31 35 38 60 62 80 74 55
100 100 78 84 97 89 90 84 75 84 98 100 95 84 86 82 74 74 48 18 13 12 12 16 19 19 22 23 23 27 27 27 30 33 34 31 32 30 28 30 33 30 27 28 29 33 40 58 81
100 100 100 83 98 96 82 98 98 96 91 97 81 77 66 54 41 19 12 10 10 14 16 19 20 24 32 42 45 36 32 34 36 37 35 36 38 44 46 46 47 44 35 27 31 32 33 33 41
92 90 87 90 84 79 98 93 95 95 90 69 61 50 38 21 13 10 11 14 14 17 19 24 28 33 39 40 41 42 43 42 38 35 39 39 37 41 42 49 55 53 52 51 48 40 33 33 35
96 89 85 73 88 95 86 97 81 68 53 52 32 18 11 11 11 13 15 16 18 19 19 25 27 28 30 34 35 34 30 29 30 33 34 35 38 41 46 50 58 55 52 45 38 38 39 37 34
91 73 82 75 86 82 74 64 53 50 42 25 12 10 11 13 15 19 19 21 20 19 34 45 45 38 36 36 32 31 27 25 28 34 35 38 42 48 51 50 55 60 64 63 56 47 47 49 43
60 58 59 53 56 58 54 40 25 18 12 11 11 13 13 17 19 20 22 25 27 26 25 28 31 34 26 25 33 35 34 37 39 44 53 58 56 53 53 51 48 45 41 39 45 52 60 59 60
30 28 34 35 27 23 18 15 10 11 12 12 14 16 18 21 22 23 24 21 17 16 17 18 20 21 22 26 21 22 27 30 32 44 57 62 60 60 58 53 48 45 44 41 37 38 42 49 56
16 17 14 14 13 12 10 10 12 16 15 16 18 22 23 26 27 31 32 34 25 21 21 22 21 24 26 26 28 28 29 30 44 60 55 65 69 65 64 71 72 68 67 67 62 60 62 65 63
11 11 11 10 10 11 12 13 14 18 21 20 22 23 24 28 26 22 20 19 21 21 24 27 29 28 24 24 26 31 37 54 65 69 79 73 73 75 74 67 61 54 54 51 51 60 68 68 68
12 12 12 12 11 12 13 16 20 25 26 26 25 24 25 24 22 19 18 17 18 21 23 29 30 32 35 35 50 57 69 86 93 87 88 88 77 65 57 54 48 47 54 65 82 97 83 76 71
13 13 13 13 14 16 19 22 20 23 26 23 20 19 20 22 25 29 24 26 26 26 28 29 30 33 43 48 56 63 66 75 84 80 70 63 58 59 59 61 84 88 77 68 70 65 64 62 60
14 15 15 14 15 19 20 20 21 22 21 19 19 24 25 28 28 29 31 29 29 29 27 28 34 47 63 76 79 77 76 72 59 52 55 62 67 66 64 68 72 71 64 60 61 68 68 62 62
14 15 18 17 18 22 25 22 27 25 20 19 21 25 36 30 27 27 27 27 27 31 38 49 63 76 80 78 76 72 70 62 61 65 71 69 66 68 69 66 65 69 73 69 69 75 79 66 59
18 18 18 19 19 18 19 24 24 22 26 30 34 30 25 25 25 24 25 28 41 47 60 83 90 81 76 83 77 70 60 54 57 62 63 65 63 60 59 62 65 64 64 69 71 84 93 89 81
20 19 20 20 19 18 21 25 30 27 28 26 25 24 28 28 25 32 35 47 64 81 97 100 100 96 93 81 77 75 71 72 72 62 54 54 58 61 76 70 63 74 78 84 74 75 69 69 73
22 21 20 20 20 20 22 22 32 24 24 22 23 28 24 25 33 46 65 72 80 86 97 100 96 94 86 79 74 71 70 56 59 53 53 53 60 63 79 85 87 87 94 87 84 78 67 63 56
33 22 19 19 19 19 19 21 22 21 21 23 25 21 28 40 56 69 76 73 76 81 83 76 74 74 68 68 70 63 60 57 56 60 58 72 99 100 100 100 100 100 93 82 76 72 56 50 39
31 41 22 17 16 16 20 21 21 18 18 18 22 30 45 60 60 50 50 60 70 68 60 60 72 79 74 62 57 65 63 71 78 80 98 100 100 100 96 99 98 83 68 50 38 30 27 22 21
27 29 29 21 18 16 17 17 16 16 18 26 35 50 59 53 52 64 66 71 74 66 64 71 66 57 56 61 70 76 85 88 96 100 96 100 99 100 97 82 71 52 29 18 17 16 16 16 15
21 22 23 21 18 16 16 16 17 25 39 51 62 56 48 51 56 50 55 65 63 62 60 61 65 62 64 70 78 88 94 94 91 98 100 99 100 98 80 64 39 17 14 14 12 12 11 10 10
28 25 21 19 18 18 21 25 39 48 54 63 60 58 60 53 52 62 62 63 66 61 60 63 62 75 81 87 93 89 92 95 100 100 100 100 92 74 55 38 14 13 12 10 9 8 7 6 6
34 33 33 32 38 40 43 87 63 58 83 83 61 53 49 56 66 63 60 57 59 62 68 72 80 92 92 87 93 98 100 100 95 100 97 88 64 50 31 14 12 10 8 7 6 6 6 6 7

GFSSGP_250_rhum_027.txt.gz
RH
97 85 67 66 75 82 86 82 97 93 83 84 72 79 67 59 48 41 37 25 29 30 30 33 41 42 47 59 90 99 100 97 99 98 96 64 56 26 36 29 30 22 18 26 22 20 20 20 20
99 74 77 69 76 75 71 71 65 79 81 74 69 66 51 48 32 29 28 33 34 35 47 46 49 50 68 97 100 98 100 98 100 88 56 33 17 16 12 12 10 11 14 15 18 26 33 42 47
100 95 79 73 71 67 60 61 49 66 75 68 60 50 35 40 40 41 52 51 45 55 52 65 72 95 100 100 89 99 78 64 56 32 15 10 10 10 11 13 15 16 17 31 20 22 29 38 62
100 92 81 80 67 63 57 50 63 74 75 56 51 50 62 56 36 39 46 62 77 78 92 100 100 100 100 92 74 62 41 31 17 10 10 11 13 15 17 17 19 19 21 23 24 27 27 30 33
92 100 99 95 67 63 47 50 59 96 86 96 100 100 97 56 47 46 68 85 76 100 100 100 100 98 93 67 33 25 12 12 11 12 16 17 18 20 21 20 23 24 24 26 25 25 28 27 27
100 100 100 100 100 99 83 67 63 74 76 66 46 44 48 37 37 44 75 76 90 100 100 99 82 78 49 30 13 11 11 13 15 17 19 20 22 22 24 25 26 27 30 34 40 33 29 28 31
100 100 100 100 100 96 98 92 82 63 56 49 41 38 49 58 79 97 100 100 100 100 96 76 60 28 20 10 11 14 15 18 19 18 19 20 22 24 24 25 28 28 25 27 28 32 41 47 43
100 100 100 96 100 100 100 100 91 64 49 67 87 100 100 100 100 100 100 99 97 87 65 37 19 10 10 14 17 19 18 18 19 20 22 22 24 24 26 29 37 39 38 35 24 25 30 36 39
100 100 100 100 100 100 100 100 100 99 95 91 100 100 100 100 100 99 100 96 80 50 26 13 13 12 17 19 18 20 22 23 24 24 23 24 26 31 36 39 41 45 46 46 42 39 40 39 40
100 100 100 100 100 100 100 100 98 100 100 100 100 100 100 100 100 100 90 70 30 20 11 13 15 18 20 24 29 31 32 30 28 28 28 30 33 35 40 39 39 40 43 44 43 43 37 32 32
100 100 100 100 100 98 100 100 92 86 97 100 100 100 100 100 95 74 59 25 13 12 14 16 20 24 29 29 29 29 23 19 21 21 22 26 31 38 41 44 43 45 47 49 48 44 42 46 42
100 100 100 100 100 100 100 100 98 99 100 100 100 96 87 67 63 29 12 11 13 17 17 18 20 28 32 32 29 25 19 18 21 24 26 27 29 31 34 37 43 46 47 44 40 38 40 43 45
100 100 99 96 100 94 97 100 99 96 94 96 91 74 52 14 12 10 12 15 16 16 18 21 25 23 24 21 26 23 22 21 23 25 28 30 34 40 46 54 50 47 48 51 52 49 45 42 40
91 87 99 99 94 97 86 82 93 83 74 62 30 14 10 11 16 17 21 19 19 19 16 15 16 16 17 19 22 22 21 20 24 26 29 32 42 50 64 69 69 73 72 70 61 55 50 46 45
52 73 74 67 77 75 69 54 47 34 24 13 10 11 14 16 16 18 16 17 17 17 16 16 18 22 27 25 23 22 21 23 26 32 40 48 57 66 74 80 86 91 87 76 69 63 66 64 58
43 45 45 39 33 34 29 19 15 12 10 11 12 15 16 19 19 18 17 22 20 18 17 18 21 23 25 26 30 32 37 35 41 49 57 65 74 90 96 100 98 85 74 65 61 62 63 58 58
25 20 18 16 14 13 12 11 10 11 11 13 16 16 18 18 17 18 20 20 20 20 21 21 23 26 27 28 31 34 39 49 60 67 68 82 82 86 81 77 68 65 64 65 68 78 86 91 97
13 13 12 12 12 12 11 11 12 13 14 18 20 22 21 18 18 19 21 21 25 25 24 25 26 28 28 28 33 49 62 68 74 73 77 72 63 54 49 50 51 51 55 63 71 74 82 82 80
14 13 13 12 12 12 12 12 13 16 17 19 21 19 18 18 17 21 25 27 26 25 24 23 26 34 44 55 60 62 65 64 72 83 73 65 58 54 59 64 64 62 60 61 63 71 73 79 89
14 13 13 14 15 15 15 15 17 20 22 24 24 21 19 18 19 26 24 23 23 24 26 33 44 50 50 50 49 55 62 71 65 60 62 65 71 70 68 60 55 57 55 57 60 64 78 77 72
15 14 14 14 15 15 16 20 23 22 24 23 19 20 19 21 24 22 24 24 25 33 39 54 59 58 51 52 70 75 65 64 72 73 68 62 58 62 62 61 59 58 59 58 72 89 89 94 100
16 15 15 15 16 17 20 20 23 20 23 22 22 22 24 23 21 24 26 25 32 46 64 65 62 64 79 87 66 63 63 66 60 54 57 58 59 64 67 70 76 80 71 81 90 90 90 95 83
19 18 17 16 17 18 20 18 16 19 22 21 23 26 26 25 25 25 23 34 53 71 78 78 73 81 77 76 77 69 54 52 58 64 68 71 75 81 93 100 100 87 86 92 94 100 99 80 80
23 22 21 20 18 18 17 20 14 25 18 22 22 23 24 23 22 24 32 54 72 76 75 86 96 94 93 80 63 59 58 65 66 73 80 84 92 95 79 73 74 77 82 91 91 84 74 80 73
38 43 31 24 21 17 19 19 17 18 18 18 20 20 20 22 26 40 57 67 70 70 80 76 66 67 62 64 55 58 64 75 82 87 96 100 97 92 95 87 79 80 90 84 71 72 77 58 50
26 30 33 36 42 22 20 17 16 16 18 19 19 20 23 41 53 59 65 67 66 64 57 59 58 56 52 50 56 71 78 85 89 91 85 85 93 82 80 78 91 86 85 83 83 76 63 52 34
23 23 25 28 33 32 24 20 16 17 17 18 20 36 61 59 63 60 61 59 53 52 60 66 61 56 58 64 73 75 79 93 100 100 94 80 79 83 85 85 93 95 94 92 65 50 37 23 14
34 28 24 22 22 21 20 22 16 18 18 26 47 62 71 83 70 58 49 47 56 60 57 46 50 62 78 81 78 83 87 87 93 90 83 81 84 95 100 97 89 83 63 52 36 28 15 11 9
37 35 36 36 37 35 37 43 39 39 45 54 72 76 67 48 40 42 48 48 46 47 49 56 72 75 68 72 82 89 93 95 85 83 90 100 100 92 89 69 54 43 37 28 17 11 9 7 6
38 38 43 43 49 45 39 95 53 48 48 66 54 42 42 38 43 48 50 49 47 47 54 69 73 80 91 92 94 98 98 94 92 90 91 92 81 72 57 33 29 24 18 13 9 7 6 6 6

GFSSGP_250_rhum_030.txt.gz
RH
100 100 100 100 100 96 84 66 49 47 59 71 71 75 71 83 76 72 69 59 61 45 40 45 43 30 27 33 40 59 62 85 100 100 91 82 62 33 15 11 11 10 10 9 11 13 15 17 30
100 100 100 100 100 100 100 96 72 68 71 65 65 64 76 73 60 57 55 65 61 46 34 44 34 31 39 56 76 91 78 100 100 88 68 34 26 13 9 8 9 10 12 14 15 16 16 20 19
100 100 100 100 100 100 91 72 96 100 87 76 80 76 72 63 52 55 60 64 62 53 43 49 45 41 50 81 94 100 100 100 70 58 29 18 9 9 10 12 13 15 24 21 30 28 22 20 20
100 100 100 100 100 90 96 88 97 82 77 81 80 78 64 56 58 58 62 72 62 57 40 33 44 59 98 100 100 100 96 77 46 32 12 10 13 15 15 18 19 20 19 21 20 20 22 22 22
100 100 100 97 98 100 93 89 90 88 77 89 63 66 58 51 83 60 62 65 58 51 48 61 97 100 100 100 100 93 59 39 19 10 10 12 14 15 16 17 18 20 20 20 20 20 18 20 22
100 100 100 100 100 100 100 100 99 85 72 74 90 87 66 72 71 64 45 53 54 75 100 100 100 100 100 97 81 58 36 13 10 12 14 16 17 19 19 21 24 25 26 26 25 22 22 24 22
100 100 100 99 100 100 100 100 74 96 100 100 94 98 86 72 79 78 69 63 99 100 100 100 100 100 90 70 48 18 11 11 14 15 15 15 17 20 23 29 30 33 36 36 35 33 33 33 30
100 100 100 99 100 89 100 88 98 100 99 100 100 100 100 100 100 100 100 100 100 100 100 100 100 84 58 24 12 12 16 17 18 19 20 22 23 26 28 31 34 33 32 36 42 45 47 47 42
100 91 99 91 99 100 100 100 94 99 100 94 95 96 100 100 100 100 100 100 100 100 100 97 79 51 17 12 16 17 18 18 19 20 22 23 24 23 23 27 30 32 35 38 37 41 45 50 52
100 99 82 91 78 88 92 95 88 100 98 98 100 100 100 100 99 100 100 100 100 99 82 66 33 12 13 17 24 22 19 17 17 17 17 18 19 20 26 25 29 31 31 36 33 34 36 36 36
100 100 100 95 93 98 99 100 100 100 100 100 100 100 100 100 100 100 100 100 92 75 34 12 12 14 19 25 24 24 23 24 22 20 17 17 20 22 21 24 25 32 37 42 47 49 48 49 49
100 100 100 100 100 100 100 100 100 100 100 100 100 100 100 100 100 100 97 74 36 16 12 15 17 22 26 24 21 20 20 19 20 21 20 19 23 23 24 25 35 47 58 64 69 70 73 73 66
100 100 100 100 100 100 100 100 100 100 100 100 100 100 100 100 100 87 50 18 13 11 13 18 19 19 16 16 16 16 16 16 20 18 18 18 21 25 31 38 42 46 55 57 58 58 54 52 52
100 100 100 100 100 100 100 100 100 100 100 100 100 100 98 87 56 27 12 12 12 13 15 16 17 16 15 16 16 20 21 25 28 28 26 26 30 35 42 48 54 57 60 59 56 54 57 63 60
89 91 98 100 100 100 99 98 87 98 98 96 100 79 65 24 17 10 12 13 13 16 16 15 16 16 15 16 19 23 24 26 27 28 33 39 45 41 45 48 54 56 56 52 49 47 49 51 52
32 35 28 36 48 55 54 68 79 67 54 43 33 19 11 12 11 14 15 15 15 14 14 20 22 21 23 23 25 26 25 23 25 31 34 43 42 39 49 47 56 62 61 58 61 63 61 60 61
36 36 40 47 49 52 51 52 43 32 18 14 15 12 12 13 18 15 16 14 14 19 20 25 24 24 23 23 26 28 34 35 38 41 41 48 45 52 59 67 68 67 65 67 71 68 63 60 60
48 39 44 42 35 32 29 18 14 12 12 12 13 12 15 17 15 15 16 15 16 20 25 22 21 22 28 48 45 45 46 48 50 49 43 55 46 48 52 52 55 56 58 58 58 62 62 67 71
20 22 19 16 18 14 12 12 13 13 13 14 15 16 17 15 16 15 15 16 20 23 22 23 24 29 35 44 42 44 40 36 40 42 45 42 41 45 44 47 49 55 55 53 61 66 69 74 82
14 14 14 13 13 13 13 13 14 14 15 17 18 22 21 17 15 15 17 20 22 22 24 24 28 36 45 46 41 42 39 36 43 52 50 48 48 52 54 52 49 54 65 71 69 64 65 67 65
16 15 15 14 14 14 14 13 14 16 17 19 21 22 20 16 18 19 21 22 21 22 22 27 40 52 52 42 40 42 47 63 68 56 46 48 54 56 56 64 74 79 82 92 92 75 67 67 76
18 17 16 15 14 14 17 14 16 19 17 19 20 19 19 20 21 24 25 24 23 21 24 36 55 52 52 52 50 56 64 61 54 52 58 60 61 67 74 79 78 79 80 75 74 77 74 71 62
21 21 19 17 16 16 16 17 13 18 21 21 15 19 21 22 23 24 23 20 20 26 40 58 53 52 57 65 63 63 69 67 65 65 70 73 76 74 78 87 93 91 71 65 65 64 67 64 67
32 29 24 21 20 19 18 18 16 14 17 19 21 21 21 21 21 19 18 21 32 53 61 65 64 60 57 65 70 71 67 63 66 72 71 70 78 79 78 76 78 77 94 89 79 63 74 83 80
27 27 28 37 44 32 26 29 21 19 16 15 18 19 19 20 18 17 24 54 60 58 59 68 63 62 69 67 59 62 60 58 60 64 69 75 80 86 92 98 94 87 76 77 75 83 94 85 68
21 22 23 26 29 31 41 33 28 29 20 15 15 16 17 17 18 24 55 61 73 63 60 62 63 61 55 54 60 69 64 66 71 70 82 92 91 74 65 65 69 74 77 76 76 73 62 49 38
39 41 37 37 30 28 23 24 26 26 27 21 17 17 18 19 33 52 58 64 60 45 41 42 47 52 61 63 55 60 76 93 100 100 100 97 74 65 68 73 69 70 67 70 71 60 41 21 19
53 48 50 52 55 58 40 32 31 32 34 34 32 40 52 51 63 62 66 49 38 40 45 55 58 46 56 78 90 97 100 98 79 65 59 52 54 59 68 75 67 54 50 45 37 26 19 15 13
56 55 52 50 53 58 62 75 37 41 35 41 46 60 81 81 61 59 48 41 45 49 51 58 70 84 91 95 93 80 72 67 66 57 54 56 55 60 57 37 33 26 18 17 17 16 13 11 9
47 54 58 61 63 52 67 100 59 45 41 45 43 29 33 40 35 41 44 45 48 55 70 77 73 72 80 85 73 69 63 69 62 61 59 59 58 45 27 22 20 17 15 14 14 13 11 9 7

GFSSGP_250_rhum_033.txt.gz
RH
100 100 100 100 100 100 100 100 100 100 94 89 85 73 65 55 57 71 69 67 62 55 64 59 52 47 36 33 40 36 39 43 55 72 92 92 90 92 57 19 12 10 8 8 9 11 18 25 20
100 100 100 100 100 100 93 100 100 100 100 100 99 97 100 94 88 70 69 80 67 72 67 67 54 58 37 43 45 40 48 66 96 97 98 89 76 53 17 10 8 10 11 13 15 18 21 23 25
100 95 100 100 100 100 100 100 100 100 100 100 89 87 100 100 91 83 74 78 72 70 60 65 55 60 49 50 54 80 90 97 95 96 90 71 39 13 10 11 14 16 17 19 20 20 20 22 23
100 100 100 100 100 99 100 100 100 100 100 99 100 96 92 90 81 90 79 64 54 52 57 63 70 50 51 79 92 100 100 90 89 89 66 28 11 10 12 14 15 15 15 15 15 16 17 18 19
100 100 100 92 100 100 100 100 98 95 89 100 100 100 100 100 90 77 82 69 74 72 72 75 67 83 100 100 100 100 97 99 80 54 19 10 12 13 14 15 15 16 17 16 17 19 19 19 18
100 100 100 100 100 100 100 89 100 99 88 80 95 100 100 90 78 77 87 98 99 100 100 96 99 100 100 100 100 99 85 70 40 12 12 12 14 14 17 18 18 18 19 22 23 24 26 26 25
100 100 100 100 100 100 100 99 100 100 100 100 100 98 100 91 85 71 75 90 98 97 97 100 100 100 100 100 100 89 64 27 12 13 14 15 17 18 18 19 20 19 21 26 28 30 29 27 30
100 100 100 100 100 100 100 100 100 98 90 95 100 96 85 69 65 74 82 84 100 100 100 100 100 100 100 97 83 54 25 14 15 16 17 17 18 19 18 20 22 22 27 28 30 36 36 33 33
100 100 100 98 100 100 96 100 100 93 100 88 71 83 100 94 93 96 96 100 100 100 100 99 100 100 97 80 49 23 16 18 16 17 17 17 16 16 16 20 21 20 24 25 26 31 37 38 41
100 100 100 100 100 100 93 99 100 100 100 100 100 100 99 99 100 100 100 100 100 100 100 100 100 96 71 44 18 16 19 20 20 20 20 19 18 17 17 16 17 18 19 22 24 30 40 45 46
100 100 100 100 100 100 100 99 100 100 100 91 95 90 96 100 100 100 100 100 100 100 100 100 95 60 35 18 20 24 22 21 17 16 15 15 15 15 16 17 18 21 23 29 35 38 42 46 49
100 100 100 100 100 100 100 94 100 72 61 71 88 88 100 100 100 100 100 100 100 100 100 89 64 32 16 18 23 22 18 16 16 18 19 19 19 20 19 19 22 28 37 39 41 41 44 43 45
100 100 100 100 100 100 100 100 100 100 96 97 100 100 100 100 100 100 100 100 100 96 80 53 18 16 16 18 16 15 15 14 16 20 21 21 22 21 22 26 26 32 36 38 41 46 56 58 54
100 100 100 97 100 100 100 98 100 100 100 100 100 100 100 100 100 100 100 94 81 52 21 14 14 14 14 16 14 14 15 15 18 21 24 22 22 25 32 40 44 47 45 47 52 57 58 57 53
100 88 93 100 100 100 100 100 100 100 100 100 100 100 90 96 88 73 53 28 19 15 14 14 16 14 20 20 19 21 21 20 20 22 23 31 37 44 46 42 40 41 40 37 39 46 43 43 49
100 100 98 94 100 100 100 100 100 96 88 79 64 68 83 62 33 21 21 15 15 14 14 14 15 26 89 100 81 73 61 38 30 29 38 42 43 36 36 39 41 40 38 38 38 39 37 39 46
100 100 100 100 100 100 90 60 50 51 51 49 46 39 31 13 16 14 16 16 16 14 13 16 42 32 50 100 90 62 49 36 37 35 32 32 34 43 47 50 47 46 41 43 50 52 48 47 51
33 31 31 35 40 42 47 48 42 38 30 26 19 19 16 15 12 14 15 15 14 14 15 31 26 27 57 56 42 29 36 43 35 31 34 33 38 44 46 46 47 46 47 55 56 61 64 68 69
48 52 56 55 44 40 25 18 17 15 15 13 12 13 13 14 15 16 16 16 14 16 17 19 20 21 23 23 26 36 41 35 32 34 39 44 46 51 55 53 52 57 62 63 56 47 41 45 52
40 35 23 20 17 16 16 14 14 13 13 14 14 13 13 15 16 17 16 16 18 23 24 27 27 25 23 21 30 38 38 36 43 44 40 42 44 48 48 49 49 48 47 42 42 44 50 58 58
16 16 15 15 15 14 14 13 14 15 13 15 16 19 15 17 17 15 16 18 19 21 24 26 26 21 20 27 40 45 46 49 49 46 46 51 53 54 52 47 44 43 41 43 48 54 57 67 82
19 17 17 17 16 16 16 15 15 16 15 14 16 18 19 20 19 19 21 19 20 21 22 20 19 21 37 52 53 48 47 45 43 44 49 51 58 52 46 42 43 47 50 56 62 71 74 85 92
25 20 22 21 21 19 18 18 19 17 19 20 22 14 14 17 19 21 21 21 23 23 20 19 21 44 64 58 45 43 43 46 48 52 61 64 63 64 59 60 64 68 62 61 66 68 58 65 72
26 27 28 30 32 29 28 25 24 20 19 20 22 21 17 16 16 17 18 19 20 20 19 19 43 49 49 39 39 44 51 55 62 71 74 86 90 74 67 68 68 69 64 70 74 71 60 58 56
23 24 25 26 27 30 30 27 19 20 18 20 24 22 19 19 18 16 16 16 17 19 28 59 66 62 44 45 44 49 54 56 61 70 68 55 50 62 85 84 71 61 67 69 67 65 61 57 53
34 36 39 39 40 42 29 32 39 37 20 16 16 15 15 17 16 16 19 27 35 45 46 53 52 46 44 39 47 60 65 61 60 69 89 95 88 84 86 62 64 62 66 65 67 62 50 35 21
46 46 44 44 47 41 27 45 52 52 45 33 26 23 27 33 33 28 35 42 50 44 43 43 46 43 41 51 61 64 71 87 97 100 97 89 84 70 61 62 62 63 59 47 29 24 18 16 13
42 51 58 64 72 73 60 48 52 59 57 59 52 50 46 49 51 57 44 44 41 48 49 52 53 56 57 61 72 87 95 100 100 99 83 70 68 67 60 61 60 45 25 19 14 12 12 11 11
50 50 49 51 52 49 51 52 44 41 42 43 50 49 59 61 60 58 65 60 58 56 50 45 52 66 78 75 74 78 90 94 86 86 82 72 65 59 54 48 24 16 12 11 11 10 10 9 8
42 40 38 35 34 31 35 44 39 36 38 31 27 31 29 33 39 40 38 37 53 74 90 90 77 56 59 64 71 83 89 89 93 70 55 56 59 54 26 17 12 11 10 9 9 8 7 6 5

GFSSGP_250_rhum_036.txt.gz
RH
100 100 100 100 100 96 100 90 82 80 78 93 100 97 100 90 95 98 94 97 98 80 82 85 71 72 68 52 47 37 32 39 46 54 60 57 93 100 78 70 45 20 8 8 9 10 12 13 14
100 100 100 100 100 99 100 87 97 100 100 100 100 100 100 100 100 91 96 98 90 77 66 65 50 43 46 43 42 48 71 84 76 80 72 90 100 83 73 46 17 10 10 13 13 15 16 18 19
100 100 100 100 93 100 96 100 100 100 100 100 100 100 97 95 99 91 96 89 81 72 67 50 47 46 50 68 80 94 94 79 72 88 100 100 86 68 36 19 10 12 12 14 14 16 17 19 20
100 100 100 100 85 100 100 100 100 100 100 100 100 100 100 100 100 100 100 94 90 82 78 75 79 78 73 88 99 97 88 100 100 100 100 96 77 46 18 11 12 14 13 14 14 15 15 16 16
100 100 100 100 100 100 100 88 98 100 100 100 100 100 98 100 100 92 82 98 100 92 93 73 84 88 97 95 83 98 89 100 100 100 96 74 52 17 11 13 13 12 13 13 15 16 18 20 18
100 100 100 100 100 100 100 92 91 88 92 100 100 93 95 100 99 100 91 100 93 75 70 76 85 85 93 90 100 100 100 100 96 94 77 59 24 14 15 16 16 15 14 15 15 18 17 19 20
100 100 100 100 100 100 99 94 100 100 100 100 100 100 100 100 98 84 95 100 92 95 90 98 98 100 91 99 100 100 100 100 95 79 62 30 17 18 18 16 16 17 16 14 16 18 17 19 22
100 100 100 100 100 100 100 100 100 100 100 100 100 100 99 90 85 72 80 94 100 100 100 100 100 100 100 100 100 100 100 91 84 68 40 19 18 17 17 16 16 15 16 18 19 20 21 22 26
96 100 100 100 100 100 100 100 100 100 97 86 94 96 84 81 90 94 94 98 100 100 100 100 100 100 100 100 100 100 96 88 72 38 22 22 18 17 16 14 14 16 17 17 17 21 23 28 32
100 100 100 100 100 100 100 100 100 100 98 100 100 98 100 100 100 100 100 100 94 100 100 100 100 100 100 100 99 95 85 64 34 25 25 19 16 15 15 14 15 15 16 17 18 19 25 29 34
100 100 100 100 100 100 100 100 100 100 100 91 100 92 100 100 100 100 100 100 100 100 100 100 100 100 100 100 95 85 55 31 24 20 19 16 16 17 19 18 20 22 24 26 25 27 33 38 42
100 100 100 100 100 100 100 100 100 100 93 100 94 100 100 98 96 99 100 100 100 100 100 100 100 100 100 94 71 32 18 16 16 16 16 15 15 17 21 24 24 24 27 32 34 35 35 38 41
100 100 92 100 99 100 100 100 100 100 100 100 100 100 100 100 100 100 100 100 100 100 100 100 100 99 83 48 18 16 16 17 22 24 21 20 20 20 22 24 29 36 40 40 41 42 41 39 38
100 100 98 100 100 100 100 100 100 100 100 100 100 100 100 100 100 100 100 100 99 100 96 94 83 44 19 15 17 90 100 100 100 90 64 40 33 36 37 37 36 36 36 36 38 42 42 40 39
100 100 100 100 100 100 100 100 100 100 100 100 100 100 100 100 100 100 98 88 94 89 56 38 23 15 22 48 100 89 93 83 62 77 58 39 29 33 35 31 30 30 33 35 39 44 45 44 43
100 100 100 100 100 100 100 100 100 100 100 100 100 100 100 100 89 63 49 50 46 31 20 19 16 32 68 100 94 93 96 98 89 67 34 31 37 40 36 34 38 40 41 42 46 44 42 41 43
100 100 100 100 100 99 97 100 100 94 76 95 98 100 100 89 49 46 38 31 23 17 16 16 20 61 82 100 100 84 50 39 26 23 26 34 41 43 46 48 48 48 48 49 52 52 45 45 47
100 100 100 100 100 100 100 93 95 98 93 86 82 66 50 40 31 23 19 17 17 18 18 29 74 92 100 100 82 45 28 23 22 20 28 42 49 49 51 52 51 51 56 62 68 70 63 60 57
54 48 44 43 47 41 38 42 51 40 40 38 29 21 18 16 16 13 13 16 18 28 42 27 37 66 75 41 27 26 24 22 19 28 42 44 41 38 37 37 41 48 50 44 40 39 39 38 34
46 52 49 52 51 46 46 38 30 28 21 16 14 15 14 13 13 14 15 19 18 19 22 17 16 17 18 21 22 23 22 18 28 41 44 35 32 32 31 28 27 30 33 36 40 41 40 36 37
47 47 42 33 25 20 17 15 14 15 14 17 19 17 15 13 14 15 16 17 17 18 20 20 19 19 20 21 22 19 17 27 43 45 37 34 33 33 35 39 39 36 38 40 37 39 37 42 49
18 18 17 17 16 16 17 16 16 16 16 18 18 17 17 16 17 16 15 15 16 17 17 17 17 19 20 20 18 17 32 53 62 47 41 38 36 39 43 42 45 54 57 48 43 46 54 68 73
19 20 20 20 19 20 19 19 19 19 18 20 18 18 19 19 19 18 17 16 15 15 14 15 16 17 17 17 21 47 70 66 55 48 46 44 44 53 67 76 73 66 54 55 66 80 85 80 78
28 26 26 26 27 25 20 21 25 24 28 31 37 34 28 27 33 28 26 23 18 17 17 16 17 22 33 49 63 68 58 58 57 57 55 58 73 72 61 50 49 60 79 83 80 69 66 70 68
23 22 21 19 19 19 27 27 28 22 21 27 31 31 34 33 36 34 29 21 20 24 32 36 46 55 54 55 53 54 57 57 51 47 51 55 49 49 64 90 100 94 86 77 60 64 59 56 46
47 44 49 46 38 34 35 42 34 26 25 27 32 47 48 47 50 53 44 41 52 52 53 58 55 58 62 63 64 54 43 42 62 61 55 70 90 99 100 95 91 70 55 58 57 53 47 35 23
49 46 48 51 44 51 52 57 60 57 56 51 43 40 40 37 39 35 32 28 32 40 42 47 47 45 47 53 58 79 78 60 62 91 95 95 91 74 56 55 49 52 53 47 37 27 19 13 11
58 56 56 55 51 42 39 41 39 37 34 31 33 33 31 29 27 28 29 34 35 37 37 38 43 60 73 69 60 64 75 78 74 82 89 74 58 52 44 49 48 44 33 22 15 12 9 8 8
51 48 44 43 49 43 37 34 32 38 36 34 34 37 40 35 32 32 36 36 38 40 40 39 39 46 53 72 80 74 72 78 69 56 56 50 44 45 40 43 32 23 13 10 8 7 7 6 5
44 51 55 47 36 35 38 41 44 40 40 37 37 34 34 35 36 37 37 36 37 42 44 43 49 66 71 69 74 73 62 52 51 51 50 49 43 40 36 30 24 16 9 9 8 6 5 4 4

GFSSGP_250_rhum_042.txt.gz
RH
28 40 60 65 71 74 86 90 72 76 85 75 78 77 77 76 78 99 100 100 100 99 87 85 92 82 72 77 79 42 53 64 64 64 66 43 63 51 46 80 75 72 58 60 49 54 39 16 10
24 28 45 95 99 80 100 100 100 81 80 85 80 76 92 88 81 95 100 100 97 89 90 97 85 85 72 68 76 52 68 73 59 50 72 64 58 50 75 83 57 82 58 56 56 41 18 10 11
28 23 29 45 90 100 100 100 100 100 100 100 100 100 100 100 100 100 100 93 93 100 100 96 90 80 60 67 68 63 87 59 62 65 71 59 60 80 88 80 74 52 54 59 49 20 12 11 12
28 29 25 23 32 85 100 100 100 100 100 100 100 100 100 100 100 100 100 100 100 100 100 94 81 46 53 79 89 96 71 66 60 66 75 80 89 91 87 90 56 58 66 58 26 13 12 12 13
29 30 29 25 23 80 100 100 100 100 100 100 100 100 100 100 100 100 100 100 100 94 82 85 72 86 100 100 83 80 75 76 79 100 94 100 98 72 80 68 66 73 63 37 15 15 15 16 16
26 29 31 28 26 31 100 100 100 100 100 100 100 100 100 100 100 100 100 79 71 77 82 89 89 99 99 95 89 90 89 84 89 99 100 91 68 87 80 84 82 70 42 16 14 16 13 13 13
26 28 32 28 28 27 33 97 100 100 100 100 100 100 100 100 100 100 100 95 84 86 98 94 100 89 96 99 92 97 81 100 100 100 92 88 82 86 87 83 76 48 18 14 13 13 14 15 16
33 37 35 34 32 29 31 49 100 100 100 100 100 100 100 92 100 96 94 85 78 100 100 95 88 100 84 96 100 100 100 100 99 99 97 86 84 87 90 86 53 20 15 14 14 15 17 18 19
37 46 42 42 42 38 34 46 51 100 100 100 100 100 100 100 100 100 98 100 87 100 98 100 100 100 100 100 100 100 100 97 100 89 86 83 94 94 87 69 22 18 36 30 20 19 20 22 21
48 53 57 63 45 45 41 40 51 62 100 100 100 100 100 100 100 98 94 100 97 84 99 100 99 100 100 100 99 100 100 97 94 93 98 82 100 87 61 40 18 42 57 35 29 34 34 36 34
52 70 98 100 97 54 54 39 39 52 99 100 100 100 100 100 99 97 98 98 100 100 91 93 100 100 100 100 96 100 99 97 96 99 100 84 70 56 26 18 26 64 56 54 50 37 36 38 36
89 92 100 100 100 100 95 72 61 65 92 99 100 100 100 100 100 100 100 88 94 100 100 100 100 100 100 100 100 98 100 98 100 91 74 58 38 18 20 50 62 57 52 53 43 31 34 42 40
100 100 100 100 99 100 94 89 100 100 100 100 100 100 100 100 100 100 100 100 100 100 100 100 100 100 100 99 99 99 100 96 79 46 30 22 18 23 57 60 53 47 44 31 24 22 42 49 48
100 100 100 100 100 100 100 100 100 100 100 100 100 100 100 100 100 100 100 97 93 100 100 100 100 100 100 94 76 77 70 49 36 28 31 36 44 42 63 70 64 58 43 31 25 24 58 54 48
100 100 100 100 100 100 100 100 100 100 100 100 100 100 100 100 100 100 100 100 100 92 96 88 85 87 83 72 68 77 84 71 53 36 30 36 63 74 73 76 77 67 37 25 21 20 50 54 43
100 100 100 100 100 100 100 100 100 100 100 100 100 88 96 98 100 100 100 99 91 88 83 70 70 66 66 70 81 92 100 100 90 55 38 42 50 54 63 67 65 48 26 21 18 20 32 63 56
100 100 100 100 100 100 100 100 98 100 98 84 97 96 97 97 91 98 96 85 86 81 70 62 52 94 81 94 96 100 100 100 89 78 93 79 84 95 92 82 38 22 21 19 19 23 42 70 72
100 100 100 100 100 100 100 99 96 94 100 100 100 99 100 94 91 86 86 78 62 40 27 23 58 100 99 98 100 99 100 78 97 100 87 69 70 62 29 21 20 20 21 21 25 45 65 64 60
91 98 100 100 100 100 100 100 100 99 94 88 97 97 92 76 70 60 42 29 21 20 18 38 90 100 84 88 73 81 85 79 28 26 20 22 22 21 18 18 18 20 25 42 66 71 61 59 58
85 84 94 97 95 89 86 93 86 83 85 79 79 69 63 47 27 18 17 16 16 45 72 63 58 60 46 38 30 52 21 21 19 18 18 18 19 19 19 22 32 39 40 39 40 40 42 49 53
75 69 65 60 59 60 52 52 49 46 41 34 25 21 17 16 16 18 19 20 19 18 19 19 18 17 17 17 18 21 22 20 18 18 21 23 27 35 44 45 44 44 43 39 37 34 32 31 32
38 39 40 39 40 44 46 42 36 30 23 19 17 16 16 18 20 22 22 21 21 23 25 27 27 26 25 26 29 29 21 22 32 46 53 53 47 40 36 35 33 31 31 30 30 35 39 38 37
50 48 51 49 41 24 19 19 19 18 18 18 19 21 21 19 22 26 32 37 37 42 45 44 43 46 48 46 39 42 40 40 37 34 32 32 33 33 34 35 35 35 39 40 39 43 49 53 58
43 30 21 19 19 20 21 23 24 25 26 26 24 28 40 46 46 48 43 43 40 35 33 32 32 31 29 30 30 29 30 30 31 32 32 33 36 37 37 37 38 38 44 55 62 64 63 72 79
24 24 25 23 22 21 20 21 23 25 32 41 43 46 46 38 34 33 33 36 36 33 35 37 37 38 37 33 32 36 41 43 40 38 38 38 37 37 41 48 57 66 72 73 73 68 62 53 50
20 18 18 23 26 30 32 34 35 40 41 43 40 39 44 46 48 48 47 47 51 52 48 46 43 41 41 43 46 45 41 40 40 36 35 41 50 61 65 72 78 74 55 49 44 42 40 38 34
22 29 41 43 40 37 34 35 36 38 40 45 51 53 49 45 51 54 51 47 47 47 45 44 42 38 36 38 41 46 53 53 54 58 66 68 67 72 70 57 48 44 36 36 37 32 30 28 23
48 45 43 39 37 40 43 46 44 45 45 43 40 37 39 42 43 46 51 56 52 46 44 42 41 40 43 52 58 55 52 57 64 67 65 61 57 53 50 47 46 42 34 30 26 23 18 13 11
48 46 44 41 44 49 51 49 46 45 42 38 39 43 48 50 49 50 48 47 47 45 42 42 47 54 58 57 55 59 64 62 58 56 53 53 52 51 50 48 37 30 24 20 16 12 10 7 6
51 49 49 48 47 47 51 48 46 41 39 40 44 44 40 38 47 49 49 48 47 46 44 42 47 50 49 52 55 55 58 54 52 51 53 52 52 53 51 42 29 20 17 12 9 7 6 5 5

GFSSGP_250_rhum_045.txt.gz
RH
16 17 21 22 24 44 72 82 90 88 94 91 84 80 83 77 82 89 99 98 95 97 100 100 100 100 94 99 81 73 72 66 61 50 53 55 81 68 57 56 39 47 81 66 63 60 51 60 51
13 17 22 24 25 26 59 74 100 100 100 93 86 80 81 93 95 86 99 100 100 100 94 100 98 100 87 83 81 91 78 84 68 48 46 62 83 74 63 53 59 66 74 61 56 54 66 57 29
12 16 22 24 28 26 32 75 100 100 100 100 95 90 99 100 100 100 100 100 100 100 94 89 82 78 62 74 77 87 78 65 60 58 76 78 77 68 54 78 99 65 70 63 61 61 72 39 15
11 15 16 25 29 31 28 28 94 100 100 100 100 100 100 100 100 100 100 88 80 71 66 76 84 93 86 79 78 76 72 57 62 100 73 81 68 66 77 97 50 68 65 62 52 61 54 20 14
10 11 14 23 27 30 30 28 40 100 100 100 100 100 100 100 100 100 100 100 100 89 89 95 100 97 83 76 56 67 67 53 100 85 100 68 80 90 99 95 92 81 70 55 52 57 27 16 13
10 11 14 20 29 28 32 33 30 37 100 100 100 100 100 100 100 100 100 100 100 100 100 100 90 75 73 67 64 63 66 82 81 89 68 98 100 100 95 92 76 72 57 49 53 36 18 17 14
12 11 15 21 26 24 32 35 34 29 56 100 100 100 100 100 100 100 100 99 96 88 88 96 100 81 80 81 58 69 87 100 73 75 98 100 97 100 96 76 67 64 56 54 41 20 30 26 18
14 14 16 21 26 34 34 38 38 36 38 46 67 100 100 100 100 99 100 100 100 100 100 100 98 96 95 80 87 99 92 70 79 100 94 100 99 92 77 78 71 68 48 31 17 21 47 22 23
25 20 23 30 36 37 41 40 43 46 41 38 36 50 98 100 100 100 100 100 100 100 100 100 98 85 100 95 87 92 100 94 100 98 100 95 94 79 82 75 70 68 33 16 20 45 57 52 43
41 40 41 47 56 59 51 53 58 50 49 46 41 35 77 100 100 100 100 100 100 100 100 97 100 97 100 100 100 100 98 100 100 100 100 99 88 85 75 63 59 39 18 18 43 53 52 51 43
56 52 50 62 61 85 96 58 70 60 48 48 44 52 95 100 100 100 100 100 100 100 100 84 98 100 100 100 92 100 100 100 100 100 100 100 90 82 66 37 28 24 22 31 58 45 44 28 22
71 72 83 72 96 100 100 95 65 64 58 62 70 63 96 100 100 100 100 100 100 100 100 100 100 95 95 100 100 100 100 100 92 100 100 86 75 60 41 31 31 34 38 38 50 58 53 37 25
96 98 100 100 100 100 100 96 86 88 81 77 80 92 98 97 100 100 100 100 100 93 100 100 100 100 100 99 100 99 98 95 96 92 81 70 56 42 39 38 31 46 43 50 53 52 48 53 65
100 100 100 100 100 100 100 100 100 100 99 97 100 98 97 98 88 95 100 93 89 89 100 100 100 99 90 90 98 91 84 78 87 92 86 63 55 46 28 28 36 38 45 52 50 56 74 76 47
100 100 99 100 100 100 100 90 100 100 100 100 100 100 100 100 100 100 100 100 100 100 92 86 99 99 100 96 79 78 81 100 98 75 54 44 49 44 41 36 37 69 53 33 49 56 50 48 25
100 100 100 100 100 100 100 94 94 100 100 100 100 100 100 100 100 100 100 100 77 64 60 72 82 73 75 69 69 77 93 68 78 69 100 100 100 100 100 95 92 74 46 22 24 33 22 20 20
99 100 100 100 100 100 100 100 100 100 100 100 100 100 100 100 100 88 72 63 88 89 100 100 88 80 55 67 86 92 100 100 100 100 100 100 100 100 100 93 48 23 20 20 20 21 21 20 21
100 100 100 100 100 100 100 100 100 100 100 100 100 100 100 100 97 87 100 90 92 86 76 52 34 29 57 88 100 100 100 100 100 100 100 100 100 99 92 70 21 21 21 22 23 24 31 41 48
100 100 100 100 100 100 100 100 100 100 100 81 94 92 68 87 93 97 88 76 64 40 30 23 25 100 89 100 87 83 58 76 100 93 96 49 30 40 29 21 22 24 30 44 59 64 61 57 55
91 100 100 100 100 100 100 99 95 93 94 98 95 99 99 82 67 69 47 31 21 18 17 18 18 28 52 63 69 38 25 36 71 52 62 25 23 29 34 40 45 52 56 56 54 50 50 54 49
88 90 90 90 88 94 99 96 84 83 78 76 71 65 59 54 38 21 17 17 19 22 27 28 30 31 31 36 41 46 54 58 50 43 40 46 48 51 48 48 44 40 39 38 37 37 38 39 40
93 78 83 81 80 76 69 60 61 64 58 52 45 37 24 18 18 21 27 37 36 43 44 47 49 49 49 47 41 41 41 41 39 36 35 35 38 40 42 42 41 40 42 44 45 45 47 45 42
37 52 57 53 48 45 43 40 42 43 36 23 18 19 20 22 24 32 48 53 48 41 38 36 37 41 42 39 38 36 36 37 38 42 43 43 42 40 42 45 45 47 54 53 48 46 47 48 48
46 51 52 48 43 39 37 24 20 19 22 24 24 24 32 44 51 46 39 38 41 42 44 45 45 44 43 41 42 42 40 37 35 35 35 36 41 44 45 51 54 52 52 52 52 54 58 64 68
58 47 34 25 21 21 23 24 25 24 24 35 46 49 45 39 38 38 39 43 45 46 46 44 45 44 44 42 40 37 36 35 32 33 40 44 47 52 55 58 57 53 54 63 65 64 53 47 42
22 21 21 21 21 21 24 36 53 55 53 46 44 42 41 44 47 44 41 41 42 43 44 45 44 42 39 36 35 33 33 34 40 45 53 60 65 65 56 53 57 65 72 58 52 41 36 30 24
26 25 22 23 36 50 54 46 44 42 41 42 44 45 45 45 42 40 41 43 44 46 48 48 48 49 49 42 37 38 43 53 62 65 65 66 62 58 56 61 76 71 55 50 44 36 29 23 17
30 34 44 48 45 44 41 40 43 44 46 47 48 48 43 43 48 46 45 48 50 50 47 47 48 49 49 49 52 52 54 56 58 59 58 56 56 59 62 76 75 68 69 48 38 28 20 13 9
53 52 50 45 40 44 44 44 49 49 46 44 41 41 48 52 48 52 61 61 55 57 52 52 55 55 55 54 52 53 50 45 47 49 54 68 68 72 77 70 65 52 38 36 28 17 12 9 8
52 48 46 47 48 49 51 48 48 47 44 38 41 47 46 48 50 54 63 64 79 67 58 64 67 59 57 56 48 40 44 47 53 59 76 71 74 70 62 56 46 46 37 25 16 11 8 7 5

GFSSGP_250_rhum_048.txt.gz
RH
11 12 14 17 21 22 21 19 23 33 67 80 91 91 96 90 87 98 89 86 98 100 98 100 100 100 99 88 100 100 100 99 90 79 67 67 54 53 43 50 48 66 70 52 42 84 100 76 58
13 14 18 19 23 28 25 24 23 22 38 74 100 100 100 100 100 99 82 92 100 100 100 100 98 100 100 100 100 88 83 75 65 73 62 56 57 42 62 51 63 52 52 60 89 96 86 63 50
10 12 15 18 23 24 25 29 24 25 23 32 100 100 100 100 95 100 86 96 97 100 100 100 100 99 98 100 96 84 67 65 66 69 68 53 46 41 51 50 60 51 91 100 100 90 66 53 42
8 9 11 15 16 22 24 28 27 28 26 24 58 100 100 100 100 100 100 100 100 100 100 93 91 91 81 78 56 87 69 62 74 66 64 52 48 42 72 68 64 66 95 73 84 61 55 48 38
10 9 10 13 12 15 17 19 26 27 30 28 32 99 100 100 100 100 100 100 100 98 97 90 77 86 74 60 72 59 73 73 65 58 50 58 55 57 56 58 89 91 95 87 66 57 57 55 35
11 10 10 10 10 12 16 15 22 28 33 32 30 35 92 100 100 100 100 100 100 100 100 99 100 90 95 72 73 96 78 80 70 84 79 60 80 69 83 100 100 98 86 75 65 48 57 37 17
10 10 11 10 10 10 13 14 17 23 34 37 36 34 39 87 100 100 100 100 100 100 100 100 100 98 91 100 100 100 93 99 76 98 92 99 94 91 100 100 96 81 76 68 54 51 51 20 19
11 11 11 12 13 13 16 17 25 27 31 45 42 41 40 66 100 100 100 100 100 100 100 100 89 100 100 93 99 100 100 100 86 93 79 95 100 100 100 92 85 77 71 66 47 31 28 19 31
14 15 15 17 19 20 23 29 35 43 46 49 45 46 40 59 84 91 96 100 100 100 100 100 100 100 100 100 100 100 100 100 100 100 100 100 100 100 96 89 78 72 61 57 34 27 30 34 41
25 28 26 30 32 35 39 49 61 59 60 54 51 45 45 45 51 65 94 100 100 100 100 100 100 100 100 99 99 100 100 100 100 100 100 97 99 94 89 85 90 75 45 36 26 26 38 43 41
45 44 49 50 52 51 55 66 68 70 70 64 52 52 49 51 81 87 59 89 98 100 100 100 100 100 100 100 100 100 100 100 100 100 99 93 92 93 81 86 79 56 39 36 34 31 33 46 48
64 68 59 72 65 64 76 100 83 77 72 73 68 58 56 58 55 55 67 100 100 100 100 100 100 100 100 100 100 100 100 100 100 95 94 92 85 73 65 60 66 42 32 28 26 28 29 32 33
91 85 82 80 83 75 68 100 100 80 82 71 65 79 72 65 80 86 100 100 100 100 100 100 100 100 99 100 100 100 96 90 74 83 80 78 68 63 63 56 43 33 26 22 19 20 21 32 22
93 98 94 97 100 100 98 100 100 98 85 92 97 81 75 76 100 100 100 100 100 100 100 100 99 94 100 100 94 66 63 69 73 87 82 77 74 64 62 49 32 35 35 37 51 40 33 37 23
100 100 100 100 100 100 100 100 100 98 89 100 100 100 100 100 100 96 99 100 91 89 98 100 100 100 100 83 55 73 83 87 85 71 64 62 52 56 68 96 84 84 99 87 86 100 73 59 24
98 100 100 100 100 100 100 100 100 100 100 100 100 100 91 100 100 100 96 91 100 100 100 100 92 71 66 76 79 78 56 75 76 72 100 93 100 100 100 100 100 100 100 100 100 100 72 34 27
90 100 96 100 100 100 100 100 90 85 97 94 89 97 94 99 100 100 100 100 100 97 100 83 92 96 96 80 71 97 98 100 100 98 100 100 100 100 100 100 100 100 100 100 100 92 32 35 43
100 94 100 100 98 80 95 78 72 89 100 100 100 100 100 100 100 100 100 100 83 73 77 81 76 72 80 44 89 100 100 100 100 100 100 100 100 100 100 100 100 100 100 92 100 54 49 53 47
91 100 100 100 100 100 100 100 100 100 100 100 100 100 100 100 92 60 57 65 80 91 86 74 48 26 17 18 82 100 100 100 100 100 100 100 100 60 51 48 85 82 66 49 52 55 54 53 56
100 100 100 100 100 100 100 100 100 100 100 98 94 93 99 100 96 86 95 97 76 58 37 23 18 19 22 26 32 91 83 91 96 94 77 69 49 46 45 39 38 40 43 45 44 50 57 57 53
100 100 100 100 100 100 100 99 92 70 78 98 100 91 76 71 82 81 61 34 24 20 20 24 32 38 39 38 39 40 41 42 44 44 44 44 42 41 42 41 40 40 42 48 53 49 49 50 55
99 95 90 90 89 89 84 83 90 95 95 92 81 80 78 64 38 22 19 21 24 35 37 37 40 41 41 41 42 42 41 40 41 42 44 47 50 48 46 42 41 45 51 52 50 56 57 52 51
100 100 100 98 91 93 88 80 76 73 70 53 44 34 25 18 20 22 30 39 39 39 40 43 42 43 43 42 42 44 47 49 48 46 43 40 38 36 36 40 45 49 53 53 53 58 59 59 62
77 72 62 59 62 66 64 55 48 42 35 28 20 20 22 28 40 39 40 43 46 47 49 48 45 44 42 40 39 38 39 39 38 36 34 32 33 36 42 47 49 49 51 58 66 72 76 68 66
43 48 68 58 53 50 42 36 26 22 23 23 28 41 42 41 43 48 45 47 49 44 40 41 41 37 36 36 38 40 41 41 42 41 36 36 44 46 45 47 53 62 68 73 73 68 66 60 52
43 52 51 38 27 24 24 26 26 34 41 41 40 42 47 50 47 46 47 43 40 39 45 43 40 39 37 40 42 41 42 44 47 47 50 50 46 48 50 62 65 73 80 84 76 62 56 47 38
40 25 24 25 26 24 33 46 44 43 45 48 51 51 49 46 41 43 46 41 40 44 49 53 65 64 64 60 49 43 44 52 56 57 51 43 49 51 56 74 81 85 75 71 70 56 40 32 25
21 22 23 24 34 45 44 46 50 52 54 54 52 48 38 43 47 44 47 45 46 48 58 63 67 74 84 76 60 53 55 56 53 49 43 44 52 56 73 83 79 77 65 54 46 36 27 19 18
24 30 48 55 49 46 46 53 54 56 54 50 47 39 42 43 40 41 46 50 62 66 63 61 61 59 58 53 53 53 52 48 45 41 44 51 60 76 83 75 69 61 44 40 35 26 18 15 12
56 65 56 50 53 58 57 56 58 55 53 53 46 46 42 42 46 48 44 52 69 69 67 75 66 56 49 42 42 45 45 47 42 43 54 60 79 80 77 74 57 51 45 29 21 17 14 10 9

GFSSGP_250_rhum_054.txt.gz
RH
7 7 7 8 9 9 10 12 13 13 10 15 18 20 23 21 24 40 82 100 84 92 94 81 74 67 73 73 84 76 71 83 100 87 94 100 100 100 98 94 82 67 48 48 40 36 32 27 27
7 7 7 7 8 9 10 11 8 8 12 15 20 47 31 30 25 25 48 100 96 88 98 99 78 96 100 99 95 75 65 82 96 94 100 100 100 96 88 68 61 60 44 51 32 39 42 38 39
8 7 7 7 8 9 10 8 9 9 17 20 18 32 51 85 84 42 38 53 100 100 100 100 100 100 99 96 99 93 88 98 100 98 100 99 97 73 71 57 64 53 60 38 67 72 74 59 90
8 8 7 8 8 9 10 8 10 18 44 48 80 47 99 100 100 100 41 37 97 100 100 100 100 100 100 99 82 100 100 100 100 100 97 80 94 68 75 66 73 96 46 99 84 78 94 100 100
9 9 8 8 8 8 8 9 10 23 55 68 69 60 99 100 100 99 32 44 57 94 100 100 100 100 100 100 86 100 100 100 91 91 100 90 87 100 66 77 92 94 100 77 80 96 100 92 93
10 10 10 10 10 10 7 8 10 60 34 34 22 34 18 31 30 26 37 34 57 86 99 100 72 74 99 100 100 100 100 100 100 90 94 86 81 94 88 89 100 88 100 98 97 100 94 98 82
12 11 11 10 9 9 9 9 10 66 86 41 25 14 14 16 22 30 26 90 70 60 53 75 94 100 100 100 95 87 95 88 81 80 90 95 100 98 100 100 74 100 100 100 98 99 90 84 71
12 12 11 13 13 10 8 11 12 33 35 35 19 48 27 36 27 24 29 56 58 86 100 100 100 100 100 100 85 88 100 100 100 100 100 100 100 100 99 100 100 100 100 100 95 87 80 65 62
13 18 20 17 12 11 14 19 100 98 100 98 100 73 60 79 96 84 35 46 100 100 100 100 100 100 100 98 98 99 100 95 99 100 99 100 100 98 91 100 100 100 99 86 79 73 64 57 44
17 17 16 17 18 12 28 91 100 100 100 100 98 98 96 100 89 96 63 46 93 100 100 100 100 100 100 100 100 90 89 100 100 100 100 100 100 100 98 100 100 98 84 77 71 63 58 49 34
29 31 27 21 16 29 96 100 100 99 100 100 97 98 100 94 100 100 85 99 100 100 100 100 100 100 100 100 100 100 100 100 100 100 100 94 98 100 100 100 97 95 98 84 80 63 55 38 27
64 68 48 40 35 46 100 100 100 73 98 100 100 88 78 51 67 88 95 78 95 100 100 100 100 100 100 100 100 100 100 100 100 100 100 100 100 100 100 99 95 97 86 82 68 54 43 34 23
100 90 92 63 40 93 100 100 100 99 60 62 79 75 51 55 52 48 77 100 84 100 100 91 100 99 100 100 100 100 100 100 100 100 100 100 100 100 100 91 86 77 68 62 56 48 41 36 32
100 100 74 94 56 76 100 100 98 69 83 58 61 74 100 86 74 100 99 65 68 69 75 76 78 95 100 100 100 100 100 100 100 100 100 100 99 84 74 74 60 46 39 41 46 44 43 57 83
99 96 76 100 100 99 89 72 74 50 63 81 91 100 99 99 91 83 88 65 94 93 100 100 99 100 100 100 95 100 100 100 100 100 100 94 61 68 79 54 48 52 54 34 38 56 100 100 100
100 100 93 100 100 100 90 79 87 83 96 100 95 100 100 100 100 100 100 100 100 100 100 99 100 100 100 100 100 100 100 100 87 78 72 70 69 91 80 64 65 74 75 66 67 64 77 95 82
100 98 100 97 100 100 93 95 99 100 91 90 100 100 100 89 100 100 100 100 100 100 100 100 100 100 100 84 72 97 99 80 72 77 81 58 34 31 38 66 97 96 97 100 100 88 92 99 92
100 90 93 100 100 100 100 100 100 100 100 100 100 100 96 92 100 95 100 100 100 100 69 62 63 90 94 100 100 92 88 71 67 57 39 25 21 34 82 79 83 95 96 96 100 100 94 52 43
96 95 87 88 100 100 100 100 100 100 100 100 100 100 100 98 89 81 73 58 65 84 100 100 100 100 97 85 68 72 75 47 31 26 30 38 36 34 36 36 37 39 37 35 35 36 36 38 36
89 80 94 100 98 100 100 100 100 100 100 100 94 68 81 91 77 80 100 100 100 100 100 100 93 85 84 72 66 54 27 26 26 26 25 24 26 26 26 27 26 25 27 30 30 31 31 32 41
84 100 100 100 100 100 100 100 100 100 92 67 90 100 100 100 100 100 100 100 98 93 83 74 63 69 70 59 26 27 26 25 26 27 30 28 33 38 40 40 40 34 30 29 30 33 40 47 52
92 93 58 100 100 100 100 100 100 100 100 100 100 100 100 100 99 88 98 98 76 56 55 79 58 35 25 26 26 25 25 26 26 27 30 35 42 45 47 49 50 52 52 51 49 48 50 52 56
70 57 56 98 98 79 88 84 100 100 91 80 88 77 83 90 91 89 94 84 87 63 43 26 26 29 26 24 26 27 28 34 40 47 52 58 64 69 73 73 68 66 69 70 67 64 67 63 60
68 75 100 93 100 100 100 88 100 100 100 94 98 99 95 82 76 70 55 42 28 27 30 29 27 26 28 28 32 38 44 46 47 50 53 57 60 64 67 63 60 63 65 58 54 50 53 48 49
87 95 100 100 96 92 100 100 82 100 100 100 90 81 63 46 37 27 23 29 33 30 27 28 29 32 35 38 48 46 45 46 44 43 46 50 55 64 66 70 64 60 58 53 47 47 51 57 62
100 100 100 100 99 100 100 100 86 89 77 63 49 36 26 23 25 35 34 33 30 30 32 34 34 35 40 44 45 41 48 50 47 46 52 57 61 64 70 72 61 61 60 59 52 53 57 62 65
100 99 100 99 93 83 79 71 58 43 37 32 26 26 32 36 34 32 34 33 36 37 41 38 38 40 43 44 44 50 48 48 51 54 48 48 59 66 72 70 66 62 63 61 56 60 65 67 67
95 98 79 64 53 49 49 40 36 26 25 32 37 38 36 34 36 40 40 39 38 46 46 43 42 46 48 47 44 45 45 49 59 52 49 57 66 71 80 80 71 68 69 64 64 67 72 68 63
69 58 54 53 52 47 38 29 28 30 50 45 42 40 42 43 48 53 50 48 47 51 56 54 52 55 55 45 47 50 56 54 59 54 52 64 72 75 78 74 72 76 69 65 68 70 68 72 56
53 58 56 38 28 28 28 29 35 50 46 42 43 49 47 49 58 66 66 64 63 58 53 54 62 62 58 67 66 69 75 82 74 57 62 70 76 73 72 74 76 66 68 70 73 78 78 52 40

GFSSGP_250_rhum_057.txt.gz
RH
6 6 6 7 7 8 11 12 12 10 7 8 10 12 18 17 21 41 29 26 35 63 100 100 100 71 56 80 86 86 93 100 86 77 63 75 73 68 96 87 100 95 97 71 79 62 60 46 35
7 7 7 7 8 8 9 9 10 10 9 10 19 19 19 22 27 27 30 29 28 57 61 99 98 95 83 94 99 100 85 100 100 95 76 80 85 96 100 99 97 94 84 86 60 56 53 40 72
8 8 8 8 8 8 9 9 8 8 8 10 12 15 17 19 25 28 56 45 37 33 39 73 99 99 100 100 95 100 92 89 83 80 73 95 100 100 94 99 87 91 78 75 46 66 47 67 97
9 9 8 9 9 8 8 7 8 8 8 9 10 12 12 20 42 100 58 80 70 54 42 57 62 100 100 100 100 100 100 100 94 96 79 100 92 94 83 100 84 76 62 69 90 99 100 91 57
9 9 9 10 9 8 8 6 8 8 8 10 10 11 20 46 45 52 59 57 66 91 97 95 86 89 95 98 100 100 100 100 100 100 100 98 100 99 98 100 84 60 100 100 89 96 100 62 89
11 10 10 11 10 9 9 8 10 8 8 10 17 12 21 28 53 38 75 97 100 100 100 100 99 92 98 88 100 100 100 100 100 100 100 94 100 86 91 96 65 95 98 93 82 100 78 72 98
12 12 11 11 10 9 9 8 10 9 11 19 37 40 79 75 67 54 72 100 100 100 100 99 97 100 90 98 100 100 100 100 100 100 97 95 82 99 89 66 100 100 100 81 100 99 66 100 100
14 13 12 13 12 9 9 10 16 13 35 48 82 86 98 100 94 88 63 99 100 99 67 100 100 88 100 100 100 100 100 100 100 100 100 74 100 100 100 100 91 84 90 100 100 100 100 92 91
14 16 15 11 10 10 10 11 13 29 78 100 100 100 100 100 100 97 42 32 39 45 100 100 100 100 99 100 100 100 100 100 100 98 98 88 100 100 100 90 99 100 100 97 100 96 92 89 84
19 17 14 16 13 10 11 24 24 91 100 100 100 100 84 72 52 34 47 46 53 90 100 100 100 97 100 100 100 100 100 100 100 100 100 100 100 100 100 100 88 100 100 100 99 97 91 92 80
27 21 17 15 15 15 18 25 87 100 100 100 100 100 89 100 100 97 97 86 100 100 95 100 100 100 100 100 100 100 100 100 100 100 100 100 100 97 100 100 100 100 100 100 100 95 86 94 81
43 19 23 33 27 13 15 24 100 97 75 100 100 100 93 100 100 100 100 100 100 100 100 99 100 100 100 100 100 100 97 100 100 100 100 100 100 100 100 100 100 100 100 100 94 78 78 70 56
40 41 62 69 16 26 31 67 100 94 100 80 86 100 100 100 100 100 100 98 100 99 100 98 98 100 100 100 100 100 100 100 100 100 100 100 100 100 100 100 100 99 100 97 88 85 60 50 49
82 84 70 47 33 44 54 100 100 89 100 99 99 100 100 100 100 97 100 88 79 98 94 100 100 100 100 100 100 100 100 100 94 100 100 100 100 100 100 100 99 87 74 63 43 32 33 49 58
100 100 77 94 67 60 65 100 100 75 100 100 98 100 100 100 91 99 100 99 100 100 100 100 100 100 100 100 100 98 85 100 80 89 99 100 100 100 100 90 70 63 49 35 29 24 32 32 56
90 100 100 89 92 73 56 100 100 100 82 100 100 100 75 59 76 82 100 100 100 100 100 100 100 100 100 100 100 98 100 100 100 100 100 100 99 89 76 63 48 31 28 26 37 46 47 56 38
96 97 97 93 89 56 61 98 100 100 100 79 93 94 100 100 100 100 100 100 100 100 97 100 100 100 100 100 100 100 100 100 100 94 91 86 71 56 42 36 29 26 27 29 31 34 29 27 25
99 98 100 99 95 81 68 74 77 78 77 80 90 92 96 100 100 100 100 100 99 99 98 100 100 100 98 83 86 91 88 97 96 86 74 57 50 34 28 27 26 26 25 25 27 29 34 34 28
100 98 96 100 100 100 100 100 100 100 100 100 100 96 100 76 95 87 87 100 100 97 70 89 95 100 100 98 100 100 95 84 70 62 49 36 27 25 24 24 25 28 33 38 46 49 48 45 45
81 93 93 96 96 100 100 100 100 100 100 100 97 100 100 100 100 100 100 94 100 97 96 96 95 100 100 100 91 78 70 59 49 40 28 25 23 25 28 33 40 47 52 58 61 64 63 63 58
78 79 98 100 100 100 100 100 97 100 100 100 100 82 100 100 88 95 86 91 85 100 100 100 96 96 88 74 64 60 50 37 26 25 23 24 29 35 39 44 47 51 53 56 60 61 57 51 52
79 85 100 100 100 100 100 100 100 100 100 100 100 100 96 94 100 100 100 100 100 100 99 93 85 77 65 58 46 34 27 25 23 23 32 38 39 42 42 41 45 44 47 54 54 56 59 63 64
97 96 87 83 97 85 98 100 100 100 100 100 100 100 99 100 99 91 81 80 86 78 66 68 64 52 41 29 26 26 25 23 30 40 43 44 39 40 42 40 40 43 49 60 61 63 68 76 74
99 70 61 76 97 93 65 71 79 88 88 100 90 98 94 78 80 79 77 78 76 65 46 35 32 25 25 27 25 24 26 30 37 38 34 32 30 29 30 34 44 46 50 55 55 55 58 60 60
65 67 81 76 71 63 62 74 66 76 65 93 84 76 55 70 71 76 60 46 36 31 26 27 31 30 28 27 26 28 31 34 34 32 33 33 35 34 33 38 44 50 57 54 51 55 57 56 55
83 73 88 99 76 92 100 92 100 100 95 100 99 83 78 71 60 47 35 25 29 36 34 31 30 31 34 32 33 36 40 38 35 37 34 36 45 42 46 49 52 59 59 54 59 65 59 60 67
79 88 83 94 100 100 89 70 73 92 89 89 80 62 39 37 30 26 38 41 37 34 33 32 32 40 46 44 42 46 46 43 44 66 67 51 43 45 46 52 59 59 58 60 64 62 69 76 73
100 87 91 100 100 100 86 76 80 66 57 54 46 39 33 27 35 41 40 40 40 39 41 42 40 44 59 58 54 53 51 60 80 74 60 46 48 51 58 60 60 62 62 61 62 69 77 77 75
84 98 92 88 90 82 59 54 42 37 49 40 30 27 39 44 41 36 36 35 36 49 58 61 51 49 48 44 46 54 56 73 66 54 48 50 52 60 60 64 65 61 62 64 65 78 80 74 80
59 54 56 56 62 55 50 56 40 35 28 26 35 47 45 40 36 33 35 33 39 48 51 55 59 60 62 63 67 57 66 58 52 56 48 53 62 64 66 66 60 64 65 67 71 75 72 80 66

GFSSGP_250_rhum_060.txt.gz
RH
6 6 6 6 7 7 7 8 8 9 10 9 10 9 8 9 14 16 22 20 21 24 23 24 29 30 48 83 83 55 42 58 70 74 71 89 96 87 86 89 85 96 85 55 59 72 79 60 77
8 8 8 8 7 7 7 7 9 9 9 9 9 9 9 11 19 22 24 22 26 24 33 38 31 30 39 77 74 65 53 60 69 69 96 95 82 84 88 70 82 88 79 73 94 83 76 85 78
10 10 10 9 8 8 7 7 8 7 8 9 10 10 10 11 14 18 22 28 20 20 34 38 45 40 45 62 90 98 75 84 92 82 73 94 95 100 100 97 97 90 86 72 80 94 86 62 51
11 11 10 12 10 8 8 9 8 8 9 9 8 8 10 11 14 18 18 19 21 21 44 39 54 40 39 47 50 60 67 100 100 100 100 100 100 100 98 100 98 100 92 90 99 80 58 35 72
12 12 13 11 10 10 9 9 8 8 8 8 8 8 8 9 9 13 20 23 16 21 59 100 99 90 91 81 100 100 100 100 100 100 100 100 100 100 100 100 100 100 98 76 60 60 56 90 90
14 14 14 12 12 11 11 9 10 9 8 8 9 9 10 11 11 13 51 56 59 100 100 100 96 79 100 100 100 100 100 100 100 100 100 100 100 100 100 93 100 88 61 53 98 99 100 100 68
14 15 14 12 13 12 11 10 9 9 9 8 10 11 13 17 18 24 76 100 100 100 100 100 87 100 100 100 100 100 99 80 100 100 100 100 100 100 100 100 99 73 82 88 100 100 85 69 66
16 19 17 15 15 13 11 11 13 20 17 23 28 23 19 19 35 36 58 100 100 100 100 100 100 100 85 100 100 100 100 100 100 100 100 100 100 100 100 94 64 100 100 100 96 92 88 100 100
19 22 20 12 13 13 13 12 20 20 35 51 43 36 24 46 100 100 91 100 100 100 100 100 100 100 100 100 100 100 100 100 100 100 100 90 89 97 77 100 100 100 99 100 100 81 98 100 100
24 30 17 16 13 13 16 16 21 16 36 54 88 87 82 100 100 100 100 100 98 98 86 100 100 100 100 100 100 100 100 100 100 90 97 100 88 100 100 100 100 100 100 97 100 100 100 100 92
26 12 19 20 18 18 17 18 19 62 38 64 100 100 100 100 98 93 90 100 100 100 100 100 100 100 100 100 100 100 100 100 99 100 100 100 100 100 98 100 100 99 100 100 100 100 100 100 100
17 25 33 35 38 32 23 22 27 100 100 93 99 99 100 98 93 88 100 100 94 99 100 100 99 91 100 100 100 100 94 98 100 76 92 100 100 100 100 100 100 100 100 100 100 100 100 96 83
30 41 41 32 29 20 16 25 36 100 91 90 94 100 100 100 100 99 94 100 100 100 100 98 98 100 100 100 100 100 100 100 100 100 100 100 100 100 100 100 99 99 100 100 100 94 82 71 52
69 88 70 61 63 25 26 39 81 100 70 100 100 100 96 100 100 100 100 100 100 100 100 100 100 96 92 100 98 100 93 99 100 100 95 100 100 100 100 100 100 100 100 100 92 66 50 35 30
100 77 86 100 75 54 42 59 100 88 88 100 100 100 100 100 100 100 100 100 100 93 86 100 100 100 100 100 100 100 100 100 100 100 100 92 98 100 100 100 100 100 92 74 53 45 33 26 24
91 79 86 100 100 87 75 93 100 96 96 100 100 100 100 100 100 100 100 99 100 100 100 100 100 100 100 100 100 100 100 98 98 100 100 100 100 100 100 100 93 80 62 53 36 26 25 27 30
95 100 100 100 89 94 90 100 100 100 96 100 100 100 100 100 100 100 100 100 100 100 100 100 100 100 100 96 96 98 100 100 100 100 100 100 100 100 94 87 76 59 41 27 25 25 31 42 44
90 93 93 78 85 99 100 99 100 100 100 100 100 93 100 100 100 100 100 100 100 100 100 100 100 100 100 100 100 100 100 99 92 92 99 99 96 83 68 56 43 29 25 29 32 35 43 42 41
81 92 90 83 92 93 100 100 100 100 100 100 100 100 100 100 100 100 100 96 94 100 100 100 100 100 87 79 82 82 66 73 92 100 98 85 69 51 35 28 26 27 28 33 35 37 39 36 39
84 79 78 91 84 99 88 100 100 100 100 100 100 100 100 100 100 100 100 81 72 56 62 60 64 69 76 88 91 89 91 96 90 84 74 56 46 28 26 28 32 35 36 35 34 34 34 39 40
98 99 81 100 95 99 100 100 100 100 100 99 98 86 73 63 90 78 72 74 85 100 100 100 92 87 100 100 99 100 94 80 56 44 36 29 27 27 30 34 36 34 34 34 32 32 35 40 43
84 90 99 100 100 100 100 100 100 100 100 100 87 56 58 83 81 94 100 100 93 91 97 98 100 100 99 92 84 73 58 45 37 30 28 28 29 33 36 37 35 32 31 33 36 40 39 38 40
94 86 100 100 100 100 81 98 100 100 100 100 100 100 99 100 100 100 100 100 100 98 93 92 96 76 67 60 47 41 36 33 30 29 28 27 29 31 33 34 36 40 40 37 36 36 40 45 56
86 84 100 98 98 94 86 96 98 81 90 100 100 100 100 100 100 100 99 91 85 73 72 75 54 43 39 37 32 32 34 30 29 29 31 33 34 37 35 32 42 43 40 42 45 47 48 54 54
97 72 83 72 74 59 72 73 86 84 74 65 93 100 95 85 70 69 54 52 79 83 56 47 36 30 30 33 35 33 29 30 33 34 35 35 31 30 27 28 32 39 40 40 39 43 49 47 53
69 71 54 62 66 60 67 73 71 72 80 81 76 68 58 51 60 74 67 75 64 40 30 31 39 42 40 34 31 32 33 33 37 36 32 28 27 27 31 38 43 45 43 43 49 49 53 55 61
80 67 53 58 66 65 62 58 78 74 86 75 67 64 69 66 74 63 47 36 31 37 44 46 42 38 38 40 45 45 43 40 38 35 32 31 33 41 45 47 49 50 49 57 59 60 55 59 65
76 73 57 77 94 74 61 85 99 82 84 78 74 62 55 56 51 40 32 37 43 43 43 42 41 43 46 46 48 49 45 43 44 46 42 47 63 59 49 49 59 53 59 62 64 60 60 66 74
100 99 64 61 72 76 70 85 74 55 47 48 46 45 44 38 32 43 57 52 45 42 41 37 36 41 47 46 45 53 57 57 63 61 58 69 55 49 58 59 58 60 72 74 72 65 70 73 68
81 78 77 68 54 54 47 43 48 50 52 51 45 37 32 34 45 56 52 47 49 51 49 51 49 49 48 54 59 57 60 68 61 54 53 46 58 62 60 62 64 75 83 73 67 72 67 67 63

GFSSGP_250_rhum_063.txt.gz
RH
6 6 7 8 8 7 7 8 9 9 9 11 9 8 7 9 10 12 13 15 20 20 22 21 21 21 21 22 23 23 24 24 32 31 23 31 37 37 35 65 55 72 82 58 48 62 68 77 72
6 7 7 8 9 9 8 8 7 8 9 10 9 9 8 10 12 12 13 13 17 21 20 23 23 22 24 25 26 28 35 43 44 33 28 31 60 59 46 45 54 61 76 63 62 79 83 54 58
6 7 8 9 11 10 9 8 8 8 8 8 8 9 9 9 9 11 14 15 16 16 22 25 33 30 26 30 30 35 43 45 33 33 34 53 92 84 87 64 66 91 72 75 78 86 90 96 88
7 9 10 10 11 11 10 10 10 9 8 10 8 9 9 10 11 12 14 12 13 14 24 35 38 67 55 57 54 41 51 66 59 64 78 84 100 100 100 100 88 69 76 88 90 97 92 89 75
9 10 12 12 12 12 12 12 10 9 9 9 9 9 9 9 11 14 18 17 19 15 24 46 58 93 97 100 100 75 71 93 100 96 100 100 100 100 100 100 98 99 95 100 93 93 100 76 76
11 11 12 13 15 14 13 12 13 12 9 10 11 10 10 19 12 16 17 19 30 36 87 75 74 92 100 100 87 96 98 100 100 100 100 100 100 100 100 100 100 100 100 98 100 83 82 74 84
14 13 12 14 15 15 14 14 14 14 14 11 16 16 12 17 39 39 32 79 91 74 98 95 100 97 100 100 99 100 100 100 100 100 100 100 100 100 100 100 100 100 93 93 97 96 76 79 93
18 15 14 13 14 14 15 16 16 20 24 11 14 24 21 15 15 22 43 57 87 100 100 100 99 100 100 96 99 100 100 100 100 100 100 100 100 100 100 100 92 84 98 82 79 83 77 100 100
18 16 12 12 15 16 17 17 20 28 37 28 25 53 46 38 19 17 28 46 72 97 100 100 100 100 100 100 99 100 100 100 100 100 100 100 95 100 100 100 97 100 100 82 100 100 93 100 92
21 15 15 16 17 19 18 18 27 79 100 80 100 88 70 43 40 31 79 64 90 98 92 100 100 100 100 96 100 100 100 100 100 100 93 100 100 100 100 92 100 100 100 100 100 100 100 99 100
29 20 18 20 20 23 23 22 22 31 55 83 98 79 56 77 100 82 55 42 94 100 100 100 100 100 100 100 100 100 100 100 100 100 100 98 100 97 100 100 98 100 92 100 98 100 100 100 100
39 41 31 29 30 31 30 25 26 46 75 94 92 78 70 54 100 85 73 86 91 100 100 100 100 100 100 100 100 100 100 100 100 96 100 100 100 100 100 98 100 100 100 99 88 100 88 100 100
36 42 60 48 43 40 35 37 33 49 45 90 86 99 94 100 100 100 99 100 88 100 100 96 100 97 100 100 100 100 100 100 100 100 100 100 100 100 85 100 100 100 98 92 100 100 100 100 93
39 66 73 52 37 45 45 41 45 74 62 74 100 100 100 100 100 100 100 84 86 100 100 96 100 100 100 100 100 100 100 100 100 100 100 100 100 97 88 88 90 90 89 97 100 100 100 81 72
44 73 79 62 45 35 38 38 37 77 53 100 100 100 100 100 100 100 100 80 68 100 100 93 100 100 100 100 100 99 100 100 100 94 91 83 68 60 97 100 90 100 100 100 100 95 85 70 57
60 72 70 49 66 90 72 62 64 89 90 100 100 100 100 100 100 99 100 100 100 100 100 100 100 100 100 92 100 100 100 99 100 100 100 100 100 100 100 86 89 90 100 95 86 64 48 33 27
96 100 96 99 63 69 70 99 95 100 100 100 100 100 100 100 100 100 97 100 85 72 97 100 98 100 100 100 100 96 95 95 100 100 93 100 100 91 71 83 99 100 100 74 52 37 28 28 31
100 100 100 90 76 100 86 91 100 100 100 100 100 100 100 100 100 100 100 94 100 100 90 99 100 98 97 100 97 98 100 100 100 100 82 83 84 83 80 99 100 83 68 51 32 27 30 32 35
91 95 98 88 100 100 94 91 100 100 100 100 100 100 100 100 100 100 100 100 100 100 100 100 100 100 100 98 100 100 96 90 100 94 74 79 93 100 100 85 63 36 30 27 29 34 36 37 34
100 95 100 100 84 100 100 100 100 100 100 100 100 100 100 99 100 100 100 100 100 100 100 100 100 100 100 100 94 100 98 100 83 67 80 85 100 92 79 46 35 31 30 31 33 35 35 34 34
82 82 82 83 100 100 100 94 100 100 100 98 100 100 100 100 100 100 98 100 100 100 100 97 85 75 95 85 68 70 70 61 81 93 84 73 68 43 38 35 32 29 30 29 31 31 32 34 36
77 95 100 100 96 100 100 100 100 100 100 100 94 100 100 100 100 100 100 83 80 96 69 82 99 68 84 90 96 89 86 83 68 54 44 38 38 37 34 31 29 29 31 32 30 29 32 38 47
90 89 83 100 100 100 100 100 100 100 100 92 100 100 100 100 100 100 93 76 87 79 92 100 100 100 99 83 84 67 46 39 37 37 36 38 36 33 30 29 28 29 32 34 43 48 50 50 51
97 96 94 98 100 90 99 95 100 99 100 100 99 96 89 99 95 89 100 100 100 100 96 91 91 86 77 65 54 36 35 40 42 41 38 36 32 32 32 32 35 38 39 44 46 48 48 50 53
92 100 85 99 80 64 82 78 89 91 94 92 83 63 50 65 90 92 99 98 76 62 70 71 88 79 71 36 35 35 41 44 42 37 37 37 36 39 45 48 49 47 51 51 51 50 49 49 48
61 73 78 72 74 76 82 77 74 76 97 87 79 81 84 65 46 42 45 47 50 65 84 72 71 89 36 28 36 44 46 42 41 40 37 42 46 48 49 45 45 42 44 50 53 49 48 51 60
60 63 52 58 60 66 69 75 86 76 72 78 79 80 82 79 69 70 57 58 50 74 78 66 47 26 34 43 45 45 41 36 41 40 44 48 45 47 48 51 48 55 56 52 52 54 54 60 62
64 98 70 66 70 60 68 82 76 64 55 58 54 53 57 62 71 73 64 58 62 59 43 30 39 51 53 49 44 36 35 42 41 47 45 44 45 43 49 55 56 54 53 55 57 60 64 69 71
99 81 63 60 61 71 78 86 84 67 64 64 51 48 49 49 47 45 43 36 31 38 51 53 56 54 48 40 38 45 46 44 40 40 43 53 57 64 68 66 62 59 59 60 65 74 81 84 86
78 76 76 55 47 44 46 48 48 46 52 54 56 55 44 43 40 35 32 31 45 60 57 55 47 43 44 46 46 41 36 35 50 75 86 62 57 61 70 67 60 63 68 71 80 86 86 82 83

GFSSGP_250_rhum_069.txt.gz
RH
9 9 8 7 6 6 6 6 7 7 8 8 10 14 11 14 15 16 18 15 14 14 15 16 17 18 19 22 24 24 23 23 24 25 25 24 24 24 24 23 25 25 24 25 26 26 27 30 32
10 10 10 9 8 6 6 6 7 8 10 10 12 20 18 26 29 18 16 16 15 14 14 14 15 15 18 20 21 24 26 24 24 25 28 29 32 33 31 29 27 26 24 24 28 28 29 43 56
10 11 11 10 10 9 6 7 7 10 11 15 37 48 31 24 24 21 21 32 20 14 14 14 16 19 19 21 19 20 24 26 25 24 30 30 35 32 31 29 27 28 23 28 49 61 66 60 69
11 12 12 10 11 11 8 8 9 12 12 13 19 17 48 37 22 14 26 34 28 34 22 19 18 17 18 21 18 21 23 28 28 27 33 35 37 32 35 32 40 40 54 84 96 100 78 88 100
13 12 12 11 12 12 9 9 10 12 24 22 65 83 64 56 31 22 14 21 36 47 38 35 34 32 32 31 33 44 41 37 39 37 36 43 35 41 52 62 74 80 86 85 84 94 88 99 100
14 12 12 14 16 12 12 13 14 14 26 38 38 38 19 38 48 38 26 24 32 49 47 49 57 79 89 94 98 93 56 59 56 73 85 71 61 68 100 96 91 97 98 100 99 92 90 89 73
16 13 13 20 16 15 18 18 17 23 48 71 51 60 40 55 57 47 47 51 40 57 83 98 91 100 100 96 90 84 56 76 79 91 88 98 100 92 100 100 100 98 98 87 72 74 74 85 86
18 15 16 23 17 19 22 20 20 26 44 56 51 63 62 64 44 36 25 25 30 38 73 100 100 100 100 88 92 100 100 91 100 100 97 100 100 100 100 100 100 100 100 92 100 93 85 96 74
20 17 18 21 18 20 22 22 20 20 26 27 30 49 38 25 42 41 40 41 68 43 97 100 92 100 100 93 100 100 100 100 100 100 100 100 100 100 100 100 100 100 100 98 99 93 97 96 55
21 19 27 18 20 23 23 23 22 20 22 22 22 32 41 28 20 22 23 25 50 47 62 100 100 100 84 100 100 100 100 100 100 100 100 100 100 100 94 99 91 93 100 100 96 100 79 81 92
20 22 32 18 22 26 26 25 24 23 22 22 24 25 28 32 39 31 24 23 44 100 100 94 100 100 99 100 100 100 100 100 88 100 100 91 91 92 93 96 100 94 89 91 80 100 69 96 91
26 38 37 21 24 26 26 25 26 24 22 22 22 24 27 34 39 54 50 81 71 88 100 100 88 99 100 100 100 100 100 100 100 100 100 100 100 100 100 100 100 100 100 100 97 97 100 98 86
42 42 34 26 26 24 25 25 26 24 22 22 25 24 38 65 83 95 94 74 100 99 97 100 100 100 100 100 100 100 100 100 100 100 100 100 100 99 95 100 100 88 100 86 99 100 99 82 69
44 41 40 46 32 29 26 26 27 27 26 26 38 68 77 100 100 100 97 100 77 100 100 88 100 100 100 100 100 100 100 100 100 100 96 96 99 100 100 100 100 94 75 79 94 94 78 62 65
42 51 51 55 60 46 33 28 27 28 26 34 82 75 78 100 100 100 96 100 99 100 100 100 100 100 100 100 100 100 100 100 100 100 100 100 86 97 94 65 58 79 83 90 75 75 51 75 83
64 74 83 67 58 53 55 54 34 43 31 33 66 72 88 98 100 100 100 100 100 100 100 100 100 100 100 100 98 100 100 100 100 100 100 100 100 100 100 100 87 99 99 68 67 48 85 100 100
78 88 100 97 84 87 72 54 49 58 49 57 86 100 100 100 100 100 94 97 98 100 100 100 100 100 100 100 100 100 100 100 100 100 100 100 100 100 86 100 90 68 74 81 55 99 100 100 93
70 95 100 93 98 99 93 84 56 53 52 99 100 100 94 96 89 100 97 78 100 100 100 100 100 100 100 100 100 100 100 100 100 100 93 96 99 66 78 66 74 95 96 86 100 96 90 64 35
63 85 100 86 91 100 100 83 74 47 84 100 100 100 100 99 89 100 100 100 100 100 94 96 100 100 100 100 100 100 85 75 96 86 56 76 90 97 86 98 91 93 100 100 89 61 43 31 31
78 89 98 85 83 89 96 97 88 76 76 100 100 100 100 75 100 91 93 100 100 80 79 98 89 93 93 86 74 60 59 54 67 81 100 100 100 100 100 98 100 96 73 62 39 32 29 31 34
66 84 93 84 83 80 84 92 99 99 97 100 100 99 100 100 100 100 84 100 79 100 73 68 58 49 58 55 74 85 90 97 99 97 100 100 94 88 80 98 93 50 42 36 33 32 34 39 41
59 58 71 96 88 96 91 83 82 95 92 100 100 100 100 100 100 100 100 98 86 67 57 48 56 63 80 92 97 100 100 100 100 100 100 85 94 79 63 51 44 40 35 34 36 39 45 48 38
68 68 83 87 78 81 99 85 70 85 74 93 89 100 100 100 100 100 100 100 100 100 100 100 100 100 100 87 97 91 100 97 98 89 75 66 64 75 76 51 37 37 35 38 42 46 42 37 48
56 64 75 81 87 80 79 87 74 80 79 75 81 77 90 100 100 98 100 100 100 100 100 100 100 100 100 100 100 100 98 95 77 70 73 69 95 99 54 41 40 38 44 44 41 41 40 46 54
38 63 68 84 96 100 99 82 90 95 87 90 90 77 62 65 78 85 81 95 100 100 100 100 100 100 100 100 100 93 84 91 77 81 92 99 100 58 46 49 48 49 46 46 38 35 44 45 49
36 45 71 82 93 96 100 100 67 100 100 100 96 100 100 100 100 98 93 100 100 100 96 100 100 100 100 92 81 71 68 100 86 100 100 98 56 54 56 56 55 56 47 40 39 47 44 52 52
41 37 62 69 78 88 96 100 80 92 94 83 89 96 96 94 82 86 96 100 100 100 92 80 79 69 66 68 62 78 100 100 100 100 77 54 61 62 56 62 60 58 49 42 51 53 56 54 60
44 38 50 64 71 84 91 86 86 84 98 86 82 94 94 88 80 85 98 100 100 99 94 95 96 99 97 100 100 100 100 100 79 55 62 65 66 64 63 67 61 45 49 59 63 62 60 61 63
50 43 40 50 58 70 92 100 95 79 79 75 70 75 77 86 85 86 83 82 74 67 72 86 80 65 85 98 100 99 82 58 60 64 63 70 73 70 64 44 42 49 54 54 60 64 55 62 74
53 48 40 36 54 81 100 96 70 50 56 69 72 77 77 73 67 61 57 57 54 52 51 44 42 60 91 100 100 79 64 50 58 66 85 82 78 70 55 57 57 60 64 64 67 61 64 73 78

GFSSGP_250_rhum_072.txt.gz
RH
16 16 13 8 7 7 8 8 8 7 6 8 8 9 9 9 14 43 25 18 18 17 17 20 22 20 20 23 23 23 23 26 27 27 29 29 31 35 30 26 26 25 23 23 23 23 23 25 26
19 18 12 9 9 8 8 9 9 8 8 10 12 11 10 17 13 20 43 32 20 17 17 18 19 20 19 22 21 21 24 29 30 31 31 31 31 33 31 29 30 27 27 28 28 27 25 26 28
23 18 11 10 11 9 10 10 10 8 9 10 15 14 22 40 70 44 15 14 24 22 22 20 18 18 19 19 19 21 23 26 30 31 34 37 35 36 33 30 29 27 27 28 31 30 31 32 39
22 16 11 12 12 10 11 11 11 10 11 13 34 15 46 65 47 39 23 14 12 18 21 20 16 18 18 17 19 20 22 26 31 34 36 37 35 37 36 35 30 32 28 30 33 29 65 51 70
21 13 12 14 13 11 13 13 11 11 12 17 21 98 69 90 47 38 35 28 15 16 14 16 16 19 18 18 23 20 21 25 27 35 39 45 48 39 35 47 50 34 36 48 64 78 88 100 90
14 13 14 16 14 13 16 13 13 14 14 28 29 57 100 100 100 91 63 40 38 48 46 30 28 46 49 31 24 27 33 34 31 32 37 31 34 34 36 45 56 76 88 85 92 96 94 87 78
14 15 18 18 15 18 16 14 16 19 22 51 19 96 100 100 90 100 65 68 95 97 75 70 75 92 98 100 95 68 46 42 38 40 66 59 52 57 82 85 98 76 99 100 99 90 95 92 100
15 19 21 18 18 23 18 19 22 28 31 33 38 72 100 97 93 100 75 49 86 100 100 100 100 100 100 100 100 100 78 78 72 89 96 90 100 100 100 100 100 100 99 100 100 100 100 99 99
16 22 21 19 24 21 20 22 42 33 34 34 43 66 91 85 70 96 38 44 70 100 100 100 100 100 100 100 95 100 98 100 100 100 100 100 100 100 100 100 100 100 100 100 100 100 100 100 97
24 24 23 25 32 20 21 24 25 32 41 43 67 98 94 94 77 35 28 22 72 82 100 100 100 100 100 99 100 100 91 99 96 100 100 100 100 100 100 100 100 100 100 100 97 93 100 90 52
27 30 34 38 29 20 22 23 30 31 39 75 96 92 77 80 49 38 55 65 60 49 89 100 100 97 100 96 100 96 100 100 100 100 100 100 100 100 91 100 94 98 100 100 100 93 99 71 65
33 41 42 34 28 21 22 25 24 25 29 34 46 36 49 70 62 51 47 35 50 99 100 100 100 100 100 100 100 100 100 100 100 100 100 100 100 100 100 100 100 98 99 96 79 99 70 63 52
41 44 33 33 31 24 22 24 26 24 25 24 22 21 34 46 60 89 77 61 72 48 100 100 90 100 100 100 100 100 100 100 100 100 100 100 95 84 100 100 100 100 97 97 88 86 69 69 73
45 37 30 43 55 26 25 26 25 24 23 23 24 73 41 45 87 100 100 85 52 48 100 100 100 100 100 100 100 100 100 100 100 100 100 100 100 100 98 99 100 93 86 100 85 76 72 82 93
50 52 48 48 66 46 31 24 24 25 24 22 24 64 75 78 100 100 100 82 77 85 100 100 100 100 100 100 100 100 100 100 100 100 100 100 100 100 100 100 94 87 100 100 99 99 100 100 100
50 79 98 70 75 68 58 38 31 29 24 24 30 72 92 100 100 100 92 99 100 88 100 100 100 100 100 100 100 100 100 100 100 100 100 100 100 99 94 94 66 73 84 100 100 96 78 96 84
50 66 81 97 81 89 66 61 52 34 22 24 44 94 100 100 97 98 89 100 100 100 97 89 100 100 100 100 100 100 100 100 100 100 100 100 92 87 84 81 84 100 100 90 82 94 99 100 100
52 62 75 83 83 76 88 77 68 46 32 31 79 99 100 100 97 100 100 100 100 100 100 100 100 100 100 100 100 100 100 100 100 99 100 100 95 93 82 98 97 72 93 99 100 100 81 96 100
58 57 64 70 82 83 97 84 66 45 40 74 73 98 100 90 92 87 100 92 100 100 100 100 100 100 100 100 100 100 100 100 98 100 100 100 100 82 83 99 74 100 100 100 97 65 90 89 47
62 58 67 76 73 85 86 100 98 76 60 99 81 96 100 91 99 76 85 78 80 92 100 100 100 100 100 100 100 100 100 100 100 100 100 90 65 60 55 80 96 100 100 96 93 75 57 46 41
38 60 62 62 89 83 72 79 89 84 65 100 97 93 100 72 100 100 82 89 86 100 87 92 83 85 94 100 100 97 99 99 88 87 73 58 51 77 100 100 100 98 95 79 66 70 51 42 39
38 55 61 66 77 84 96 92 71 69 74 92 100 91 100 88 88 100 94 58 91 100 98 95 78 66 61 63 76 60 52 46 42 41 84 100 85 88 100 94 87 75 70 68 84 61 43 40 35
41 37 64 56 78 85 83 100 88 74 70 89 100 100 87 94 100 71 100 100 66 65 65 50 63 74 64 46 53 38 55 85 100 100 98 69 58 66 86 79 68 74 67 83 67 45 44 44 45
40 39 51 65 66 97 86 83 83 99 94 66 90 98 99 100 99 99 100 100 100 100 100 79 77 92 100 100 100 100 100 94 98 97 98 99 94 89 73 64 77 97 90 82 51 47 47 48 54
47 42 38 82 65 67 77 81 71 90 93 96 82 74 76 84 94 99 97 100 100 100 100 100 100 100 88 76 85 94 100 100 100 100 100 78 74 70 80 99 100 100 86 58 55 56 54 53 45
56 46 42 46 99 77 72 63 56 79 73 69 90 99 98 84 74 76 90 88 94 95 85 76 94 99 100 100 100 100 100 100 100 98 86 81 77 96 100 100 100 81 60 62 61 57 54 60 52
57 46 47 38 66 89 75 70 48 54 61 58 59 64 85 99 99 100 100 100 99 84 98 100 100 100 100 80 85 96 87 85 91 85 83 83 100 100 100 98 76 62 58 60 60 70 61 50 49
58 45 50 42 39 58 84 89 74 62 72 77 74 64 64 73 83 64 60 60 63 62 56 62 64 66 69 85 86 88 88 82 76 84 92 99 100 96 77 64 63 68 68 60 62 52 49 52 56
57 54 43 44 41 41 79 82 100 88 72 81 83 88 86 79 89 95 91 83 72 67 70 72 74 76 82 81 84 80 73 81 85 92 100 95 82 56 58 65 74 78 89 93 75 62 57 58 70
70 63 53 42 48 42 43 84 61 62 85 72 61 57 65 71 76 79 83 83 78 69 64 66 68 58 51 45 43 40 57 90 100 100 100 80 69 71 80 95 99 85 73 67 64 71 75 80 82

GFSSGP_250_rhum_075.txt.gz
RH
38 26 22 18 14 11 8 6 6 8 7 7 8 7 7 20 97 99 86 74 13 12 16 30 23 22 23 23 24 24 22 24 28 28 25 29 33 29 28 32 26 26 26 28 29 24 24 23 21
29 24 22 19 13 9 8 7 9 9 9 8 9 8 58 100 100 100 100 99 51 15 16 19 21 20 22 22 24 24 23 25 29 35 35 35 36 36 38 42 34 29 29 30 27 25 26 27 26
27 26 22 18 10 8 9 8 11 9 9 8 9 8 88 94 100 100 100 100 51 21 35 19 21 22 21 24 25 23 24 27 30 34 31 34 38 39 35 36 34 33 31 30 29 26 25 31 28
31 28 20 15 10 9 12 13 10 8 13 10 9 9 50 100 100 100 96 100 38 15 26 48 24 22 22 24 22 22 24 26 30 34 32 32 35 35 34 34 35 36 36 36 35 32 30 34 33
35 29 22 12 11 13 17 14 10 20 100 94 11 9 10 30 94 99 85 14 15 12 14 33 42 30 21 19 21 22 23 26 28 33 35 34 35 35 32 30 34 36 37 37 43 43 40 40 43
43 26 15 12 13 19 18 15 12 65 98 100 36 56 18 25 53 56 62 63 56 74 73 43 31 20 26 26 29 32 39 42 34 31 32 34 29 30 27 27 31 34 43 53 61 65 64 75 73
29 20 13 13 21 20 18 19 41 25 86 89 100 100 59 96 93 94 82 73 99 100 99 100 100 99 53 41 48 70 84 86 55 40 35 34 31 28 34 44 57 56 60 98 90 98 96 100 100
25 15 13 18 23 23 24 23 17 14 33 58 100 100 88 100 100 91 81 89 93 100 100 100 100 100 100 100 100 100 92 77 61 51 42 48 54 76 72 90 100 100 99 86 100 100 92 100 100
19 14 19 20 27 33 29 23 21 20 24 32 60 73 100 100 100 86 75 100 100 100 100 100 100 100 100 100 100 100 100 100 96 88 82 100 100 98 100 100 100 100 100 99 91 99 100 100 98
16 16 24 26 30 30 25 25 25 53 92 62 48 83 100 100 100 71 62 90 91 99 99 100 100 100 100 100 100 100 100 100 100 100 100 100 100 100 100 100 100 100 100 100 100 98 87 94 100
16 26 27 27 26 28 24 27 30 32 97 86 39 73 100 100 99 62 56 67 100 100 100 100 100 96 100 100 97 100 100 100 100 100 100 100 100 100 100 100 94 100 100 80 72 79 99 100 94
18 31 30 26 24 27 25 26 27 31 48 56 36 21 70 100 95 79 71 56 52 100 100 100 100 100 100 100 92 100 100 100 100 100 100 100 100 100 90 100 100 100 99 98 90 100 97 79 100
26 37 35 26 30 26 28 27 28 27 33 28 24 41 28 59 70 68 55 69 68 83 100 100 100 100 96 96 100 100 100 100 100 100 100 100 100 100 100 98 94 82 92 97 100 100 97 80 66
31 43 42 35 53 37 29 24 24 26 28 29 35 66 85 69 64 49 55 56 74 100 100 100 100 100 100 100 100 100 100 100 100 100 100 100 100 100 100 100 100 100 100 100 100 84 75 84 90
32 47 55 50 46 39 56 98 98 26 23 24 26 49 86 74 50 63 72 61 52 68 86 100 100 100 100 100 100 100 100 100 100 100 100 100 100 100 100 100 100 100 100 100 100 100 96 83 80
30 52 67 100 79 51 76 100 89 56 22 21 21 22 71 61 51 69 76 67 79 58 61 100 100 100 100 100 100 100 100 100 100 100 100 100 100 100 100 100 100 100 100 99 96 98 71 84 100
26 56 57 84 76 79 51 46 61 25 23 22 20 28 60 68 98 100 90 91 94 90 100 100 100 100 100 100 100 100 100 100 100 100 100 100 100 100 100 100 100 96 90 85 67 81 100 98 100
29 47 63 67 70 68 71 48 46 43 33 26 26 79 79 96 99 96 92 98 100 94 100 100 100 100 100 100 100 100 100 100 100 100 100 100 100 100 100 98 100 87 86 70 89 86 89 100 100
27 35 57 60 74 77 82 72 68 62 47 36 62 100 99 100 100 93 100 100 100 100 100 100 100 100 100 100 96 100 100 100 100 100 100 100 100 100 100 100 99 86 93 99 84 86 96 100 100
28 35 54 64 64 68 78 77 76 67 57 69 64 100 100 89 97 90 100 100 100 100 100 100 100 100 100 100 97 99 100 100 100 100 100 97 95 83 76 100 98 100 86 68 58 68 90 86 76
32 34 45 60 64 67 74 78 92 86 79 87 72 98 100 99 94 93 80 100 81 97 100 100 100 100 100 98 92 100 100 100 100 100 100 98 96 99 100 97 90 90 82 61 77 89 79 74 72
38 33 37 53 62 59 67 78 89 95 81 88 99 72 94 100 87 94 95 96 92 79 94 100 100 100 100 100 100 100 100 100 100 99 100 100 93 94 65 65 62 90 87 75 66 69 73 64 56
46 35 38 36 70 59 64 66 79 75 80 85 100 99 83 99 100 100 100 100 66 65 61 68 92 100 100 99 92 85 77 70 65 68 61 58 57 76 68 70 73 66 69 91 81 72 64 77 86
45 43 34 38 46 78 55 74 75 79 84 85 89 100 99 79 93 77 100 100 98 98 61 51 51 53 59 50 54 66 61 56 50 91 98 76 64 76 65 56 68 81 76 65 59 63 85 99 100
46 52 39 37 37 72 74 71 65 69 70 85 85 81 100 100 99 92 85 73 80 100 81 75 97 83 82 84 86 75 51 63 63 55 94 96 99 100 100 88 78 74 58 62 76 92 100 100 90
55 55 45 38 40 37 55 83 86 63 58 60 68 75 76 74 93 84 88 100 100 100 100 100 89 76 100 100 77 90 91 97 98 100 100 100 100 100 100 92 92 86 86 98 100 100 100 80 61
71 58 55 45 36 39 36 47 81 73 68 46 53 57 76 85 94 76 78 74 74 84 84 81 89 81 74 76 83 98 100 100 100 100 85 94 90 82 92 97 94 100 100 100 100 93 69 68 68
77 73 67 52 43 37 36 34 48 85 72 82 62 61 55 53 59 70 82 93 100 100 100 100 100 100 98 97 95 98 92 88 92 84 86 84 90 92 88 72 83 100 100 100 83 75 80 78 55
78 84 78 63 49 41 38 34 34 52 98 76 77 82 69 72 82 79 70 68 66 63 63 68 74 79 85 86 92 93 92 83 79 82 85 69 74 80 74 63 72 100 100 96 89 94 74 76 80
83 83 89 76 59 47 45 39 37 34 52 92 98 81 76 63 54 52 54 56 54 53 56 61 62 64 66 68 66 64 64 57 52 46 41 55 73 80 78 49 75 76 75 79 77 76 78 99 100

GFSSGP_250_rhum_078.txt.gz
RH
38 30 26 26 19 19 17 14 10 8 7 7 6 8 7 7 8 16 98 100 100 100 93 34 10 40 16 17 20 24 26 31 31 32 31 27 25 23 24 27 28 29 24 27 28 27 26 22 24
31 26 27 21 19 17 14 9 7 6 10 9 10 9 9 11 16 91 100 100 100 100 100 92 46 10 20 19 20 22 26 32 36 36 28 24 21 24 28 32 30 31 35 33 33 33 30 27 22
31 28 23 21 19 14 10 7 6 12 12 11 9 8 12 94 98 100 100 100 97 100 100 97 96 75 41 14 26 22 21 26 29 27 24 27 30 32 35 34 33 37 38 38 35 32 28 28 29
32 25 26 23 17 10 9 6 13 18 28 33 24 12 100 100 83 100 100 100 100 99 95 73 58 59 66 54 15 28 30 26 26 27 28 30 32 33 36 41 38 42 40 34 32 30 31 31 32
29 27 25 18 12 9 8 10 16 99 51 51 55 42 100 100 100 100 100 100 98 99 82 81 60 33 30 27 22 17 28 34 27 26 28 30 32 31 33 36 40 39 35 33 30 28 30 28 30
32 30 22 15 11 10 12 16 39 80 97 94 100 61 100 100 96 100 99 70 81 85 94 82 98 97 98 34 25 43 25 23 32 30 30 33 29 28 28 28 31 32 30 31 28 31 30 31 39
39 27 17 12 10 11 17 19 100 63 76 100 96 92 54 100 99 100 100 57 64 95 92 65 100 100 82 100 60 28 37 39 36 34 34 28 29 28 28 26 26 29 29 34 34 36 39 49 51
34 22 14 10 12 16 15 19 92 100 100 100 98 99 49 100 100 100 100 100 100 100 100 99 100 100 100 100 80 77 53 46 38 70 67 52 46 45 41 37 32 44 52 76 86 60 75 69 93
28 17 14 13 16 14 18 19 17 100 100 98 98 83 89 79 98 100 71 69 100 100 100 100 100 100 100 100 99 100 100 100 100 100 100 100 96 86 73 71 78 89 92 81 83 84 84 99 80
28 18 15 20 16 13 16 15 15 96 100 99 100 84 76 82 60 86 98 100 100 100 100 100 100 100 100 100 100 100 100 100 100 100 100 100 100 100 97 100 98 100 100 100 100 100 100 100 91
28 22 17 27 22 14 15 26 20 40 93 100 100 100 72 99 57 81 74 100 100 100 100 100 100 94 100 100 100 100 100 100 100 100 100 100 100 100 100 100 100 100 100 100 100 94 100 100 88
30 23 21 33 30 20 17 18 23 24 69 100 100 100 85 71 45 72 100 100 94 92 100 100 100 100 100 100 99 100 100 100 100 100 90 96 100 100 100 100 100 100 100 95 97 100 82 82 76
30 23 23 35 32 27 20 21 18 39 32 82 81 72 100 66 74 100 100 100 100 100 100 100 100 100 100 100 100 100 96 100 99 100 100 100 100 100 100 100 92 100 94 95 86 100 100 86 94
32 23 26 44 46 57 62 31 84 100 100 51 59 74 98 63 39 80 97 82 100 100 100 100 100 100 99 100 100 100 100 92 100 100 100 100 100 100 100 100 100 100 100 100 95 89 92 94 100
33 25 24 48 43 90 70 92 100 100 100 55 21 78 45 42 58 34 49 65 86 100 100 100 100 100 100 100 100 100 100 100 100 100 100 100 100 100 100 100 100 100 100 100 100 100 99 100 100
36 25 24 42 55 87 100 93 91 80 74 44 22 18 41 62 93 98 56 51 64 80 95 100 98 100 100 100 100 100 100 100 100 100 100 100 100 100 100 98 99 100 97 97 97 97 99 88 68
39 29 24 43 56 54 74 99 98 97 83 60 22 18 35 51 45 51 66 68 64 58 52 50 80 100 100 100 100 100 100 100 93 98 100 100 100 100 100 100 95 99 100 100 100 100 100 99 94
40 36 24 30 58 59 53 43 78 93 37 24 20 21 19 34 63 55 35 43 46 44 46 62 100 100 100 100 100 100 100 100 86 99 100 100 100 100 100 100 100 100 100 100 100 98 93 96 100
38 41 28 28 52 59 63 63 62 52 43 30 24 30 37 60 87 33 61 56 61 90 88 88 100 100 100 91 100 100 100 100 100 100 100 100 100 100 93 99 100 100 100 100 97 96 97 87 100
42 43 33 31 42 55 63 64 74 81 59 42 39 73 98 91 100 98 93 67 86 97 99 100 100 100 100 97 80 100 95 99 100 100 100 100 100 100 100 100 100 94 89 81 77 78 90 98 94
48 43 38 31 33 52 60 62 57 71 74 71 94 76 96 97 100 99 95 100 87 78 96 100 100 100 100 93 79 99 100 100 100 100 100 100 100 100 83 100 95 97 95 87 96 98 97 87 88
51 47 38 30 38 42 59 63 63 59 60 66 100 99 100 90 100 100 95 99 97 100 100 96 100 100 100 100 100 100 100 99 87 92 100 100 100 100 100 100 100 95 88 79 100 89 60 50 42
62 52 41 34 39 34 59 60 68 67 60 59 70 82 100 99 100 96 97 80 99 94 81 88 75 97 100 100 100 100 100 100 100 100 100 96 100 100 89 84 81 100 76 66 58 64 70 58 63
69 58 51 38 34 36 38 56 62 67 65 64 59 85 100 100 93 100 100 89 69 76 74 73 59 86 96 100 100 100 100 98 97 93 92 91 87 82 71 78 56 49 52 54 59 60 71 64 57
82 60 61 39 35 35 33 37 66 64 76 73 63 60 87 100 92 88 99 100 100 100 100 96 99 62 60 62 92 100 91 91 84 66 69 68 55 64 53 67 93 97 85 79 80 80 71 77 82
100 63 74 50 48 41 35 35 45 71 80 72 84 77 59 66 100 100 94 65 70 92 100 76 61 96 85 74 99 97 91 97 97 96 84 74 90 83 78 77 95 100 76 79 79 99 100 100 100
100 67 80 57 56 49 40 35 34 40 81 90 57 63 87 65 57 61 98 99 92 81 93 95 64 77 99 100 93 52 53 64 86 98 93 88 100 100 98 100 93 80 92 81 69 83 90 91 99
100 73 94 57 56 59 45 42 32 34 43 77 73 85 66 69 68 57 54 59 65 78 68 73 86 81 73 71 67 79 85 76 97 100 99 91 90 81 70 69 76 74 74 65 47 54 72 86 82
94 84 98 67 49 55 51 47 40 36 35 36 42 72 82 71 66 73 72 71 68 64 74 74 71 71 69 72 73 71 60 58 62 57 60 66 67 66 71 69 59 49 49 44 45 60 60 54 59
65 97 100 77 50 48 55 49 48 43 42 38 34 34 45 58 66 72 72 60 62 66 77 72 65 57 57 61 68 70 68 98 72 59 61 53 53 53 49 42 39 37 36 54 77 77 65 67 74

GFSSGP_250_rhum_081.txt.gz
RH
40 27 21 20 22 21 20 19 15 12 11 9 7 6 5 6 6 5 7 48 94 95 95 95 91 92 79 68 87 99 95 43 23 27 25 27 36 43 40 29 23 20 19 18 25 29 25 23 22
28 26 28 22 19 20 19 16 14 11 8 7 6 8 8 9 6 10 18 73 92 83 100 99 86 100 100 100 100 92 47 48 51 18 23 27 31 46 45 27 18 19 21 26 31 32 34 32 24
30 31 27 23 22 20 18 14 11 8 7 14 11 10 8 9 23 92 90 100 97 98 98 100 97 100 100 100 100 91 100 41 32 28 20 26 25 30 30 29 27 31 30 31 35 40 32 30 27
32 30 26 23 24 22 16 11 9 13 15 16 13 9 10 70 100 100 100 100 90 99 97 100 77 100 100 100 100 81 93 99 71 26 20 22 24 27 28 37 43 42 38 39 42 39 32 29 31
30 29 25 25 27 19 12 9 13 19 15 33 15 18 64 100 100 99 77 97 98 100 88 100 93 100 100 94 90 78 40 90 100 74 22 21 23 25 29 32 36 35 34 37 35 34 31 30 33
29 26 27 27 20 14 9 11 18 38 46 62 32 100 100 100 100 97 92 98 73 89 89 100 100 100 100 100 85 52 76 36 58 68 38 19 24 34 33 30 29 30 30 31 31 30 28 26 26
28 30 26 21 13 10 10 13 53 66 75 55 94 100 100 100 99 99 100 100 85 100 100 83 100 100 100 96 100 99 58 50 33 51 59 48 24 25 31 34 32 30 31 30 28 28 28 30 28
33 33 24 15 13 12 13 13 74 88 54 58 100 100 100 100 100 83 100 100 100 100 100 100 100 95 100 95 100 99 89 59 71 30 34 60 54 41 37 36 38 37 42 35 33 34 42 34 46
40 31 22 16 14 16 13 13 99 100 72 31 100 89 100 100 100 88 100 100 100 98 99 93 100 100 96 100 100 100 100 82 93 85 87 100 100 93 79 71 61 72 60 73 58 66 84 89 77
52 37 20 16 17 19 12 13 29 100 99 62 58 62 99 100 100 89 100 100 100 100 100 100 100 100 100 100 100 100 100 100 100 100 100 100 100 100 100 100 100 96 98 100 98 90 100 91 100
50 30 22 17 22 22 11 16 17 100 100 80 53 72 93 98 100 98 100 100 100 100 100 98 100 100 100 100 100 100 92 95 90 100 100 100 100 100 100 100 100 99 100 98 94 100 100 100 100
54 35 28 20 22 25 14 19 21 100 100 77 63 75 92 100 100 100 100 100 100 100 97 100 100 100 100 100 100 99 89 100 100 100 100 100 100 100 100 92 100 100 100 100 100 100 100 100 98
62 38 30 23 27 33 20 18 19 100 100 81 72 67 71 100 100 96 100 100 100 100 100 94 99 100 100 100 98 97 100 100 100 100 100 89 100 100 100 100 100 100 100 100 100 100 100 89 100
62 46 33 29 28 47 26 34 20 67 100 100 99 73 73 100 100 99 89 93 79 100 100 100 100 100 100 100 100 100 100 100 100 100 100 100 99 97 100 100 100 100 100 100 98 93 91 100 100
64 57 33 37 25 63 48 57 39 60 89 99 87 84 48 57 98 100 93 86 100 100 96 100 100 100 99 100 95 100 100 100 100 100 100 100 100 100 100 100 100 100 97 100 100 100 100 100 100
85 61 33 39 27 34 72 52 56 77 86 88 100 88 100 85 89 98 100 69 86 99 100 100 100 100 100 100 97 100 95 79 100 99 84 99 100 100 100 100 100 100 100 100 100 100 99 100 91
100 80 35 43 29 26 73 90 53 54 70 80 69 84 90 74 58 81 100 100 98 98 100 100 100 100 100 100 100 98 100 85 84 90 91 97 100 100 95 98 100 100 100 100 100 100 96 97 92
100 95 53 36 35 27 31 54 67 97 77 27 38 35 20 20 80 65 81 88 100 100 100 100 100 100 100 100 100 100 100 100 100 87 92 90 100 100 100 90 100 96 93 84 93 97 94 99 100
100 100 80 37 37 28 31 38 51 56 72 58 26 20 18 18 64 76 79 54 84 94 86 72 78 100 100 100 100 100 100 100 100 100 100 100 100 94 90 88 84 92 100 86 79 86 81 100 99
98 100 92 39 38 29 29 36 53 51 54 34 20 20 18 18 34 60 56 58 45 57 59 55 54 80 100 99 88 83 99 96 100 100 100 99 100 100 100 98 97 100 100 100 100 100 92 94 100
89 100 99 44 43 34 33 32 48 46 55 48 24 24 23 20 25 44 55 36 39 43 49 54 54 53 50 67 63 85 99 100 100 100 89 92 99 86 87 78 87 95 96 92 98 100 100 100 100
79 100 100 54 49 37 33 32 42 59 60 58 52 27 28 33 52 47 60 58 44 49 47 35 34 36 60 60 83 83 90 97 92 85 93 94 99 99 100 100 100 100 100 100 100 100 100 94 89
51 100 100 62 51 40 34 34 40 41 53 56 60 62 36 29 59 92 100 92 71 79 73 78 76 79 100 100 100 98 100 100 100 100 100 100 100 100 100 100 100 100 100 100 100 99 89 79 60
44 100 100 65 55 51 32 35 38 46 53 68 58 70 85 78 64 67 90 84 92 92 95 100 100 100 84 90 94 92 100 100 100 100 100 100 100 100 100 100 100 99 95 83 76 66 58 57 46
59 100 100 77 56 61 33 33 39 33 46 51 73 83 82 91 100 81 60 76 80 84 70 96 100 100 90 84 68 68 86 100 100 100 100 98 98 100 97 98 86 77 67 67 74 63 71 80 71
62 100 100 82 55 69 39 28 38 35 31 40 43 58 61 62 94 96 90 80 74 83 100 100 100 99 78 77 83 65 54 60 75 82 79 80 77 77 83 86 80 63 51 43 54 90 98 83 77
100 100 100 99 71 64 56 40 35 34 35 32 32 48 46 60 71 60 87 90 98 87 67 81 95 100 100 100 84 63 65 100 75 63 59 81 75 60 60 52 48 51 80 76 76 77 66 70 58
100 100 100 100 79 65 65 49 42 40 36 32 32 46 50 41 45 64 62 63 75 87 71 57 64 72 82 92 92 69 53 49 63 70 78 90 93 99 98 90 73 70 57 56 63 66 55 45 42
100 100 100 100 68 61 62 59 50 43 44 38 34 37 36 43 42 42 53 81 64 88 91 78 72 74 75 73 88 82 68 72 83 80 79 90 92 87 80 60 54 52 53 53 43 50 47 49 68
100 100 72 100 84 67 61 53 60 52 49 48 42 35 36 34 36 33 33 44 63 64 82 91 94 88 92 84 88 89 80 54 75 89 99 99 93 86 67 55 60 59 51 51 40 46 57 72 90

GFSSGP_250_rhum_084.txt.gz
RH
63 67 52 41 31 20 16 14 17 16 15 14 14 11 10 9 8 7 6 7 8 10 21 32 38 40 70 81 78 93 38 16 33 33 36 25 23 41 44 42 41 47 48 58 37 22 22 20 19
72 60 45 29 25 19 19 17 18 14 13 12 10 8 7 7 6 6 5 7 8 16 15 46 94 100 100 100 100 100 100 78 100 100 100 89 77 46 26 41 43 34 31 32 38 31 24 19 23
59 44 28 24 19 20 18 17 17 14 12 10 8 8 7 7 10 8 8 10 8 13 46 85 88 91 100 100 100 82 83 100 100 97 98 100 67 75 88 36 37 32 27 26 30 32 32 37 37
46 36 23 19 20 20 19 18 14 12 9 8 8 11 12 10 11 12 12 10 10 47 70 83 100 100 90 74 91 100 100 100 100 68 58 81 72 40 66 76 31 28 29 27 31 36 38 37 44
35 28 20 20 23 20 18 15 13 10 10 12 18 23 12 16 38 94 70 36 87 100 90 64 79 73 99 100 100 100 100 100 100 51 34 56 86 66 43 49 28 25 28 32 33 31 32 32 39
32 27 21 24 22 20 16 13 11 12 12 27 46 24 46 100 100 100 100 100 84 99 92 100 97 100 99 94 100 100 100 100 100 79 40 33 43 86 77 34 25 22 22 24 27 28 29 29 32
27 24 23 24 23 19 15 11 14 19 44 71 70 20 100 100 95 90 86 72 76 100 91 100 100 100 80 98 100 100 100 100 93 68 46 44 35 49 68 59 31 22 24 32 38 37 33 30 30
27 25 27 24 20 16 12 14 15 45 63 94 69 31 100 100 73 76 100 100 100 96 100 100 100 100 97 100 93 100 94 100 100 69 53 46 34 44 52 69 59 39 28 26 35 41 36 35 34
28 27 26 25 18 15 14 17 13 74 67 72 93 67 100 100 99 92 97 100 100 100 100 100 100 100 99 100 100 100 100 100 91 56 47 73 68 56 40 59 69 60 57 54 51 50 67 79 63
27 33 39 23 21 18 18 18 13 73 79 88 100 97 100 100 100 71 100 100 100 100 100 100 100 98 100 100 99 100 100 100 97 92 86 66 84 80 79 80 88 86 96 100 100 100 97 76 74
44 50 52 30 25 20 19 23 16 100 96 94 100 99 100 100 85 97 100 100 100 100 100 100 100 100 100 100 100 100 100 100 97 99 78 100 84 99 98 81 68 83 85 99 89 81 69 89 95
93 84 56 36 28 25 18 30 19 100 100 82 100 98 94 100 100 100 100 100 100 100 100 100 100 100 100 100 100 100 100 100 88 87 96 99 91 100 96 77 71 81 86 81 82 82 93 100 100
79 97 55 54 30 30 22 42 21 35 100 60 100 94 86 94 100 100 100 100 100 92 100 100 100 100 100 100 100 98 99 100 100 100 96 96 73 100 94 59 54 83 93 97 78 81 90 86 99
61 83 67 67 41 32 27 49 54 19 100 92 68 99 86 90 88 85 100 100 100 99 100 100 100 100 100 100 100 100 100 100 100 100 88 91 91 84 79 63 63 62 73 97 100 93 86 95 78
40 56 76 74 56 32 30 33 51 44 100 96 58 100 86 78 92 84 94 100 100 100 100 100 94 100 100 100 100 100 100 100 100 100 86 82 97 100 100 96 99 91 96 96 99 100 100 100 100
38 95 79 84 74 39 33 29 50 46 86 100 54 72 82 94 74 82 90 100 88 100 98 90 99 98 100 100 100 100 100 100 100 100 99 73 79 96 100 100 100 100 78 78 83 90 95 100 100
36 69 100 92 77 53 38 31 37 40 38 100 60 44 56 67 83 62 86 90 100 94 100 100 92 100 100 100 98 100 100 100 100 93 95 96 95 89 81 87 100 96 92 97 99 94 98 100 100
41 38 80 100 81 63 38 32 30 38 37 41 88 67 39 35 69 75 89 100 100 100 100 100 99 91 100 100 100 100 100 86 65 77 84 96 86 84 80 59 58 66 78 82 83 95 96 90 81
58 33 59 100 89 70 42 38 28 41 44 39 47 52 84 53 38 38 60 100 100 100 100 100 100 100 87 79 81 81 82 75 100 100 100 95 100 100 97 79 72 65 68 68 100 100 100 83 74
68 44 56 100 100 82 50 41 33 35 36 37 31 26 41 60 58 48 42 75 100 100 100 100 100 100 100 92 100 100 100 100 90 100 100 100 100 100 100 100 100 100 99 78 96 96 82 72 71
52 47 64 100 100 91 53 40 33 34 39 41 43 26 19 16 16 21 31 31 41 84 100 100 100 100 100 100 100 100 100 97 100 100 100 100 100 100 100 89 97 100 100 91 87 86 87 100 100
40 39 62 84 100 96 57 40 35 34 45 42 44 47 34 22 18 19 24 48 26 64 99 100 100 100 100 100 100 99 80 77 79 94 100 100 100 87 91 98 99 100 100 100 100 100 100 100 100
44 42 58 60 100 96 74 47 34 34 42 42 45 52 60 31 23 25 25 51 58 82 96 91 82 86 83 83 78 75 74 69 76 82 100 100 100 100 100 100 100 100 98 100 94 75 98 100 100
37 60 44 56 100 100 90 52 40 32 44 48 40 41 50 59 29 33 32 26 52 75 75 64 37 34 50 52 63 73 74 88 96 100 100 100 100 100 100 100 100 100 100 100 100 100 99 99 95
37 99 46 68 82 100 96 57 44 33 37 55 58 41 40 46 57 44 32 40 32 31 31 34 38 51 64 62 63 61 59 75 99 95 93 82 93 100 100 100 100 92 85 84 84 84 86 81 71
40 99 55 95 48 100 94 64 43 33 33 36 39 70 44 37 49 50 42 29 52 63 75 76 65 68 74 74 64 62 63 75 73 65 63 50 56 67 84 88 90 85 75 75 66 61 55 74 77
40 87 78 73 63 100 94 78 45 39 34 33 34 69 71 53 39 38 49 64 81 47 58 71 72 82 74 100 100 80 66 72 61 62 54 56 61 63 62 74 72 63 65 72 68 73 78 84 74
42 79 77 50 89 100 100 100 49 36 39 38 36 36 41 59 73 59 52 44 50 55 62 72 72 59 65 78 82 88 98 93 83 80 68 69 68 72 77 88 83 70 66 68 67 65 71 58 66
44 61 78 44 86 100 100 100 62 38 42 42 41 36 32 35 39 36 35 44 47 49 63 58 66 71 66 59 55 57 57 60 58 60 65 71 84 94 100 100 92 83 64 66 62 57 74 87 78
58 48 90 41 85 100 100 100 72 53 42 35 44 50 42 34 34 44 45 41 34 33 53 58 63 82 100 73 69 60 50 51 51 82 100 100 98 100 100 100 100 79 71 95 90 100 100 97 95

GFSSGP_250_rhum_087.txt.gz
RH
45 55 60 43 41 41 46 34 18 14 13 12 12 13 12 12 12 12 12 12 16 12 10 13 19 24 58 36 30 58 59 98 64 79 73 30 47 45 33 63 55 97 100 100 100 100 96 67 79
64 69 69 46 46 42 29 20 17 15 14 13 12 13 13 12 11 10 9 8 8 8 9 11 16 19 20 20 36 84 100 100 92 68 41 27 38 39 49 59 89 100 100 100 81 48 52 55 58
74 73 57 48 34 27 24 17 17 16 15 13 13 10 9 8 7 7 6 7 6 12 9 9 12 16 20 24 90 100 100 87 72 86 97 98 100 100 100 99 100 98 73 56 49 45 47 39 40
78 58 46 28 23 23 20 18 17 17 17 14 9 8 9 7 10 9 10 9 13 28 53 31 9 13 52 100 100 100 83 100 84 95 100 100 100 100 89 68 78 85 81 56 97 100 56 41 38
72 55 34 25 24 21 21 22 20 18 14 11 9 12 15 25 29 16 12 10 20 31 39 40 40 85 100 88 100 100 99 100 100 98 89 100 86 48 38 31 27 45 76 51 67 98 80 40 31
39 36 32 26 23 21 25 23 17 13 12 10 12 23 37 87 40 13 18 11 10 25 35 87 100 95 87 79 88 100 100 100 100 100 92 87 93 75 67 45 33 30 57 56 61 76 58 32 27
41 34 28 24 25 25 24 19 14 13 12 12 26 96 90 98 45 49 51 18 11 21 78 100 100 77 82 75 100 100 100 100 100 100 97 100 99 79 55 49 26 31 46 72 43 33 30 26 26
38 31 25 25 24 26 22 18 14 15 14 17 83 100 100 100 99 89 62 100 100 100 98 100 87 100 83 100 100 100 100 100 100 100 100 100 81 75 48 34 35 39 37 40 43 29 27 22 22
31 30 28 28 30 25 19 20 16 19 16 40 100 100 100 100 100 100 100 100 100 100 96 100 100 63 76 82 100 100 100 100 99 100 95 83 66 48 41 32 30 28 37 36 32 42 49 50 50
35 29 29 36 28 28 21 24 20 27 19 70 100 100 100 100 100 100 100 100 100 100 100 100 100 56 97 97 100 97 96 100 98 100 100 79 78 58 51 44 28 19 22 34 34 51 68 100 88
33 34 47 43 32 42 32 26 22 40 26 64 100 100 100 99 100 100 100 100 100 100 100 97 100 84 98 100 100 100 100 100 99 100 100 100 79 60 48 38 29 24 19 36 42 38 47 60 69
31 37 37 53 36 52 43 27 26 31 46 64 100 100 100 100 100 100 100 100 100 100 100 100 100 100 100 100 100 100 99 100 100 100 100 100 90 71 54 46 45 33 37 32 48 47 37 41 44
26 36 44 42 42 56 60 26 28 24 55 79 100 100 100 81 100 100 100 100 100 91 100 100 100 99 100 100 100 100 100 100 100 100 100 100 100 100 80 57 53 42 48 52 59 53 37 41 51
27 29 40 68 51 60 69 34 28 26 37 77 94 100 100 96 93 100 91 90 100 100 100 100 100 100 100 100 100 100 100 100 100 100 100 100 100 86 83 63 61 46 70 58 53 47 44 58 63
56 28 33 56 66 62 73 48 29 29 33 58 66 100 100 100 100 100 99 84 100 100 100 100 100 98 100 100 100 100 100 100 100 100 100 100 100 76 71 70 56 50 60 62 67 75 56 57 60
87 48 26 51 55 54 72 62 30 35 28 43 78 72 100 98 87 100 100 100 83 100 100 100 100 100 100 100 100 100 100 100 100 100 98 100 100 99 100 94 58 66 79 100 100 97 99 93 88
47 65 30 47 57 46 75 68 32 34 26 33 68 85 81 100 99 100 100 100 94 100 100 100 100 100 94 100 100 100 100 100 89 78 100 83 90 97 100 100 100 100 100 82 76 68 57 67 81
77 57 48 36 56 54 74 78 43 37 28 28 40 52 59 60 91 89 100 100 100 100 100 100 100 100 100 89 100 100 100 100 98 100 100 100 100 100 100 98 88 67 88 80 98 98 95 99 90
72 64 30 37 44 69 78 83 57 36 32 27 36 39 82 90 66 81 95 100 100 100 100 100 100 100 100 100 85 100 100 100 100 100 100 100 88 84 64 100 88 97 90 100 100 100 100 100 100
72 55 39 41 31 68 70 97 73 38 39 29 37 38 32 51 63 66 79 97 91 88 84 100 100 100 100 98 100 100 100 100 99 100 100 83 86 91 98 86 98 99 100 100 100 100 100 100 100
76 60 40 62 35 42 58 96 86 47 45 31 36 37 33 33 50 48 57 80 89 92 81 92 95 100 100 100 100 100 100 100 100 100 100 100 100 100 100 100 100 100 98 100 100 100 100 98 81
98 90 83 68 48 41 52 100 89 55 51 36 32 38 39 27 39 41 37 46 51 76 76 82 93 97 100 100 100 100 100 100 100 100 100 100 100 100 100 87 97 89 92 100 94 85 96 99 88
100 37 39 40 35 39 36 94 88 64 47 42 32 40 36 42 18 24 24 28 36 48 55 69 82 100 100 87 100 100 100 100 100 100 100 100 100 90 87 83 85 99 100 93 91 100 100 100 100
73 45 62 50 40 38 31 84 62 79 56 46 32 30 43 38 41 19 20 18 16 19 24 31 47 75 94 88 100 100 100 100 100 100 97 97 84 92 88 100 100 100 100 100 100 100 100 100 100
88 78 48 46 49 39 36 68 48 87 67 52 35 28 33 47 46 46 30 23 21 25 30 48 42 38 46 66 100 92 86 79 72 76 78 77 81 84 100 91 76 65 58 63 72 76 84 79 80
86 60 50 56 44 43 58 72 63 96 76 56 39 32 25 44 56 53 50 49 35 59 81 82 80 91 98 100 88 75 66 55 51 49 60 64 73 70 67 63 58 51 54 60 62 64 67 67 76
94 59 72 54 47 45 69 51 95 100 77 58 42 36 31 37 44 43 50 46 48 34 46 72 87 70 58 56 55 52 55 51 40 49 70 66 47 52 58 68 72 78 74 71 66 64 59 63 64
74 80 69 69 55 48 71 41 100 100 82 69 46 44 35 34 35 35 41 51 46 47 43 32 32 38 38 41 46 47 40 35 41 73 78 71 75 70 65 60 52 66 63 47 42 35 38 35 48
98 80 61 96 69 49 74 44 100 100 88 76 50 48 45 39 34 32 34 33 50 49 42 42 39 38 43 43 36 39 36 41 50 50 50 52 52 53 55 57 51 59 63 100 77 47 51 67 73
100 86 65 50 65 49 71 46 63 100 100 84 48 44 47 51 41 34 31 28 33 34 39 52 52 46 42 39 37 39 51 51 53 64 61 58 51 59 58 81 99 100 100 85 72 99 98 100 100

GFSSGP_250_rhum_090.txt.gz
RH
44 43 48 50 57 57 49 37 27 18 15 14 12 12 8 8 8 10 10 9 9 9 10 14 12 18 19 20 24 33 68 100 100 85 81 64 58 42 29 26 59 68 100 99 98 99 96 96 100
59 70 68 74 82 64 45 32 19 15 16 14 12 10 10 9 9 11 10 8 9 9 10 10 14 28 31 21 22 39 51 84 100 59 70 74 87 53 83 78 92 93 98 100 100 100 100 97 76
76 71 80 74 74 53 35 28 20 21 17 14 11 11 11 11 12 10 8 8 7 7 10 10 8 14 33 23 22 25 35 99 58 100 100 100 100 100 100 78 62 90 84 74 79 83 71 78 95
85 76 73 82 57 30 31 26 22 18 17 14 14 12 12 11 9 8 8 7 7 30 13 31 24 14 11 16 22 21 31 50 100 100 100 100 100 100 100 100 100 100 93 70 67 77 82 98 100
88 70 51 26 30 33 28 22 20 22 19 17 16 12 10 10 10 12 19 16 16 35 76 45 98 90 11 12 16 18 29 100 100 100 99 97 100 100 100 100 88 65 52 45 37 27 26 41 72
66 63 33 40 35 26 22 21 25 27 22 17 12 10 12 20 38 54 63 34 16 27 87 100 100 87 67 27 17 24 80 100 100 100 100 100 96 68 81 85 66 59 50 37 27 22 23 48 60
36 37 46 36 22 21 24 29 32 26 20 13 11 12 34 94 82 100 83 42 26 20 73 87 100 100 24 12 30 97 100 100 100 100 100 100 100 100 90 92 88 61 39 26 26 28 32 34 42
52 48 40 29 29 25 35 36 32 25 16 14 15 16 69 100 100 100 100 88 26 25 76 75 100 87 16 60 92 100 100 100 96 100 100 60 46 61 79 59 39 33 30 22 19 18 31 34 29
50 34 26 28 34 35 32 42 41 28 16 19 17 33 94 100 100 98 100 100 30 38 65 100 92 96 100 100 99 96 96 76 66 91 96 66 100 100 96 71 51 47 37 30 20 15 23 20 29
36 29 25 26 34 32 29 42 42 32 18 31 20 46 100 100 100 100 100 100 81 61 92 100 100 100 100 97 96 64 92 79 91 89 100 97 69 87 55 51 54 45 36 30 23 18 19 18 24
44 36 26 24 34 37 42 47 46 40 21 35 24 61 100 100 100 100 100 100 99 100 100 100 100 100 100 98 84 99 100 100 100 80 100 100 94 88 79 55 60 47 36 29 24 31 21 21 25
70 67 37 28 26 40 67 53 53 52 30 24 30 70 100 100 100 100 100 100 100 100 100 100 100 100 99 100 100 80 100 100 100 100 66 76 96 100 83 67 65 52 43 33 34 31 30 29 30
56 49 42 41 33 41 60 59 57 57 38 20 44 71 99 100 100 100 100 100 100 100 100 100 100 100 100 100 100 100 100 100 100 100 100 100 100 85 100 86 74 81 64 52 41 40 41 42 43
37 32 33 33 46 31 50 50 62 70 47 22 27 48 84 100 100 100 100 100 100 100 100 100 100 100 100 99 85 100 100 100 100 94 100 100 100 100 100 93 100 99 82 67 42 53 48 54 65
33 44 43 34 39 40 50 46 80 82 52 21 26 34 77 100 99 100 100 100 100 100 100 100 100 99 100 83 99 100 100 100 100 100 100 100 100 99 100 100 100 99 73 69 70 76 89 57 52
39 43 46 37 36 40 48 52 68 83 59 27 25 34 50 85 92 100 100 100 100 100 100 100 78 100 100 97 100 100 100 100 100 100 100 100 88 100 100 100 100 97 86 82 80 86 69 69 74
50 47 46 36 45 33 38 49 55 79 68 39 26 30 36 65 80 100 100 100 100 100 100 100 98 94 100 100 100 100 100 100 100 100 100 100 100 96 100 96 98 100 100 88 74 73 92 71 99
71 51 40 29 36 31 40 45 56 71 78 56 26 28 34 43 82 88 100 100 100 95 93 100 100 100 100 100 100 100 95 100 100 100 100 100 92 93 100 96 100 100 86 73 86 96 100 100 100
78 71 55 41 25 37 32 56 43 50 82 66 32 29 30 35 42 79 95 100 100 100 98 100 100 100 100 100 100 100 100 100 100 100 100 88 90 100 100 100 100 82 59 68 92 100 100 99 99
94 74 71 54 42 61 47 36 40 44 68 78 43 29 29 34 31 58 75 93 100 100 100 90 100 100 100 100 100 96 95 100 100 100 100 100 96 98 100 100 97 91 79 100 100 100 96 99 98
100 85 58 48 51 84 47 35 36 33 44 91 46 29 33 33 39 31 54 77 92 100 100 100 100 100 100 100 100 100 100 90 100 100 100 96 85 97 100 78 80 100 100 100 100 100 100 99 100
100 81 68 58 79 71 53 41 48 39 42 92 54 30 38 31 38 38 27 47 66 91 100 100 100 100 100 100 99 97 100 100 100 100 100 100 100 99 100 100 100 98 100 100 100 100 100 100 100
100 84 88 57 70 66 80 47 46 36 48 93 59 34 42 34 33 48 36 35 42 62 87 100 100 100 100 100 100 100 100 100 100 94 100 100 100 100 100 100 100 100 100 100 100 100 100 99 96
100 90 99 49 63 84 63 54 55 44 77 98 62 36 42 35 35 42 42 30 33 39 65 81 94 100 100 100 99 100 100 100 100 100 100 100 100 100 100 100 99 98 98 99 100 92 79 76 77
100 100 55 56 94 100 58 56 57 46 98 100 54 40 44 37 39 49 54 41 30 24 29 40 56 81 87 86 92 93 97 100 100 100 100 100 100 100 98 94 90 88 79 76 76 78 86 93 93
87 79 66 84 100 88 65 76 66 49 100 100 54 46 43 38 42 51 53 60 48 25 21 25 28 33 36 38 55 67 69 90 100 100 100 100 100 92 87 79 73 63 54 55 74 76 79 70 60
97 97 99 78 88 76 74 75 79 62 93 100 64 49 43 46 33 37 53 42 49 52 34 28 28 29 49 39 50 70 87 93 100 96 94 80 73 73 68 61 50 57 57 63 75 63 52 42 38
100 100 100 90 92 99 97 83 90 60 89 100 98 53 42 49 36 34 37 45 48 44 44 37 35 38 27 24 31 52 60 71 70 68 63 56 48 46 38 38 43 54 66 65 56 60 48 67 74
100 100 100 97 99 86 72 79 100 64 81 100 100 67 43 47 41 35 34 38 40 35 41 44 46 53 48 42 36 37 39 41 45 47 46 51 57 55 57 49 50 72 80 86 90 100 100 100 100
100 100 100 71 59 85 93 75 88 57 78 100 100 92 55 46 42 36 40 36 34 35 34 33 45 45 46 51 52 51 53 54 62 68 67 62 52 48 44 58 77 76 78 99 97 100 100 100 100

GFSSGP_250_rhum_093.txt.gz
RH
20 28 33 40 35 44 43 44 41 32 23 17 18 16 14 10 9 9 7 7 8 7 7 7 10 11 12 14 19 26 63 77 74 42 61 45 100 100 78 48 62 86 65 49 57 54 41 59 82
19 27 49 68 65 64 49 32 24 20 19 20 20 18 13 10 9 8 7 8 8 8 8 8 9 10 11 13 20 26 29 30 43 63 98 84 96 100 100 90 84 82 62 55 64 80 70 87 81
17 19 31 85 99 74 60 51 31 24 26 24 18 15 11 11 11 10 8 8 8 9 9 9 9 12 9 12 14 30 29 26 40 76 99 73 51 96 89 72 82 79 69 98 88 100 100 100 96
17 17 30 56 87 70 59 36 28 25 19 16 18 15 14 11 11 9 8 8 8 8 45 74 52 26 10 11 13 26 39 32 38 38 37 48 100 100 100 100 100 100 100 100 100 96 58 61 62
20 23 24 29 45 45 39 34 21 18 19 24 22 19 14 12 10 9 9 10 8 21 69 98 93 60 59 32 16 16 33 47 33 30 49 100 100 100 100 100 100 100 100 81 66 55 35 34 32
27 28 39 50 49 40 32 23 19 21 30 36 31 20 14 13 11 16 29 33 20 32 100 100 90 100 100 96 83 28 16 44 27 30 100 100 100 100 100 100 100 95 74 60 54 36 23 25 25
50 44 50 57 44 26 23 23 22 24 38 38 33 18 14 16 17 54 64 65 36 33 42 93 100 100 100 100 69 67 15 20 23 38 100 100 100 100 100 100 99 94 72 62 28 19 18 24 26
68 59 46 38 32 24 21 24 23 24 41 47 32 18 19 27 54 92 100 87 73 66 73 96 100 100 100 86 100 66 22 18 32 91 100 100 97 100 100 100 99 93 63 29 25 23 18 16 20
61 45 38 36 32 26 25 27 26 31 48 51 30 17 20 35 100 80 100 100 100 75 100 96 100 100 94 99 80 96 87 57 100 100 100 100 100 100 100 100 96 69 30 35 37 21 17 17 17
45 42 49 64 43 32 28 29 34 43 47 47 34 22 23 60 100 91 100 100 100 64 100 100 100 78 99 97 52 99 89 94 100 100 100 100 100 87 72 75 54 42 35 42 34 25 21 19 17
52 54 41 34 39 31 29 34 33 39 42 57 46 26 30 62 100 100 100 100 100 80 98 100 100 100 89 40 71 100 100 100 100 100 93 75 49 55 68 54 44 46 53 40 37 34 28 25 22
37 57 45 36 29 30 33 34 40 34 39 62 56 30 26 48 100 100 100 100 100 100 100 100 100 100 71 69 100 100 100 100 100 100 51 34 41 99 87 63 72 52 62 58 49 36 32 37 28
46 71 40 31 30 31 37 37 46 42 39 54 64 33 25 47 70 100 100 100 100 100 100 100 100 100 100 100 98 100 100 100 99 100 89 68 82 100 100 68 65 69 57 71 60 42 42 47 48
38 41 44 38 36 36 38 34 43 44 44 46 78 44 24 33 61 96 100 100 100 100 100 100 100 100 100 99 78 98 97 100 81 68 78 76 94 100 100 76 61 80 86 80 58 61 79 78 74
52 47 51 53 47 32 37 34 53 48 45 44 81 55 30 28 53 70 99 100 100 100 100 100 99 100 100 100 100 91 92 80 97 100 99 56 86 98 100 100 100 100 100 91 100 98 100 79 66
75 61 41 43 49 40 34 38 45 58 40 42 67 64 39 23 37 65 89 100 100 100 100 100 100 100 100 98 100 100 100 100 100 100 100 92 100 100 100 100 100 100 100 99 92 100 83 70 66
96 64 53 69 69 54 35 35 57 38 36 41 44 57 47 24 29 53 78 96 100 100 100 100 100 100 100 97 79 100 80 100 100 100 100 100 100 100 100 100 100 100 98 94 98 75 74 66 62
88 70 86 52 83 68 52 41 71 43 37 37 34 38 61 29 28 36 63 87 100 100 100 100 100 100 100 85 100 100 100 100 100 100 100 100 100 100 100 100 100 81 85 82 86 73 63 87 84
100 78 86 51 27 58 63 38 60 53 47 37 35 32 62 38 26 31 40 68 89 100 100 100 100 100 100 100 100 100 100 100 100 100 100 100 100 100 99 98 100 84 100 50 70 70 69 97 76
100 82 100 58 27 61 84 62 42 81 68 55 30 29 49 46 24 30 34 46 77 98 100 99 99 100 100 100 100 100 100 100 100 100 100 100 100 100 100 98 86 99 95 95 95 99 95 94 100
100 97 100 60 26 40 100 86 38 83 73 56 34 35 46 52 28 25 32 38 46 87 100 96 87 100 100 100 88 100 100 100 100 100 100 100 100 100 100 100 100 94 89 80 89 98 100 100 100
100 100 95 54 35 51 100 99 47 85 85 71 48 65 52 58 33 26 29 33 38 65 97 100 100 100 84 87 100 98 82 100 98 82 98 100 100 100 100 100 72 79 100 93 100 100 100 100 100
100 100 81 53 52 62 100 70 95 91 93 79 47 77 59 59 38 28 29 33 30 44 67 89 100 100 95 100 87 100 100 85 100 100 99 100 97 89 91 89 100 97 95 100 100 100 100 93 95
100 100 81 63 51 53 100 37 100 96 90 87 54 75 64 60 40 28 33 38 30 32 40 50 72 81 100 100 96 83 100 100 85 90 100 100 100 100 100 100 100 100 100 100 100 98 94 92 97
100 100 95 86 43 83 100 34 100 100 93 90 60 62 78 60 45 32 33 39 42 32 35 38 52 66 82 99 100 100 100 100 100 100 100 100 100 100 100 100 100 100 100 100 96 92 92 91 95
100 100 97 73 44 76 72 48 100 100 83 98 76 63 85 58 52 36 33 45 41 46 44 36 32 42 70 73 84 94 100 100 100 100 98 100 100 100 100 100 100 100 100 100 89 83 74 74 80
99 100 99 64 42 42 80 74 100 100 86 100 92 57 87 70 52 45 37 32 38 41 44 41 35 47 55 63 68 73 83 82 90 86 94 92 94 91 100 100 100 99 92 74 62 63 71 96 86
90 91 63 46 35 85 100 82 100 100 99 83 100 59 88 72 55 51 44 34 33 35 44 45 55 54 64 80 79 80 70 72 84 93 80 81 87 90 92 94 90 78 67 66 71 86 100 97 90
75 71 63 41 41 72 77 100 100 100 84 92 91 71 71 90 60 53 50 38 34 33 34 35 50 53 51 53 60 51 46 59 67 71 71 67 64 58 53 53 57 57 64 67 78 100 90 89 75
100 66 44 36 43 66 88 100 100 100 100 100 100 79 74 100 78 57 45 42 38 35 34 33 34 40 50 49 44 43 48 49 50 51 56 53 45 47 59 64 68 64 60 82 100 100 89 64 63

GFSSGP_250_rhum_096.txt.gz
RH
14 12 12 13 14 14 14 17 24 30 31 30 29 19 13 12 10 8 9 8 7 6 6 6 6 6 6 8 8 10 9 21 22 28 29 23 32 43 39 37 36 53 64 51 53 43 35 35 38
13 12 12 14 14 14 16 20 38 46 51 40 23 18 16 14 12 10 8 7 6 6 7 7 8 9 10 10 9 13 12 19 31 26 43 51 48 80 84 69 77 87 98 77 85 78 85 92 90
15 13 13 16 17 18 18 21 32 36 35 27 25 20 15 13 11 10 9 7 6 7 8 9 18 53 60 71 41 12 12 15 30 39 47 77 74 99 100 100 100 100 98 87 99 99 100 100 100
16 15 16 18 22 25 30 34 35 31 31 29 19 16 16 13 12 11 9 8 8 8 9 41 98 91 84 94 59 27 13 12 18 37 38 69 74 100 100 100 100 100 100 99 92 87 95 100 100
19 20 23 32 34 46 44 42 36 23 21 20 18 17 16 14 14 10 9 8 11 12 76 98 100 100 100 88 99 49 13 12 20 32 38 34 85 95 71 93 100 100 100 100 100 100 100 87 71
23 26 28 37 49 44 41 37 26 20 19 19 19 19 17 15 14 12 11 12 22 75 100 100 81 100 100 100 99 99 79 18 18 29 38 32 36 57 67 85 100 100 100 100 97 96 76 25 31
30 26 61 60 43 36 31 30 27 22 19 22 29 27 20 17 12 17 20 21 34 84 100 100 99 100 99 99 83 100 100 97 17 31 40 27 33 66 100 100 100 100 90 79 83 47 44 40 23
42 30 39 45 39 43 39 32 26 23 21 27 40 36 21 14 16 27 37 30 44 100 100 100 100 100 100 100 97 82 96 97 60 29 41 43 100 100 100 100 99 75 70 82 65 37 22 20 18
54 37 40 47 46 40 30 36 27 27 25 27 38 40 23 15 37 41 70 31 53 100 100 100 100 98 100 94 91 99 77 70 96 26 36 100 100 100 100 100 88 100 100 86 54 43 30 21 16
70 47 34 35 45 40 35 31 28 29 35 28 30 40 27 17 44 71 90 53 53 75 100 100 100 100 100 100 97 79 100 72 62 26 33 66 93 100 100 95 100 100 100 71 40 37 32 23 22
84 70 40 29 33 46 31 29 25 26 39 33 40 44 29 24 25 79 82 99 75 53 86 100 100 100 100 93 96 72 72 66 65 67 83 100 100 100 93 100 100 100 65 41 38 40 33 30 27
100 80 60 41 33 50 34 31 34 33 41 40 44 46 35 27 25 60 83 100 86 100 46 81 100 100 100 100 76 93 77 87 100 100 100 100 100 100 100 100 100 59 34 40 42 44 39 36 34
100 82 76 53 38 37 42 33 33 34 55 45 37 41 40 31 28 29 99 100 100 97 91 85 100 100 100 100 87 99 70 98 100 100 100 100 100 100 80 94 66 48 38 43 58 66 64 48 43
100 100 89 68 49 40 46 30 35 44 47 34 37 40 46 43 30 26 95 100 100 100 100 96 98 100 100 98 86 72 94 100 100 100 100 100 83 74 51 47 78 77 50 43 83 73 76 69 66
100 100 98 81 63 52 47 30 44 36 43 40 32 35 36 39 32 23 48 100 100 100 100 100 100 100 100 100 100 100 100 100 100 100 100 68 74 58 53 72 59 70 79 59 61 60 99 86 67
100 100 100 92 68 69 60 41 56 47 49 51 46 38 33 37 31 22 32 99 100 100 100 96 92 100 100 100 100 100 100 99 100 100 82 72 67 73 79 100 96 96 93 100 89 100 99 80 47
100 100 100 89 95 75 71 63 47 42 49 52 68 44 29 29 32 22 28 56 100 100 98 100 100 100 100 100 100 100 78 90 100 100 100 94 85 90 82 86 86 82 100 100 100 98 96 72 94
100 99 100 100 100 83 72 71 27 44 56 51 70 57 38 27 35 24 24 34 100 100 94 100 100 100 100 100 93 95 100 86 93 99 100 92 89 100 97 98 96 100 100 100 100 86 75 88 65
100 100 100 100 100 87 69 80 54 34 88 63 53 70 44 37 42 24 26 29 65 100 100 100 98 100 100 100 91 91 100 100 100 100 93 100 100 100 100 100 100 100 100 100 94 90 93 74 100
100 100 100 100 78 78 60 82 95 32 81 73 49 77 48 44 49 28 26 25 32 82 100 92 100 83 92 99 98 100 92 100 100 100 100 100 100 100 100 100 100 100 91 100 99 100 99 100 68
100 100 100 100 88 67 74 79 100 43 87 75 59 80 53 43 66 34 27 24 30 34 82 100 100 93 78 95 87 100 100 100 99 98 96 100 100 100 100 98 100 100 100 97 100 99 89 100 79
100 100 100 100 96 76 59 81 100 50 78 88 60 72 65 44 76 41 28 25 31 32 46 81 100 97 100 97 75 100 100 100 100 100 100 100 100 94 100 100 94 100 70 70 72 99 87 51 78
99 100 100 100 100 83 48 72 100 73 52 100 65 78 73 45 80 57 32 26 35 34 34 52 100 85 99 100 100 76 73 88 91 99 100 100 100 100 100 100 100 100 100 100 100 98 100 100 100
100 90 91 100 100 56 85 90 100 95 45 100 78 90 80 46 70 76 38 27 40 39 34 42 73 100 80 100 100 100 100 100 94 74 71 64 63 68 68 69 85 66 62 83 93 100 100 100 100
100 100 100 100 74 80 100 98 100 98 45 100 72 96 85 60 64 85 45 30 30 44 37 44 66 94 100 99 100 100 96 100 100 100 100 100 100 100 100 100 100 100 100 100 100 100 100 100 100
85 100 100 100 83 92 100 76 83 99 98 79 87 98 80 81 53 85 54 33 31 36 42 33 58 76 83 99 100 100 100 100 84 92 100 100 100 100 100 100 100 100 100 100 100 100 100 100 100
100 94 100 88 61 63 100 75 77 100 100 81 93 100 71 78 51 80 75 37 33 32 39 42 40 41 60 76 87 100 100 100 100 100 86 96 100 100 100 100 100 100 100 100 100 100 100 98 90
100 100 100 91 100 89 96 82 63 100 100 77 93 93 73 77 57 54 97 47 43 34 34 42 39 37 30 50 76 94 92 100 100 100 100 100 100 100 100 100 100 100 100 100 100 96 98 85 75
100 100 100 100 97 98 99 100 77 100 100 98 87 89 80 94 63 55 76 68 51 40 34 32 36 41 39 40 66 91 92 100 100 100 100 100 100 100 100 95 95 92 90 80 66 62 70 69 67
100 93 76 82 80 82 96 95 70 57 100 100 51 82 95 100 69 52 49 80 53 51 43 34 31 32 38 43 59 56 65 69 73 68 63 79 89 84 78 71 67 56 53 61 71 65 56 63 71

GFSSGP_250_rhum_099.txt.gz
RH
21 20 16 13 11 10 9 10 10 11 12 13 14 20 20 19 16 10 8 8 7 7 6 6 6 6 8 13 8 9 11 10 9 10 11 11 12 18 23 28 34 32 33 31 28 28 38 43 43
28 25 20 16 12 12 11 12 13 14 15 18 20 22 21 19 16 14 11 9 8 7 6 6 7 7 9 10 19 14 13 12 11 10 10 11 13 14 16 20 26 31 34 40 41 38 51 62 100
31 31 25 17 15 14 14 16 18 20 20 25 26 26 26 22 20 16 12 10 8 7 7 8 9 17 36 83 66 56 56 44 16 11 16 14 22 24 27 34 37 54 67 75 56 60 76 90 83
36 40 26 20 21 32 26 28 32 34 36 37 28 20 18 18 16 14 12 10 8 8 8 12 26 52 70 56 66 69 52 42 34 18 18 18 31 39 60 78 91 94 90 100 100 96 75 100 99
45 50 29 24 22 25 33 32 30 26 29 28 24 20 17 16 15 15 12 10 10 10 17 41 53 78 46 90 98 85 80 85 64 22 15 21 45 66 91 100 100 100 100 100 100 93 67 98 100
60 69 40 36 28 24 33 32 27 23 25 25 21 18 18 21 20 16 12 11 12 20 81 55 76 69 71 61 100 100 98 100 69 30 13 18 33 79 86 100 100 100 100 100 100 100 100 100 99
47 78 88 44 39 27 38 37 35 29 29 24 21 19 22 26 23 18 13 16 27 41 83 96 78 55 62 100 100 100 100 100 93 91 19 17 27 76 56 100 100 100 100 100 97 100 100 97 87
36 50 100 86 55 29 32 34 36 32 28 24 20 21 24 24 25 22 19 33 46 68 100 100 98 45 69 100 100 100 100 89 99 98 42 20 38 43 46 100 100 68 100 100 100 100 83 99 44
29 37 66 100 66 42 29 25 39 30 27 23 22 25 23 22 29 25 18 56 50 91 77 100 89 66 81 88 100 100 98 77 47 65 97 25 38 36 39 75 97 98 100 96 66 88 81 34 26
32 35 55 100 87 58 43 32 32 35 34 28 35 39 31 26 26 25 16 74 62 95 96 100 100 100 93 100 100 100 94 100 100 97 90 86 43 36 86 100 100 100 100 90 93 81 62 40 27
34 36 47 78 100 76 61 41 36 32 40 30 44 36 27 28 26 27 19 55 69 100 100 100 100 100 100 100 100 98 93 100 100 100 72 76 56 100 100 100 100 100 100 100 100 93 65 50 34
38 44 39 67 100 87 68 51 40 31 43 37 41 35 28 29 29 28 21 45 82 100 100 100 100 100 100 100 100 100 93 94 100 100 97 67 80 100 100 100 100 100 100 87 99 63 52 39 25
47 58 54 60 100 100 87 60 43 36 37 40 44 35 31 30 28 28 24 39 72 97 100 100 100 100 97 92 100 100 98 100 100 100 88 34 83 97 100 100 100 100 100 89 60 54 50 34 37
46 42 72 71 99 100 100 76 41 45 34 37 44 54 39 29 28 26 28 41 73 77 98 94 100 100 100 96 100 74 73 91 100 100 69 92 97 100 73 100 100 97 98 64 60 49 45 57 54
41 36 92 87 92 100 100 96 44 59 40 44 44 56 51 38 27 24 33 25 96 68 100 88 79 94 87 97 89 78 56 78 71 90 65 100 100 90 81 100 100 100 95 82 66 83 74 62 45
38 36 61 100 95 100 100 100 60 76 49 44 34 63 58 39 28 25 36 25 80 83 100 88 100 78 95 100 100 100 98 85 96 93 93 92 100 86 88 86 79 93 78 67 92 100 100 54 96
42 92 100 100 84 98 100 100 84 93 63 30 32 58 71 45 30 26 35 30 37 100 99 100 66 95 85 100 100 99 96 92 100 95 95 100 100 71 83 86 72 59 54 51 67 56 48 100 99
88 100 100 100 74 87 100 100 94 97 65 40 35 58 67 46 34 36 37 33 23 96 91 100 78 81 96 100 100 100 94 98 100 80 84 89 75 85 82 72 74 67 60 64 60 87 100 100 100
98 100 100 100 77 62 100 100 100 100 78 44 44 68 54 55 38 46 40 37 23 66 100 100 100 85 100 91 95 100 100 100 100 84 92 56 75 85 77 92 83 89 75 68 71 99 100 69 66
100 100 100 100 89 66 100 100 100 100 84 46 55 81 63 67 38 51 45 40 25 28 92 95 100 86 95 92 100 99 99 100 100 98 76 89 82 99 100 93 89 86 96 100 74 100 100 85 45
100 100 100 100 100 61 98 96 100 100 99 39 56 82 54 78 51 37 51 46 28 22 80 100 100 100 100 100 100 77 100 98 100 98 83 100 98 99 100 100 100 100 100 100 99 96 76 44 61
100 100 100 100 100 88 100 100 100 100 100 50 46 70 51 91 63 38 58 56 33 24 43 100 100 100 100 97 100 99 98 96 100 100 100 100 100 100 100 100 100 100 99 81 79 81 74 72 98
71 100 100 100 100 90 67 99 100 100 93 61 48 60 55 98 82 38 54 58 40 25 28 66 85 100 100 92 92 100 100 99 100 100 100 100 100 100 100 100 98 97 84 94 85 100 95 89 86
100 100 100 100 100 89 99 100 100 100 100 71 61 57 57 70 98 54 43 59 50 26 32 31 66 97 100 100 87 79 89 100 99 100 100 100 100 100 100 100 92 100 100 100 100 100 100 100 98
83 90 100 100 100 74 99 100 100 100 100 65 63 62 97 76 96 64 34 66 62 32 30 34 78 82 100 100 98 67 83 100 100 100 100 100 100 100 100 100 100 100 100 100 97 95 64 94 100
82 95 85 100 100 100 72 100 100 100 100 90 53 79 94 72 66 73 31 74 64 38 28 35 47 98 100 100 100 100 68 68 73 89 95 100 98 88 88 100 100 99 100 100 99 100 100 100 100
100 82 100 100 100 72 100 95 80 96 100 100 75 86 66 53 64 98 52 48 81 45 32 28 35 66 100 100 100 100 100 100 76 88 100 95 91 100 94 100 100 100 100 100 100 100 100 100 100
100 92 88 100 92 100 100 99 100 93 100 100 96 86 63 61 38 100 81 39 72 66 34 30 30 35 50 100 100 100 100 100 100 100 100 100 100 100 100 100 100 100 100 100 100 100 100 100 100
100 96 79 95 92 98 100 100 100 90 100 100 100 86 65 42 31 82 91 44 39 76 58 34 31 30 37 46 100 100 100 100 100 100 100 100 100 100 100 100 100 100 100 100 100 100 100 100 93
100 100 100 90 98 93 89 100 100 94 74 100 100 75 79 37 25 33 98 58 51 46 81 45 33 32 30 36 40 80 99 99 100 100 100 100 100 100 100 100 100 100 100 100 100 100 99 75 59

GFSSGP_250_rhum_102.txt.gz
RH
24 22 22 18 14 14 9 11 10 9 9 10 9 10 10 10 9 10 10 9 8 6 8 7 7 6 6 6 7 15 13 12 9 8 9 10 10 12 14 15 16 17 20 22 19 19 19 23 24
21 20 19 17 16 18 13 13 11 11 11 11 12 13 14 16 14 14 16 12 10 9 9 8 7 7 6 6 6 8 8 10 15 11 11 15 13 11 12 12 16 24 28 33 33 39 22 26 23
26 24 22 21 19 24 18 16 15 14 17 21 21 25 26 24 22 19 15 14 12 10 8 8 8 7 8 7 9 30 58 48 40 31 37 28 47 31 25 23 15 16 18 25 39 41 40 37 35
25 28 28 30 25 27 23 20 18 19 20 21 21 20 20 20 22 17 16 14 13 10 10 9 9 9 8 22 42 67 39 68 82 61 41 36 56 59 18 17 16 24 26 29 40 50 40 43 42
28 25 30 35 48 51 37 26 20 18 20 22 21 18 17 16 17 18 19 17 14 11 10 10 22 31 41 43 78 39 83 90 86 99 68 51 73 82 100 93 44 48 85 84 86 100 100 100 93
24 21 24 29 51 61 67 44 28 20 22 28 28 23 18 16 16 18 24 17 14 12 11 17 100 87 68 55 83 70 97 91 100 100 84 60 30 97 98 100 60 99 100 100 100 100 99 100 78
25 22 24 26 32 56 73 80 47 24 24 28 29 24 22 17 16 17 23 17 18 26 38 94 100 95 72 47 92 100 94 100 100 100 100 68 24 98 86 98 60 100 86 100 100 100 100 100 91
34 30 31 31 32 34 49 98 74 39 31 32 28 30 26 23 18 20 25 18 19 39 62 100 100 48 67 43 95 68 88 96 100 100 100 31 36 32 32 35 61 100 100 100 100 100 100 100 100
31 40 46 39 32 32 39 93 96 51 42 37 30 31 29 36 24 23 23 20 17 44 67 60 100 60 83 64 100 91 99 99 100 100 100 93 28 24 19 26 90 100 100 100 100 100 100 100 100
32 39 63 45 38 32 46 56 100 73 50 41 34 33 38 34 26 22 21 22 22 39 81 52 100 60 69 94 100 96 100 99 100 100 100 97 77 50 28 36 73 100 100 100 100 100 100 100 89
31 35 62 54 39 31 50 50 100 92 58 45 40 38 40 36 30 24 24 23 24 54 66 76 62 80 98 100 100 100 100 100 100 100 100 100 100 57 33 42 77 100 100 100 91 100 89 82 86
42 37 44 61 55 35 38 51 99 100 77 52 41 38 36 41 39 26 23 23 20 64 82 85 98 69 94 100 100 100 100 100 100 100 100 100 92 79 37 37 38 79 100 100 100 100 90 91 67
45 37 40 43 52 38 34 50 92 100 97 63 46 43 48 42 42 31 23 24 22 63 94 83 100 81 92 100 100 100 100 100 100 100 100 94 99 73 64 82 91 97 100 100 100 100 100 89 73
52 42 40 39 41 50 34 35 83 100 100 84 56 55 45 47 39 32 23 22 22 55 100 75 100 96 100 100 100 100 100 100 100 94 100 100 77 86 90 92 93 99 85 100 100 100 91 88 72
46 39 32 32 35 45 33 26 100 100 100 100 66 70 45 39 33 36 22 22 21 52 97 74 100 100 100 100 100 100 100 100 100 100 100 98 99 72 69 96 66 95 94 100 92 92 79 76 64
49 32 28 31 36 44 30 27 92 98 99 100 92 77 51 31 42 35 25 20 22 31 99 98 87 100 100 100 100 85 100 100 100 100 93 82 96 86 64 95 64 100 100 95 83 80 81 85 60
32 24 24 27 38 39 30 27 75 98 97 100 100 99 61 32 35 35 26 18 25 22 95 100 74 94 95 100 100 100 84 100 100 100 100 100 91 81 76 78 48 100 93 91 81 95 95 100 90
27 22 20 24 43 41 46 49 63 94 92 100 100 100 73 34 37 43 29 18 23 20 79 100 99 69 100 100 100 100 100 89 74 87 71 84 88 82 70 87 44 80 82 89 90 83 74 64 70
26 21 21 30 40 61 78 83 87 93 79 100 100 100 95 43 39 50 43 18 25 22 25 92 100 90 57 96 83 92 80 59 56 55 59 65 86 98 90 63 59 73 95 79 90 72 70 73 62
21 20 23 34 40 77 82 76 100 100 92 100 100 100 92 47 39 46 40 24 20 24 20 76 100 100 96 61 88 87 81 86 88 78 78 82 100 99 90 61 55 79 84 77 83 76 62 70 49
20 20 30 34 56 47 65 52 100 100 90 100 100 100 91 46 38 47 55 28 22 26 21 29 88 100 100 69 85 75 100 100 89 100 100 97 100 100 83 55 50 64 84 99 87 89 71 52 34
20 22 31 36 54 75 86 42 54 100 98 100 90 93 95 54 43 54 69 39 26 27 23 24 72 100 100 77 100 93 100 100 100 100 98 100 100 79 73 49 75 90 100 90 99 100 93 49 43
20 22 29 36 43 59 81 47 100 100 100 100 100 100 90 53 46 45 66 50 30 30 27 26 50 86 100 100 87 92 100 100 95 100 100 100 100 100 64 80 98 100 100 100 100 100 69 75 72
21 22 33 36 49 60 98 52 100 100 100 100 100 100 85 58 52 50 69 55 34 29 30 25 31 100 100 100 100 98 100 90 81 100 100 100 100 100 100 100 100 100 100 100 100 96 94 82 84
20 24 36 36 46 99 99 67 59 100 100 100 100 92 100 68 56 51 78 43 44 32 30 24 30 86 100 100 100 100 100 100 84 88 88 98 100 100 100 100 100 100 100 100 95 99 99 100 100
19 24 30 52 62 100 95 75 63 100 100 100 100 99 100 82 72 57 59 36 61 40 31 26 26 34 98 100 100 98 100 100 100 100 94 94 100 100 100 100 100 100 100 100 99 99 100 100 100
22 30 45 51 50 100 100 100 100 78 100 100 100 100 100 100 86 68 42 43 58 52 38 32 24 29 59 100 100 100 100 100 100 100 100 100 89 79 73 80 76 98 100 100 100 100 100 100 100
21 36 48 66 61 69 100 100 100 100 100 100 100 100 100 100 86 89 46 38 45 53 36 42 29 25 30 77 100 100 100 100 100 100 100 100 100 100 100 100 100 100 100 100 100 100 100 100 100
23 35 67 84 83 65 94 100 100 100 100 100 100 100 94 100 100 99 54 47 37 66 48 42 42 28 27 32 84 100 100 100 100 100 100 100 100 100 100 100 100 100 100 100 100 100 100 100 100
26 38 85 70 96 98 85 99 100 88 80 100 100 100 91 98 100 100 40 40 31 44 66 49 47 46 28 26 31 53 100 100 100 100 100 100 100 100 100 100 100 100 100 100 100 100 100 100 100

GFSSGP_250_rhum_105.txt.gz
RH
26 26 23 21 19 16 13 13 10 10 9 9 9 9 9 9 10 10 11 8 10 11 11 10 8 8 7 7 7 7 6 6 6 6 8 9 10 11 12 16 19 21 22 20 19 17 15 17 17
24 24 24 23 22 19 16 16 15 13 12 11 11 10 11 9 10 14 14 10 10 11 12 11 10 8 7 7 8 6 6 7 7 8 13 16 17 17 14 13 14 16 18 20 23 25 25 27 23
27 26 25 26 25 22 22 17 17 16 16 16 15 14 12 12 15 15 12 13 12 11 10 8 8 8 7 6 7 9 9 14 26 24 31 27 23 14 17 23 22 16 15 15 16 19 22 27 34
28 26 27 25 24 28 24 27 20 19 19 19 18 16 15 14 16 16 14 14 12 13 11 10 8 8 7 8 7 11 42 85 100 100 94 77 49 53 99 100 100 58 35 27 25 20 17 17 24
27 26 25 21 19 20 20 19 31 32 29 34 24 18 16 16 15 14 16 15 14 17 15 11 11 9 10 12 20 50 100 94 92 91 100 84 74 50 100 100 100 100 74 28 25 22 37 33 56
30 26 23 22 20 21 20 20 26 60 52 60 46 29 24 21 18 16 15 17 17 16 19 14 13 13 30 55 87 100 99 77 93 100 100 100 87 58 74 100 87 89 77 65 81 78 98 95 100
28 26 23 21 25 24 23 18 21 43 74 78 67 40 34 25 23 21 18 23 23 22 20 15 14 38 82 62 100 100 95 83 92 100 100 100 95 53 52 94 68 72 68 66 99 100 100 100 100
27 32 31 27 30 40 30 24 20 31 50 97 77 50 43 32 30 25 21 24 26 26 21 16 22 100 100 95 100 88 86 74 81 97 95 100 100 51 49 82 50 61 75 78 100 100 100 100 100
27 26 31 41 31 30 51 34 27 23 36 98 96 74 46 38 38 31 26 26 24 24 22 17 28 100 100 100 100 86 100 100 92 98 100 100 100 79 33 46 62 78 78 95 100 79 86 100 100
32 25 32 30 39 32 34 46 50 28 29 94 100 95 54 40 42 36 28 29 26 24 17 22 31 100 100 100 100 97 100 100 100 100 94 100 99 83 47 46 73 70 71 70 100 100 100 100 100
33 33 29 32 33 33 28 37 57 39 27 53 100 100 69 47 46 42 32 25 28 27 27 21 49 43 100 99 91 98 93 100 100 83 100 100 99 100 78 58 39 33 80 96 65 98 88 100 100
40 37 32 34 35 37 36 41 40 41 35 30 96 100 88 52 48 48 39 26 25 22 24 26 53 86 96 100 91 100 100 97 95 90 88 99 83 88 100 79 45 37 54 83 93 76 100 100 100
53 44 100 93 99 95 54 40 45 36 49 31 74 100 98 57 57 57 37 29 22 22 24 23 55 92 96 80 99 100 100 99 95 100 100 100 100 78 87 81 98 41 28 85 100 100 100 100 95
58 44 48 75 69 56 42 41 39 39 47 34 48 100 100 67 66 62 34 30 22 22 24 21 55 90 100 100 100 100 100 100 100 100 88 100 100 100 83 64 100 59 34 32 99 100 100 94 91
72 52 43 95 99 83 78 37 43 35 34 32 38 100 100 71 71 61 36 30 26 22 21 27 54 99 100 100 100 100 100 100 100 100 100 100 100 92 69 55 93 88 63 50 78 93 100 89 98
39 40 41 85 73 67 74 34 38 29 32 31 33 96 100 99 97 83 40 36 29 24 22 23 50 96 100 100 100 100 100 100 100 100 100 100 100 95 99 66 80 90 78 86 76 68 70 92 98
44 38 35 37 49 46 40 24 25 27 30 33 35 99 94 100 100 99 42 38 28 26 21 24 58 84 100 100 100 100 100 100 100 100 100 100 100 99 100 75 70 74 82 63 54 66 75 87 88
40 38 36 31 37 35 26 22 21 29 33 33 44 98 77 100 100 100 56 41 32 25 19 23 64 56 98 100 100 100 100 100 100 100 100 100 82 79 97 90 61 85 99 88 69 93 73 82 82
57 48 36 32 32 28 20 18 20 23 31 27 51 95 99 100 100 100 61 40 32 27 18 20 40 46 88 100 100 100 100 100 100 100 100 100 100 98 97 99 85 85 83 94 82 73 83 84 79
61 52 42 32 31 24 19 19 21 32 37 27 64 97 100 92 100 100 43 40 36 32 22 19 21 60 63 96 100 100 100 100 100 100 100 100 99 100 100 100 97 85 84 86 86 83 100 99 98
64 51 36 28 26 24 17 18 20 32 55 44 84 99 95 100 100 100 42 41 39 43 24 19 23 27 53 71 97 100 100 100 100 100 100 100 100 100 100 97 100 100 100 88 73 84 100 97 100
46 45 35 28 20 21 15 17 21 33 74 53 81 96 98 100 100 100 56 45 37 45 27 19 25 22 70 53 65 87 99 100 100 100 100 100 99 81 64 76 98 100 100 96 88 98 100 100 100
40 34 30 26 20 18 20 16 36 44 96 75 80 98 100 100 100 100 72 44 39 42 32 20 26 24 39 84 57 66 74 85 97 99 100 96 78 64 73 82 90 100 100 87 86 100 100 100 77
34 37 26 21 20 16 27 18 40 61 100 75 84 92 100 100 100 100 77 45 45 47 34 25 26 25 26 100 79 45 90 62 80 93 93 83 73 64 76 70 100 100 100 98 84 98 100 99 72
35 34 22 19 19 21 23 16 48 97 94 82 99 100 100 100 100 100 77 47 52 48 39 36 27 25 27 51 100 75 100 83 58 72 79 61 55 69 55 77 100 100 100 100 92 100 100 100 85
32 32 25 22 18 20 18 31 51 100 100 83 100 90 99 100 100 100 86 49 73 51 41 39 29 31 26 35 100 100 100 100 90 73 97 69 85 95 76 91 100 100 100 100 100 100 100 93 79
34 28 27 15 15 14 20 41 54 93 100 100 100 67 89 99 100 100 81 68 88 54 34 47 32 30 28 28 100 100 100 100 100 97 99 98 88 94 82 69 100 100 100 100 100 100 94 83 88
27 25 18 14 15 18 28 50 80 96 100 100 100 99 73 98 100 100 100 100 85 58 30 49 43 29 31 25 55 100 100 100 100 100 97 75 89 100 100 100 96 98 99 93 92 82 80 92 100
22 20 13 13 16 19 32 61 100 100 100 100 100 100 100 79 98 100 100 100 90 58 43 37 53 32 38 31 26 69 100 100 100 100 100 100 99 100 100 100 100 100 100 100 100 100 100 100 100
16 15 11 11 20 21 33 83 100 100 100 100 100 100 100 92 90 100 100 100 100 57 44 35 38 54 38 42 28 26 83 100 100 100 100 100 100 100 100 100 100 100 100 100 100 100 100 100 100

GFSSGP_250_rhum_108.txt.gz
RH
19 18 19 19 16 14 14 14 13 12 10 10 9 9 10 9 9 9 9 8 8 9 8 8 8 8 7 7 7 7 7 7 6 6 7 7 8 7 7 9 11 13 15 15 14 14 14 14 14
27 26 24 24 21 18 17 17 19 18 15 14 12 12 13 11 14 13 11 10 10 9 8 9 9 8 7 7 8 8 7 7 7 6 7 7 7 7 8 8 10 11 17 21 23 24 24 25 24
24 25 26 24 23 22 21 20 20 19 17 17 16 14 14 15 16 15 14 13 11 11 10 10 9 8 8 8 7 7 7 8 8 8 8 9 10 8 9 11 14 13 16 18 19 20 22 24 27
21 21 21 19 17 18 19 21 18 18 20 19 19 17 14 16 21 19 17 16 14 13 12 11 10 9 8 8 8 7 8 8 12 39 67 79 66 42 24 16 17 19 17 15 21 19 17 18 17
22 21 20 20 17 18 18 17 18 19 18 19 21 22 18 26 32 30 25 19 15 14 14 12 12 10 11 11 9 10 18 59 69 99 83 64 80 78 50 28 37 53 66 100 75 45 29 24 22
28 23 21 20 20 20 17 17 16 17 17 17 22 26 29 33 41 38 32 23 18 18 16 14 14 15 14 13 14 21 95 100 100 92 93 100 90 92 67 59 60 87 96 75 60 53 38 33 26
28 24 20 20 22 19 20 20 23 23 22 29 18 29 31 46 50 45 37 31 24 21 21 18 17 17 16 17 18 81 100 100 96 100 100 100 100 100 78 45 43 67 58 46 40 40 62 96 94
32 25 22 24 20 24 21 22 25 22 27 29 39 28 34 51 61 52 43 32 28 22 22 22 21 18 17 29 50 100 100 100 100 100 100 100 92 100 79 38 53 59 58 54 53 51 46 100 100
34 29 29 30 31 30 21 21 22 26 28 32 38 32 35 61 74 62 49 36 38 32 24 24 20 19 18 58 100 100 92 100 100 96 100 100 84 97 69 52 43 63 65 65 86 74 90 99 100
34 32 33 32 32 30 29 24 27 25 27 30 37 49 32 67 71 66 56 42 45 38 24 23 20 18 18 86 100 100 95 100 100 100 100 79 86 98 70 78 56 65 60 93 100 99 100 97 98
38 36 32 32 40 41 41 33 30 32 27 33 35 41 43 45 76 92 68 48 49 39 26 22 22 18 21 93 100 100 97 100 100 88 87 100 100 96 54 78 60 69 56 64 74 92 100 83 100
45 45 38 40 37 38 41 42 30 26 44 62 49 35 30 36 92 100 85 53 53 41 30 25 23 19 28 94 100 99 66 100 100 100 95 98 100 100 95 99 68 70 68 34 49 84 97 100 100
46 55 52 52 55 60 51 35 27 36 54 82 90 61 30 32 86 100 96 58 59 45 31 28 23 22 28 83 100 100 100 96 100 100 97 100 100 95 63 100 100 76 58 36 59 77 77 83 100
63 71 73 61 64 68 50 39 33 43 33 36 58 77 41 30 45 100 94 62 66 47 31 24 23 24 32 97 96 100 92 100 100 100 100 84 100 93 63 89 85 100 88 56 40 78 97 86 100
95 88 77 83 77 92 56 41 38 33 36 31 28 42 54 36 38 100 94 65 64 49 35 28 22 23 41 87 100 100 100 93 77 63 99 95 100 100 67 62 76 81 76 62 48 64 100 68 99
100 100 100 100 100 91 50 35 34 41 39 30 26 24 27 33 32 99 94 72 74 53 36 30 20 22 39 100 100 100 85 100 99 100 100 96 100 80 100 71 88 52 68 65 63 49 44 81 86
100 100 100 100 89 69 53 28 26 37 42 28 23 22 25 29 31 94 100 79 97 61 35 30 22 21 26 90 100 93 100 100 100 100 100 100 83 100 100 100 80 64 68 98 93 77 61 46 59
100 90 94 100 96 68 82 38 37 37 35 27 22 20 26 33 35 98 100 70 100 74 40 31 24 21 23 62 100 95 100 100 100 100 100 100 100 100 100 99 66 93 92 94 92 100 90 78 69
92 71 86 99 100 81 68 38 52 41 33 26 21 18 26 31 44 91 100 74 100 83 43 32 27 21 19 35 100 100 100 100 100 100 100 100 100 100 100 57 100 63 54 85 86 94 100 99 86
78 100 100 100 96 63 54 36 40 36 30 22 19 20 30 36 66 78 100 65 100 66 37 30 30 23 18 20 81 100 100 100 100 100 100 100 100 100 87 95 100 79 61 64 100 99 99 98 93
68 73 81 71 74 60 42 28 37 38 27 21 19 27 42 39 64 94 100 74 100 52 35 30 30 25 21 18 44 100 100 100 100 99 100 100 100 93 100 100 100 72 97 97 78 98 99 100 100
90 97 82 70 60 51 45 26 36 36 23 20 23 41 49 34 72 94 100 87 100 63 42 33 33 28 23 23 20 88 100 100 100 100 100 100 100 97 100 100 94 100 100 100 100 100 100 100 100
99 89 82 49 52 38 48 22 30 36 21 21 28 100 62 45 73 100 100 94 100 64 46 36 37 32 24 26 20 32 97 100 100 100 100 100 100 100 100 92 84 100 100 100 100 100 100 100 100
78 76 74 65 48 28 46 25 34 31 21 24 30 98 96 64 69 100 100 98 100 74 54 36 35 36 27 25 23 21 51 100 100 100 100 100 100 100 100 100 100 100 100 100 100 100 100 100 100
80 62 58 52 47 33 32 24 34 31 20 27 32 100 71 72 72 100 100 100 100 90 57 40 39 40 30 26 23 21 32 67 100 100 98 100 100 100 100 100 100 100 98 100 100 100 100 100 100
76 82 61 55 42 34 27 26 35 27 20 29 37 100 50 68 99 100 100 96 100 100 70 35 45 41 34 32 28 24 30 53 62 88 78 100 100 100 100 100 100 96 100 100 100 100 100 100 100
71 67 73 44 33 26 29 34 33 24 20 38 55 98 58 69 94 100 100 88 100 100 59 35 54 39 42 29 34 30 28 69 62 52 79 78 100 100 100 100 99 77 67 91 97 100 100 100 100
72 84 68 45 29 26 30 31 29 19 25 44 92 87 46 63 100 100 100 79 100 90 64 75 56 38 47 36 37 37 31 94 90 49 40 94 86 92 100 100 100 100 92 93 66 90 100 100 99
67 66 56 34 25 27 32 25 22 21 46 79 100 93 55 74 94 100 100 92 78 52 98 81 56 44 40 44 41 37 31 77 100 88 51 46 93 99 78 97 100 100 100 100 99 85 96 99 96
49 48 45 27 27 22 20 22 18 22 52 100 100 100 79 54 93 88 100 100 87 63 100 95 54 42 43 40 49 38 29 30 93 100 100 96 96 100 100 99 73 69 92 100 100 100 100 100 100

GFSSGP_250_rhum_111.txt.gz
RH
16 16 15 14 14 14 14 15 16 16 16 17 14 11 11 12 12 11 9 8 8 9 9 9 9 8 7 7 6 6 5 5 5 5 6 7 7 7 6 10 11 9 9 10 11 12 14 16 17
17 18 19 19 18 18 19 18 17 15 15 16 15 14 14 15 13 13 11 9 9 8 9 10 10 10 9 8 8 7 6 6 6 5 5 6 6 6 6 7 8 12 12 12 11 11 13 15 16
19 19 19 20 18 18 19 18 17 16 15 15 16 16 17 18 19 19 17 13 12 11 10 10 10 10 9 9 8 8 7 6 6 6 6 7 8 8 8 9 9 10 11 12 13 14 15 17 23
24 23 23 23 23 28 24 20 17 15 14 14 14 14 14 17 18 29 25 20 19 18 19 15 12 10 9 8 8 9 8 7 7 7 6 8 9 9 10 10 10 9 10 11 13 14 16 18 21
27 28 26 26 30 27 24 21 18 16 16 16 16 16 18 21 22 29 36 31 32 26 24 16 15 12 12 11 10 11 9 9 9 8 10 14 17 27 41 41 24 10 11 12 14 18 21 21 22
31 30 38 36 31 24 19 20 19 18 18 18 18 19 15 20 26 40 41 43 38 28 24 20 18 16 14 13 13 12 14 16 20 69 87 97 100 94 66 44 37 24 18 20 22 36 63 61 44
36 36 40 40 29 24 24 19 18 18 18 20 22 22 19 17 26 45 62 53 43 40 30 24 22 17 17 17 15 14 16 27 99 100 100 100 100 96 57 78 61 39 39 42 62 75 54 44 40
37 39 45 54 43 31 24 20 25 22 21 23 23 30 29 21 21 31 66 93 58 47 36 25 26 19 19 18 17 16 21 100 100 100 100 100 82 96 70 68 90 96 81 76 51 51 51 35 55
57 47 55 49 37 33 24 27 28 28 28 32 32 28 40 30 29 34 53 100 77 53 38 29 28 23 21 20 20 16 84 100 100 100 100 96 89 70 60 52 77 60 44 44 41 44 61 47 60
70 57 62 61 50 42 36 31 26 29 28 38 31 29 32 49 40 35 46 89 100 71 42 36 32 24 20 20 22 24 99 100 100 100 100 97 76 60 42 46 49 46 48 58 56 71 73 85 81
71 57 74 80 63 51 44 38 28 28 36 27 32 43 36 39 58 75 38 53 100 94 48 40 33 28 18 17 22 49 99 100 100 100 82 86 67 45 41 41 51 46 45 50 75 87 77 100 100
89 73 99 74 98 93 58 52 37 34 47 31 36 35 38 33 35 60 81 42 64 100 53 50 37 28 19 17 23 62 98 100 100 100 100 84 92 55 48 49 64 55 41 51 84 72 76 99 100
100 100 99 100 100 88 71 77 75 82 49 50 36 39 35 39 30 36 82 62 54 100 72 60 40 31 22 20 23 70 92 100 100 100 100 97 88 81 57 79 68 62 43 52 75 62 50 62 91
100 100 100 84 84 96 65 96 96 98 71 52 41 40 39 47 39 27 47 67 50 89 80 66 47 37 24 21 22 61 99 99 100 100 95 100 100 100 66 64 100 86 58 73 63 45 54 47 87
100 100 100 75 100 82 73 100 99 91 70 56 54 66 54 47 50 26 31 36 45 76 83 68 59 40 24 21 26 81 93 100 100 100 98 100 100 90 100 83 94 66 96 88 69 57 56 34 75
97 86 100 100 90 100 54 92 100 76 56 63 74 80 48 49 35 26 28 32 37 67 100 82 67 38 25 21 24 87 100 88 100 100 89 100 100 100 100 82 59 50 86 86 62 58 58 50 58
100 100 100 91 84 72 44 69 100 64 57 76 85 69 44 38 30 25 25 28 33 68 100 93 82 36 24 21 23 99 100 100 99 100 100 99 100 100 100 98 66 45 67 84 55 58 84 79 72
100 98 92 100 100 70 62 73 86 54 52 85 78 58 49 37 30 23 24 30 35 55 100 100 82 34 23 22 19 90 100 100 100 95 97 83 82 100 100 100 81 51 98 100 68 56 54 82 88
84 89 100 100 85 52 52 48 59 59 86 97 63 50 48 32 25 23 24 31 41 58 100 100 81 32 25 26 20 71 100 100 100 87 90 100 100 100 100 99 89 94 100 98 72 38 52 82 93
93 100 100 100 99 43 62 48 60 82 100 81 65 50 39 30 23 22 28 42 43 67 100 100 58 31 30 27 22 42 100 100 98 98 99 100 100 100 100 100 98 100 90 67 71 62 52 99 100
100 96 67 78 85 76 93 57 80 97 98 61 58 44 36 29 21 22 32 45 45 70 100 100 42 34 31 25 24 23 100 100 100 100 100 100 100 100 100 100 100 100 84 72 64 61 72 99 100
100 100 100 100 97 90 76 53 97 100 86 59 47 46 37 25 21 22 35 54 59 71 100 100 42 38 35 27 27 21 62 100 100 100 100 100 100 100 100 100 99 100 84 100 73 78 95 100 91
100 100 100 100 74 62 100 63 100 100 67 62 48 41 34 24 17 22 34 56 62 70 95 90 51 39 34 31 29 23 19 100 100 100 100 100 100 100 100 100 100 91 90 100 100 94 99 92 100
100 92 99 84 89 67 100 57 51 68 84 46 50 33 28 21 22 25 38 59 83 71 93 96 53 43 32 33 32 28 19 27 100 100 100 98 100 98 99 98 100 100 91 96 100 87 100 100 100
90 88 100 100 100 96 98 46 62 73 58 50 60 32 27 21 24 33 72 69 96 59 96 96 66 43 38 36 36 28 22 19 64 100 100 100 100 100 100 100 78 84 84 90 100 100 100 100 100
85 80 82 71 60 64 64 53 78 60 46 53 52 34 28 21 26 40 100 100 96 63 97 100 75 48 40 38 35 31 28 21 21 91 100 100 100 100 100 100 100 100 100 100 100 100 100 100 100
100 100 100 93 65 60 69 70 82 58 50 51 46 30 25 22 28 52 100 100 96 65 100 100 83 41 42 37 40 38 34 23 28 34 93 100 100 100 100 100 100 100 100 100 100 100 100 100 100
100 100 98 85 75 68 64 58 56 56 42 36 35 27 22 22 35 71 100 100 97 62 85 100 80 39 47 43 40 41 36 30 56 74 73 100 100 100 100 100 100 100 100 100 100 100 100 100 100
96 94 91 90 70 57 47 50 53 48 40 40 32 26 22 32 50 81 99 100 100 92 68 96 96 49 61 54 47 40 39 39 35 100 90 76 96 100 100 100 100 100 100 100 100 100 100 100 100
96 85 70 68 67 60 40 42 46 50 31 31 24 26 33 46 50 76 100 100 99 81 82 73 69 62 66 61 54 43 36 39 37 62 100 96 77 64 100 100 100 100 100 100 100 100 96 88 100

GFSSGP_250_rhum_114.txt.gz
RH
22 22 19 17 16 16 15 14 16 19 19 18 17 16 14 13 13 12 11 10 9 10 10 9 9 10 9 8 7 7 6 8 7 6 4 4 4 4 4 5 6 7 8 8 9 10 10 11 11
26 25 23 22 20 18 17 18 17 18 20 20 18 16 14 13 12 12 13 12 10 10 10 11 12 12 11 11 10 9 8 7 8 19 13 12 7 7 6 6 6 7 8 9 10 11 12 11 13
29 26 25 24 22 20 19 20 21 20 22 20 16 15 14 15 15 15 15 13 12 13 12 12 13 14 16 14 12 10 9 9 22 24 14 7 6 6 16 18 20 17 9 8 9 10 10 11 12
35 32 29 27 24 23 21 22 24 25 19 16 16 17 17 17 17 17 18 16 13 15 16 16 18 21 23 19 14 12 9 8 8 8 18 34 10 11 7 33 11 11 8 8 9 10 13 15 15
38 37 32 32 28 25 23 24 30 26 20 18 21 24 23 18 18 21 28 24 18 17 23 23 24 25 25 19 15 13 10 10 10 12 36 79 80 82 20 12 16 11 9 10 20 12 13 14 15
50 39 37 42 35 30 26 28 29 21 19 22 24 24 27 25 22 23 31 29 28 25 34 49 39 29 28 20 16 14 13 12 14 17 17 65 88 96 100 98 43 26 20 12 18 12 11 12 13
57 41 43 60 57 46 33 31 30 24 21 25 23 26 28 32 30 26 30 31 39 38 32 67 61 54 37 23 16 15 15 14 16 18 53 69 100 100 95 94 75 59 41 32 15 15 14 16 21
74 53 78 78 75 53 38 42 32 28 30 29 26 26 26 31 36 37 48 49 37 38 32 52 71 60 45 28 18 16 17 16 15 26 100 86 100 100 91 76 70 77 43 40 26 23 22 32 60
73 76 100 92 89 59 45 47 34 37 43 31 29 23 26 28 33 38 40 45 50 47 39 45 63 60 50 31 19 17 18 18 17 60 100 100 100 100 98 61 56 60 90 70 88 74 63 50 43
72 76 99 100 99 80 70 41 47 73 69 39 34 37 29 33 35 39 44 48 58 48 42 56 72 82 60 32 22 20 22 21 37 99 100 100 100 100 67 45 38 56 77 83 68 47 43 34 41
98 98 100 100 100 100 89 47 73 98 71 44 41 44 51 36 32 39 66 72 53 57 41 48 60 94 63 32 28 21 23 24 71 100 100 100 100 76 50 39 48 52 42 51 38 48 46 53 61
96 100 100 100 100 100 92 69 100 83 73 52 50 39 53 36 38 36 92 83 44 50 38 45 41 76 62 34 30 22 22 32 88 100 100 100 87 67 44 47 49 57 43 38 41 46 55 48 67
100 100 100 100 100 100 100 100 96 81 74 57 56 41 37 34 34 32 88 82 50 40 30 40 37 60 60 40 32 22 20 40 100 100 100 97 82 72 62 46 48 54 45 42 42 43 63 70 60
100 100 100 100 100 100 100 100 100 100 67 59 72 52 32 46 33 40 91 80 56 39 28 29 42 49 53 41 36 22 23 51 100 100 100 94 89 67 54 52 64 62 60 49 41 37 49 76 61
100 100 100 100 100 100 100 100 100 100 84 58 61 51 32 59 39 40 82 70 64 34 26 25 44 45 50 43 40 23 26 63 100 100 100 99 71 76 58 54 57 71 48 51 60 48 50 64 72
100 100 100 100 100 100 100 99 100 100 89 82 80 50 47 62 32 43 84 79 38 31 24 26 43 47 47 47 40 22 25 46 100 100 100 100 76 87 78 65 76 85 76 49 49 59 39 46 56
96 100 100 92 100 96 97 100 100 100 89 82 84 54 52 52 41 49 91 70 34 28 23 27 40 54 52 53 38 21 25 82 100 93 100 100 96 99 100 98 84 100 51 67 68 51 39 66 66
100 76 76 99 100 100 100 100 100 98 70 100 77 76 69 44 44 75 82 57 36 27 23 27 37 66 50 68 41 21 32 100 91 74 100 100 100 100 100 82 80 85 63 49 72 58 49 62 66
61 100 96 100 100 96 81 72 99 82 100 100 100 80 55 47 62 80 67 54 39 26 23 31 41 71 47 73 34 22 35 100 100 90 100 100 98 100 100 100 100 100 86 62 70 76 63 58 61
58 64 88 100 100 87 80 69 91 100 100 98 98 88 50 53 60 82 52 47 33 23 23 32 75 66 57 73 27 18 27 100 100 100 100 100 80 97 100 100 100 100 100 90 66 93 82 54 44
66 60 95 100 100 98 92 97 100 100 100 100 100 79 56 53 68 68 50 44 29 22 24 40 92 69 77 47 27 20 21 91 100 100 100 99 68 95 100 100 100 100 100 91 75 86 92 75 46
86 76 84 98 96 100 96 82 100 100 100 100 98 63 68 63 57 59 42 35 26 20 26 51 98 66 73 38 30 24 23 70 100 100 100 100 88 92 99 100 100 100 100 100 96 88 82 86 72
100 92 82 75 68 66 80 51 100 100 100 100 89 70 59 48 56 59 46 33 23 20 34 69 100 65 58 39 31 24 25 33 100 100 100 100 100 98 100 100 100 100 100 100 80 100 91 100 100
100 100 99 100 100 79 76 53 99 100 100 87 96 100 65 65 52 57 51 31 22 23 40 83 100 66 56 40 34 26 24 24 60 100 100 100 99 100 100 100 100 100 100 100 100 99 88 100 88
100 100 100 100 97 95 100 92 92 100 97 91 90 91 54 52 56 50 44 33 23 26 42 92 95 73 53 45 33 30 28 26 23 91 100 100 100 94 100 77 82 100 94 54 66 72 89 84 94
100 100 96 98 100 97 100 82 100 100 100 100 72 66 65 70 55 46 38 32 23 28 54 98 90 68 56 43 37 36 30 27 25 23 99 100 100 100 100 100 99 100 100 100 100 100 100 100 100
100 99 94 91 90 84 100 100 100 100 92 69 64 62 66 64 55 40 39 32 23 36 58 89 99 61 70 46 35 34 36 33 27 21 22 99 100 83 100 100 91 98 100 100 100 100 100 100 100
100 100 100 95 86 81 75 85 85 70 72 67 59 67 75 65 49 37 35 34 26 39 79 91 96 71 73 54 39 37 35 36 33 24 23 23 98 100 100 100 100 100 100 94 87 97 100 100 100
100 100 100 100 84 78 79 89 92 98 95 74 71 63 72 56 35 35 33 35 35 40 100 100 83 93 84 50 36 42 34 37 38 34 60 45 59 100 100 100 100 100 100 100 100 100 100 100 100
99 93 96 97 88 76 66 90 100 93 93 76 58 66 71 47 28 29 29 33 47 58 100 100 98 100 98 68 48 44 39 36 37 36 77 78 90 100 100 100 100 100 100 100 100 100 100 100 100

GFSSGP_250_rhum_117.txt.gz
RH
24 23 23 22 22 20 19 19 19 18 18 17 17 18 18 16 14 13 12 10 10 10 10 9 10 10 9 9 8 8 7 9 8 6 5 5 4 4 4 4 5 6 6 7 7 8 8 9 9
27 25 28 29 30 25 22 20 20 20 20 19 21 22 19 16 15 13 12 11 10 9 10 10 10 10 10 11 10 10 12 19 15 16 14 13 7 6 6 7 8 7 6 7 8 13 9 11 11
31 31 36 37 34 28 26 23 24 24 22 22 27 22 16 17 17 18 17 14 12 10 10 12 11 12 12 12 14 15 15 19 15 14 19 19 17 18 20 24 25 18 15 11 8 7 8 10 10
37 46 43 44 40 36 30 26 25 24 25 28 27 19 19 20 18 21 20 20 15 13 12 14 16 16 16 14 17 22 23 18 19 14 10 20 45 76 80 100 98 80 57 40 25 21 9 16 18
60 54 57 51 44 45 35 31 31 32 31 32 26 25 22 24 22 27 31 26 19 17 18 18 20 21 22 19 21 29 27 19 16 14 11 14 60 80 100 91 92 81 58 58 66 54 28 33 43
79 75 69 62 55 55 46 37 39 39 39 36 29 31 31 28 23 25 32 33 34 27 30 23 23 36 31 27 25 42 30 22 18 22 15 49 16 47 100 100 99 85 84 58 28 18 21 21 51
79 85 70 66 68 62 58 43 47 62 42 31 35 38 31 28 29 23 28 30 39 40 38 38 32 34 34 42 40 48 30 30 23 17 18 21 82 100 100 72 86 87 89 65 32 23 18 13 30
76 75 72 82 87 69 54 46 50 56 58 40 41 66 46 41 31 25 24 32 37 52 67 47 40 34 32 34 57 50 37 33 18 16 15 15 46 100 83 62 88 90 67 45 32 32 24 26 30
89 78 86 100 89 60 50 49 71 73 74 59 43 66 70 51 33 32 27 32 38 48 80 67 44 31 32 27 39 48 40 30 19 16 16 21 57 47 78 56 61 94 70 44 32 28 27 23 21
85 84 99 100 82 64 66 76 79 79 98 92 49 77 92 57 45 41 28 31 37 41 86 97 55 44 30 33 31 43 46 26 20 20 23 74 100 100 87 88 85 76 60 33 40 54 55 50 54
100 96 99 100 100 98 91 100 85 81 100 95 80 78 68 59 65 51 34 27 30 43 60 89 68 51 28 32 29 42 41 28 21 25 59 100 100 100 100 84 100 82 44 47 64 78 75 61 57
94 98 100 100 100 100 100 92 100 91 100 100 100 100 89 73 78 58 38 31 26 45 55 88 65 40 28 27 32 31 40 27 23 31 59 100 100 100 79 100 100 80 46 38 74 63 47 48 35
100 100 100 100 100 98 100 100 90 85 100 100 100 100 100 90 82 54 42 27 29 49 58 76 58 37 30 28 33 30 40 32 22 28 68 100 100 100 100 100 85 59 36 32 42 37 37 45 41
100 100 100 100 100 100 100 100 99 100 100 91 100 100 100 93 74 56 44 28 35 59 70 77 50 34 29 27 33 30 41 33 22 31 96 99 98 100 100 92 62 55 42 34 42 44 35 37 46
66 55 47 94 100 100 100 100 96 97 100 100 100 100 99 93 75 67 48 30 34 54 80 89 48 33 28 26 33 34 42 27 23 36 100 100 86 94 99 73 68 54 39 37 48 38 35 33 42
51 48 48 81 97 100 100 79 72 100 100 100 100 100 100 100 73 58 45 32 38 48 77 69 48 31 26 25 32 44 43 24 24 42 100 100 91 100 84 74 70 65 54 44 43 43 28 36 49
78 65 55 59 55 64 92 100 100 98 90 96 100 100 100 100 91 59 44 38 41 54 76 57 48 29 26 25 33 46 47 22 24 28 100 100 100 96 90 79 86 76 70 63 48 38 29 36 48
100 78 69 55 56 60 56 83 92 96 97 100 100 100 100 100 88 62 38 33 50 58 90 50 38 27 25 29 35 49 51 27 26 62 99 100 100 86 91 85 78 87 74 62 47 51 41 37 44
82 83 74 66 79 79 63 58 55 100 100 100 100 100 100 81 68 62 40 38 62 68 92 40 34 25 24 32 39 55 60 25 29 99 100 100 100 87 68 85 85 88 95 83 57 41 38 43 40
100 100 100 78 80 93 90 62 51 57 88 98 100 100 100 70 72 56 51 40 57 87 77 44 32 24 24 34 46 59 55 24 46 100 94 84 100 98 71 100 90 94 85 62 51 44 51 59 50
92 100 96 100 100 100 92 70 60 76 94 100 100 100 100 76 71 73 50 56 65 71 78 45 30 23 26 39 61 78 42 22 27 100 100 90 100 100 90 99 97 72 100 99 76 74 74 64 60
100 100 100 100 100 95 77 61 66 74 100 100 100 100 100 86 80 66 55 68 52 97 74 36 27 24 32 45 84 82 36 25 22 100 100 77 100 100 100 100 100 100 100 100 100 100 87 84 79
100 100 100 96 92 83 72 59 62 88 100 100 100 100 100 100 90 46 63 49 100 88 60 32 26 25 35 75 100 66 35 29 22 95 100 70 100 100 100 100 100 100 100 100 100 100 100 96 98
100 100 100 98 92 65 65 56 68 90 100 100 100 100 88 56 52 72 63 70 96 70 54 29 25 27 41 95 100 48 34 28 25 52 100 61 100 100 100 100 100 100 100 100 100 100 100 100 100
100 98 93 87 84 73 73 61 57 85 100 100 100 100 88 94 82 80 45 67 76 64 50 28 26 36 73 100 92 42 33 27 23 25 100 82 98 100 100 100 100 100 100 100 100 100 100 100 100
100 98 97 96 96 100 100 89 80 94 100 100 100 100 100 89 61 61 46 71 58 68 42 29 30 50 100 100 76 42 34 29 26 26 76 100 62 100 100 100 100 100 100 100 100 100 95 95 100
88 84 94 92 94 96 100 98 100 100 100 100 100 100 99 92 69 70 62 57 68 73 39 30 36 65 100 100 89 44 34 31 33 26 24 99 100 78 100 100 100 100 100 100 100 100 100 100 100
97 98 95 95 96 92 97 96 94 100 100 100 100 98 100 100 99 74 62 63 72 66 37 28 42 73 100 100 92 44 38 30 32 27 20 29 99 93 98 93 100 100 100 98 89 71 72 89 81
98 94 87 89 77 67 78 98 94 98 99 100 100 85 76 72 65 80 72 84 81 47 33 27 50 86 100 100 85 47 42 36 38 32 23 20 27 100 99 97 87 70 62 83 98 100 75 74 99
82 97 97 86 75 71 73 76 91 86 84 79 82 73 80 90 91 89 87 95 73 35 29 29 55 96 100 100 87 56 44 42 43 42 33 28 23 24 100 100 100 97 86 84 100 100 100 100 100

GFSSGP_250_rhum_123.txt.gz
RH
34 36 33 33 32 29 28 29 25 25 25 25 22 22 18 18 17 18 19 19 18 16 15 13 12 10 9 9 8 8 8 8 8 8 7 6 9 14 19 14 15 15 18 20 11 16 11 13 13
37 35 38 36 33 32 32 26 26 28 28 29 28 25 23 21 21 23 24 23 20 18 18 16 14 12 11 10 9 9 9 8 8 8 8 8 10 10 15 20 18 27 39 41 40 28 21 19 21
38 41 42 37 35 34 32 28 29 35 34 33 31 28 24 24 25 23 24 23 20 18 19 19 19 16 14 13 12 11 10 10 9 9 9 9 13 17 14 23 60 94 96 100 98 76 55 45 32
42 43 43 44 41 38 33 32 34 38 41 45 38 32 27 30 29 25 26 21 21 19 23 28 26 22 19 17 16 14 13 12 10 11 11 10 19 16 21 56 52 86 100 98 97 100 100 100 91
40 49 49 48 43 45 45 42 41 49 51 53 50 41 37 35 34 36 32 32 26 25 24 28 27 28 26 23 21 18 16 15 13 13 13 13 17 17 34 100 97 100 100 100 91 88 94 100 92
48 52 50 50 50 51 50 52 56 54 43 37 41 52 43 37 36 45 36 38 35 30 25 26 29 37 39 26 28 28 22 17 16 14 13 16 19 16 56 90 100 100 100 100 85 99 97 88 74
50 49 49 50 51 51 48 42 58 53 38 37 48 54 45 41 42 44 47 43 60 60 39 38 38 41 46 34 31 32 29 23 18 15 22 19 28 28 19 86 100 100 100 100 100 99 77 72 71
48 49 53 59 55 58 54 46 50 48 42 40 72 71 64 44 50 43 74 71 91 87 50 75 51 52 58 45 36 33 35 25 21 17 16 19 26 27 47 98 100 100 100 100 94 99 98 54 49
36 42 50 55 62 62 55 47 47 51 67 62 92 81 72 63 52 46 57 76 79 100 100 100 75 65 67 55 36 33 32 28 23 17 17 18 32 25 23 54 96 100 100 100 100 88 78 56 51
46 41 43 71 82 80 83 53 57 63 74 63 86 92 84 64 54 50 75 49 91 100 100 100 100 89 72 44 49 39 36 31 25 20 19 20 31 48 23 25 57 96 100 87 100 100 91 51 49
67 71 73 79 95 93 99 73 95 73 61 56 69 72 75 95 82 58 58 59 63 86 100 100 100 100 65 51 62 45 34 32 25 24 20 22 45 64 25 46 39 66 100 98 100 100 99 85 65
94 100 100 100 100 100 100 100 100 100 100 100 100 94 56 71 100 100 71 53 100 72 93 100 100 100 56 65 65 52 32 33 30 23 21 25 52 77 82 59 89 74 39 99 100 100 100 100 89
79 91 98 100 100 100 100 100 100 100 100 100 100 88 78 49 73 71 65 86 93 50 97 100 100 100 66 58 65 53 34 32 33 26 21 30 50 60 67 91 87 68 68 94 100 100 100 91 91
54 63 70 96 100 100 100 100 100 100 100 100 100 88 79 79 98 87 88 94 96 66 100 100 100 96 60 60 89 57 34 35 34 26 22 29 42 39 40 86 91 80 79 100 100 100 95 100 94
67 47 56 64 86 100 100 100 100 100 100 100 100 100 100 100 68 55 87 100 96 100 71 80 100 69 70 100 91 64 41 32 29 24 22 28 42 39 22 81 100 76 100 100 100 100 100 100 82
65 57 57 66 89 86 86 86 97 100 58 67 79 65 91 95 100 100 100 100 100 100 93 80 78 77 94 99 80 63 42 34 28 24 22 26 44 40 42 50 100 69 100 100 100 100 100 100 63
48 60 59 62 72 100 100 100 91 77 80 77 72 56 53 52 44 41 35 52 85 78 75 89 100 100 85 94 87 61 45 34 28 23 23 26 43 29 41 42 98 80 100 100 100 100 100 91 54
66 84 89 76 64 85 100 100 100 88 71 74 86 72 70 63 50 49 43 62 96 100 100 100 100 100 100 100 86 66 47 33 30 23 25 28 42 27 25 52 72 78 100 100 100 100 100 73 71
74 64 78 92 78 95 79 100 100 100 100 96 77 85 79 86 75 56 50 43 45 56 61 72 78 100 100 100 96 51 51 35 31 23 28 40 46 32 27 78 95 85 100 100 100 100 97 54 76
69 62 83 100 100 96 95 88 100 100 100 100 100 91 90 90 74 67 55 58 55 58 48 53 59 69 100 100 87 62 48 32 30 23 28 54 61 31 22 92 98 85 100 100 100 91 87 59 81
55 66 81 99 100 100 100 100 99 100 100 100 100 100 100 100 98 77 92 68 57 66 59 100 100 100 98 95 85 53 45 33 30 23 29 54 49 26 26 46 93 87 100 100 100 91 80 78 77
55 75 95 97 100 100 100 100 100 100 100 100 100 98 96 97 100 100 97 62 80 98 77 76 77 97 100 92 83 52 43 30 30 23 32 52 46 24 60 50 80 97 100 100 100 100 91 71 71
37 50 60 99 100 100 100 100 100 99 93 100 100 100 100 100 100 100 98 85 100 100 76 76 100 100 99 100 79 39 37 32 28 24 35 56 44 28 85 59 97 100 100 100 100 100 94 59 54
31 30 38 51 95 96 100 100 100 100 96 78 99 100 100 96 97 100 100 100 100 100 81 90 100 83 99 96 59 42 40 34 31 28 43 62 35 24 92 57 96 100 100 100 100 100 89 83 63
36 29 28 40 54 72 96 80 92 96 100 100 97 100 100 90 86 100 100 100 100 100 78 74 86 100 83 80 57 51 37 48 32 31 56 61 28 22 100 64 58 97 100 100 100 100 100 100 100
38 41 31 30 33 55 75 72 99 99 100 100 100 100 100 100 91 74 91 100 100 99 88 83 85 95 91 100 80 45 42 57 46 35 68 65 32 24 95 84 64 63 100 91 100 100 100 100 100
34 35 74 46 26 27 52 77 83 91 100 100 100 100 100 100 100 86 88 100 100 100 91 71 96 100 99 91 72 55 43 36 27 39 82 44 30 24 68 97 76 89 100 100 100 100 100 100 83
25 36 44 48 34 38 50 74 86 100 98 100 100 100 100 100 96 93 90 100 100 100 82 73 84 96 89 86 76 52 41 72 40 56 98 46 32 27 23 99 80 84 100 100 100 100 100 100 100
21 27 32 40 33 50 70 71 95 100 100 96 100 100 100 100 100 100 98 94 100 99 91 84 78 99 92 100 77 47 40 55 60 95 100 52 34 30 22 92 83 82 100 100 100 100 100 100 100
18 21 25 31 45 61 84 90 74 73 93 97 88 73 74 100 100 100 100 100 94 100 95 99 100 99 99 100 60 54 42 53 96 100 97 48 35 29 24 77 88 81 88 100 100 100 100 100 100

GFSSGP_250_rhum_126.txt.gz
RH
37 37 36 34 36 37 37 33 30 30 29 28 27 26 27 25 26 23 21 19 19 17 15 15 14 14 13 12 11 10 9 8 8 7 7 7 8 7 6 7 12 14 20 35 67 40 30 25 20
44 44 43 42 43 43 39 35 33 32 30 30 28 28 30 28 27 24 24 23 23 21 22 19 17 16 15 16 14 12 10 10 9 9 8 8 8 8 13 11 11 35 90 88 92 100 82 61 47
44 42 43 41 47 46 40 38 37 33 32 31 29 32 34 31 32 29 32 30 28 29 30 26 24 21 18 18 17 15 13 13 12 11 10 9 8 8 16 22 24 61 92 91 81 99 94 100 78
35 36 35 40 46 48 38 33 38 38 35 33 32 37 38 30 40 32 42 34 32 32 32 30 26 23 19 20 19 19 16 15 15 13 12 12 10 14 11 34 69 41 61 73 100 94 99 99 100
36 36 36 38 68 38 39 42 45 43 43 40 39 40 43 32 35 39 42 38 34 38 38 35 33 37 25 23 26 23 22 20 16 13 12 12 15 11 11 24 79 87 100 100 100 100 100 91 99
70 80 59 78 72 39 48 50 50 53 58 51 50 54 45 39 36 52 47 44 44 40 45 45 46 48 37 50 49 40 28 27 24 18 12 12 15 17 18 17 98 100 100 100 100 92 100 93 78
72 90 77 93 54 40 48 52 50 51 58 46 50 46 46 39 41 72 58 43 48 46 59 66 71 60 85 81 80 56 46 30 32 25 15 13 18 24 33 26 85 100 100 100 100 94 100 100 88
58 70 97 73 38 40 43 50 50 56 55 55 47 60 66 32 62 98 50 64 59 50 58 63 60 98 100 83 100 78 57 37 33 28 16 16 16 16 23 33 70 100 100 100 100 100 100 100 100
52 52 69 56 41 43 50 54 50 58 61 61 52 63 61 57 73 97 64 75 65 55 58 59 64 86 74 100 100 95 67 40 32 35 20 18 17 18 16 25 41 100 100 100 100 100 100 100 100
37 49 70 77 57 46 46 46 47 46 50 53 52 56 96 64 66 58 83 71 56 59 61 53 53 53 98 100 100 85 90 67 34 40 21 20 18 18 17 22 23 47 84 100 100 100 100 100 100
58 45 46 56 68 67 61 50 48 55 57 83 56 53 95 86 52 58 74 62 50 100 100 84 52 60 60 100 97 95 100 70 42 40 27 24 18 21 20 29 33 36 40 100 100 100 100 100 100
43 47 57 58 60 57 69 83 96 83 79 73 99 100 100 100 100 100 100 89 56 88 76 58 66 77 44 100 100 100 91 52 54 47 35 31 22 22 23 49 82 65 47 59 100 100 100 100 100
67 65 57 50 57 62 60 64 95 96 96 90 79 84 92 100 100 100 100 100 63 40 39 66 90 93 71 100 100 91 73 62 69 51 35 40 23 23 21 46 95 100 86 81 65 69 98 100 100
72 65 60 59 73 62 72 57 52 79 100 100 100 89 74 53 74 94 100 94 73 64 84 48 94 100 100 100 100 90 60 77 64 50 39 40 24 24 23 44 78 84 100 97 94 93 99 100 100
70 64 61 64 71 87 67 60 48 55 83 80 100 100 100 96 64 44 39 74 100 100 80 45 91 100 100 100 86 76 98 100 77 57 43 37 25 24 25 37 62 58 100 97 78 100 100 96 98
59 50 59 66 54 58 75 60 64 70 66 62 80 97 100 100 100 100 100 99 100 100 100 100 100 100 100 86 86 100 100 100 96 49 44 39 26 24 25 37 39 32 100 100 99 96 100 100 100
56 45 48 49 65 51 68 53 57 57 63 70 62 62 70 72 97 87 63 52 50 44 38 64 55 34 76 92 100 100 100 100 94 71 50 40 27 24 24 40 36 44 99 100 100 92 100 100 100
55 55 40 32 46 49 60 50 57 58 65 79 74 62 86 86 54 75 76 61 49 50 49 42 50 52 97 88 100 97 84 100 88 81 63 40 27 25 25 40 34 45 58 100 89 90 100 100 100
41 30 32 37 46 54 71 55 65 79 90 94 100 95 100 100 100 82 64 69 69 76 70 63 50 45 40 47 52 57 99 100 100 70 45 40 26 27 28 42 33 49 36 96 92 96 100 100 100
28 24 28 38 48 55 58 52 81 94 100 100 100 100 100 100 100 100 100 72 65 86 79 79 59 51 46 52 57 98 100 100 91 65 43 34 28 26 28 42 38 31 42 82 99 94 99 100 100
23 23 26 36 48 47 59 56 68 94 100 100 100 100 100 100 100 100 96 100 100 92 84 94 79 68 54 53 62 71 100 98 100 74 51 31 29 28 36 41 58 35 29 100 100 86 96 100 100
24 28 22 25 40 43 58 47 81 100 100 100 100 100 100 100 100 100 100 100 100 100 100 100 99 88 63 71 88 83 77 100 99 68 58 33 29 25 38 44 75 28 47 100 100 76 100 100 100
19 24 25 20 20 29 45 55 96 100 100 100 100 100 100 100 100 100 88 99 100 100 100 99 99 96 82 100 100 95 100 74 98 75 57 31 30 25 46 42 45 34 46 83 100 81 89 100 100
18 20 23 24 18 14 45 57 69 97 100 100 100 100 100 100 100 100 100 100 94 100 100 98 100 100 100 100 99 100 98 75 98 63 48 38 31 25 48 58 46 56 91 87 100 90 94 100 100
21 24 25 22 23 14 35 31 35 98 100 100 100 100 100 100 100 100 100 92 92 100 100 85 98 100 100 100 100 95 82 76 99 61 41 75 54 26 47 50 31 78 97 100 100 96 100 100 100
19 19 21 20 25 22 25 18 36 66 94 100 100 100 100 100 100 100 98 88 100 100 100 100 98 97 100 100 100 96 84 78 95 58 54 73 57 31 47 45 28 74 100 100 100 100 100 100 100
12 15 17 19 21 18 27 33 30 36 57 93 100 100 100 100 100 100 100 85 95 100 100 100 93 94 100 100 100 94 84 74 96 56 47 72 59 33 54 40 26 60 95 100 100 98 100 100 100
11 12 13 17 18 23 30 42 31 45 39 64 77 97 100 100 100 99 95 98 100 100 100 100 90 75 92 100 100 88 77 98 78 58 46 71 44 40 53 47 28 36 83 90 93 95 100 100 100
8 12 11 13 15 23 27 37 42 48 60 47 55 84 85 97 100 100 99 100 100 100 100 100 95 68 85 100 100 94 69 78 86 44 48 66 34 48 54 41 28 27 78 73 82 85 97 100 100
7 8 10 12 15 16 21 30 35 60 99 54 38 48 66 90 94 100 100 100 100 97 95 96 79 88 73 100 98 76 71 90 67 43 48 80 41 61 62 42 30 26 38 92 100 100 100 100 100

GFSSGP_250_rhum_132.txt.gz
RH
35 32 30 30 31 41 34 32 28 28 28 28 32 30 30 32 36 33 32 30 28 28 28 28 24 23 23 21 19 20 20 21 21 19 17 14 12 10 9 8 8 8 7 7 7 10 45 87 76
40 38 39 38 40 46 41 30 30 28 28 28 30 30 33 36 35 39 34 30 31 31 32 31 29 28 28 28 26 24 25 29 30 29 24 20 16 14 12 11 9 9 8 8 8 10 31 92 98
40 38 38 36 35 39 38 31 29 27 28 25 28 31 33 39 42 36 33 34 34 35 37 36 38 32 34 34 32 29 27 28 57 46 38 24 20 17 14 12 12 12 10 10 9 85 42 49 65
35 34 31 32 30 30 33 27 26 27 27 29 40 47 42 48 33 34 33 35 36 39 41 49 48 42 42 45 51 47 37 31 67 64 36 45 29 24 17 14 12 14 11 12 11 86 100 64 55
40 37 31 29 38 50 60 46 40 38 36 33 47 82 70 52 34 33 39 46 50 54 54 52 54 61 55 55 64 56 44 36 60 56 45 65 44 34 25 17 15 14 13 13 16 70 100 100 79
44 40 40 40 47 62 73 61 40 46 43 48 66 97 77 45 32 39 63 66 57 53 51 50 65 70 68 76 77 61 48 41 56 51 57 79 48 46 41 24 16 15 16 17 16 57 100 100 100
41 36 36 40 45 45 51 50 46 40 42 49 79 80 69 41 34 49 57 68 68 54 54 52 67 68 76 87 86 58 54 72 50 38 69 73 43 44 33 32 19 19 17 17 19 18 100 100 100
34 30 30 37 44 38 36 31 38 42 52 48 61 84 52 39 42 51 56 66 73 73 56 54 64 69 73 88 86 68 91 97 72 45 41 45 53 36 40 39 23 30 24 17 16 22 95 100 100
40 26 27 41 40 44 54 51 46 36 30 29 52 72 53 39 44 49 54 59 71 68 63 56 53 54 70 70 69 86 100 98 55 56 66 61 45 38 44 51 28 34 26 20 17 17 50 100 100
33 35 38 37 38 43 61 66 64 42 40 34 29 44 67 53 45 47 52 56 59 61 72 54 64 45 44 80 74 70 71 76 44 81 100 88 54 50 59 53 35 49 30 22 20 18 28 35 97
52 41 62 63 54 60 54 57 88 66 54 54 47 38 38 62 60 57 59 56 54 51 64 91 97 87 61 88 100 80 61 38 41 59 92 100 76 75 77 45 47 70 36 24 22 21 28 37 48
55 53 57 56 57 55 79 67 68 77 86 79 59 60 49 42 41 36 39 64 56 47 54 98 98 84 100 100 100 99 89 48 46 68 52 100 68 94 83 40 69 65 46 34 27 25 28 40 55
77 67 53 52 53 54 66 87 90 86 96 100 93 65 57 58 49 38 32 36 46 62 59 68 87 100 100 97 100 100 99 59 39 59 63 91 100 84 65 40 61 80 49 34 25 30 51 46 56
85 80 71 62 55 54 53 52 61 83 97 96 95 84 76 66 57 44 38 34 35 44 84 82 68 73 91 90 100 94 88 53 42 90 100 100 89 45 46 73 81 62 44 32 26 39 87 80 47
99 98 92 94 90 73 63 51 51 54 71 69 92 97 99 96 78 64 56 39 37 37 38 55 94 97 100 100 100 100 77 39 95 100 71 51 50 48 53 82 55 42 54 30 31 52 100 100 83
96 88 85 100 100 100 88 48 65 71 70 70 74 78 71 64 62 57 54 56 48 51 38 43 51 100 100 100 100 73 38 75 100 100 86 50 53 46 64 55 39 46 64 45 65 79 100 100 99
93 74 80 99 100 98 91 78 90 86 70 69 74 75 70 77 88 82 82 77 71 65 49 38 51 90 100 100 100 87 89 100 100 92 84 69 56 65 46 37 57 90 100 45 43 85 100 98 100
82 72 60 59 70 54 47 40 42 39 37 37 42 51 57 53 51 51 56 57 62 57 51 46 39 64 100 100 100 100 100 100 100 86 69 67 55 42 41 55 83 95 100 54 53 92 100 99 98
80 76 77 82 100 51 50 50 48 44 36 38 41 41 37 38 39 40 44 49 45 46 50 48 42 49 87 100 100 100 100 92 100 86 65 58 52 53 49 84 88 88 97 62 63 78 99 97 81
99 87 82 77 74 67 67 39 28 30 27 29 27 28 23 25 29 37 44 47 40 40 54 73 50 48 85 93 100 100 100 95 90 81 67 60 64 63 52 75 66 85 92 63 51 76 98 99 100
86 68 69 54 45 39 30 22 21 20 21 22 20 20 18 21 24 28 34 43 41 42 64 95 64 66 97 100 100 100 100 100 66 71 61 68 70 66 58 74 69 68 66 63 45 67 100 84 95
67 60 48 29 24 22 22 19 19 16 18 20 20 20 17 17 21 23 26 32 38 47 65 77 78 98 84 100 100 100 100 100 100 98 74 65 80 100 63 87 70 64 79 66 73 62 77 55 53
33 25 20 18 17 17 18 18 15 18 22 25 23 28 17 19 18 15 34 31 36 43 58 86 89 100 93 100 100 98 100 100 100 100 96 90 97 90 100 82 86 71 58 65 100 80 80 57 52
20 17 17 17 18 16 18 20 11 20 26 20 27 27 20 21 18 26 36 38 42 51 79 100 100 100 100 100 100 85 96 100 100 100 100 100 95 100 99 76 74 83 62 74 89 95 93 73 60
18 17 16 16 19 16 17 14 16 21 19 13 18 18 19 24 14 27 50 59 65 79 100 100 100 100 100 100 100 97 90 80 100 100 100 100 100 100 67 51 78 100 65 78 80 92 98 90 65
17 16 16 13 14 15 19 16 17 13 12 15 17 22 17 22 17 21 42 60 84 97 100 100 100 100 100 99 100 79 97 100 100 89 100 100 97 70 57 54 95 100 63 69 76 85 98 100 79
17 16 14 15 13 12 14 11 10 11 10 14 20 21 23 25 23 25 29 54 98 100 100 100 100 100 100 100 100 100 74 86 99 97 99 89 83 72 74 78 100 94 61 66 86 88 100 96 60
21 16 15 13 9 9 9 6 7 8 11 11 16 17 24 32 33 29 26 34 97 100 100 98 96 100 100 100 100 100 100 91 90 100 81 72 77 77 67 100 97 95 87 89 81 87 82 75 48
20 12 10 9 7 6 6 5 5 8 10 11 16 18 25 30 35 31 33 42 82 96 100 100 100 100 100 100 100 100 100 96 89 92 86 70 70 80 85 100 100 100 77 73 72 44 49 67 38
8 7 6 6 5 4 4 6 5 8 10 12 19 19 26 35 40 35 25 29 52 96 100 100 100 100 100 100 100 100 85 83 100 100 95 64 88 100 100 82 100 100 69 64 71 50 52 69 38